[[[{"header":{"parameterUnit":"kt","parameterCategory":2,"dx":1,"dy":1,"la1":29.587661999999998,"la2":31.0,"lo1":-88.76705300000003,"lo2":-86.6583820000003,"nx":115,"ny":88,"refTime":"2022-10-08T06:00:00:Z","depth":0,"parameterNumber":1,"parameterNumberName":"U-component_of_WINDS"},"data":[11.3255,11.5143,11.6264,11.7895,11.9432,11.998,12.0422,12.1258,12.1324,12.1324,12.1324,12.1324,12.1324,12.1324,12.1324,12.1324,12.1258,12.1411,12.1714,12.2081,12.2462,12.2903,12.3195,12.3484,12.3628,12.3628,12.3628,12.3628,12.3628,12.3628,12.3628,12.3628,12.3628,12.3628,12.3628,12.3494,12.3167,12.2361,12.1556,12.0812,11.9739,11.9605,11.9605,11.9002,11.8197,11.7527,11.6789,11.5784,11.518,11.4778,11.4711,11.4711,11.4711,11.4711,11.4711,11.4711,11.4711,11.4711,11.4711,11.4711,11.4711,11.4711,11.4711,11.4711,11.4711,11.4711,11.4711,11.4711,11.4844,11.4844,11.537,11.5758,11.6452,11.7247,11.7916,11.903,11.9811,12.0207,12.0529,12.0635,12.0635,12.0845,12.0949,12.1053,12.1156,12.1249,12.1406,12.1478,12.1691,12.2758,12.3937,12.4281,12.4524,12.3768,12.2894,12.3965,12.4374,12.3397,12.2798,12.3199,12.3402,12.3311,12.34,12.3383,12.3544,12.3544,12.3544,12.3455,12.3544,12.3544,12.3632,12.3632,12.3719,12.3892,12.4147,11.1252,11.2332,11.5679,11.7469,11.8261,11.9769,12.0667,12.1258,12.1324,12.1324,12.1324,12.1324,12.1324,12.1324,12.1324,12.1324,12.1411,12.1714,12.2015,12.2313,12.261,12.305,12.334,12.3628,12.3628,12.3628,12.3628,12.3628,12.3628,12.3628,12.3628,12.3628,12.3628,12.3628,12.3628,12.3561,12.3494,12.2966,12.2361,12.1482,12.1281,12.1214,12.1147,12.0678,11.9739,11.8331,11.7393,11.6588,11.5918,11.5382,11.4778,11.4778,11.4711,11.4711,11.4711,11.4711,11.4711,11.4711,11.4711,11.4711,11.4711,11.4711,11.4711,11.4711,11.4711,11.4711,11.4711,11.4844,11.4976,11.5239,11.5887,11.652,11.7178,11.7827,11.8432,11.9143,11.9701,12.0137,12.0458,12.0845,12.0949,12.0982,12.1085,12.1258,12.132,12.1576,12.1701,12.1772,12.2057,12.2886,12.3384,12.3626,12.3867,12.3491,12.2658,12.3039,12.3443,12.2748,12.2912,12.3277,12.3455,12.3472,12.356,12.3632,12.3632,12.3632,12.3632,12.3632,12.3632,12.3632,12.3632,12.3792,12.3878,12.4135,12.4314,11.1602,11.1409,11.3873,11.6002,11.774,11.8854,12.0165,12.1193,12.1324,12.1411,12.1563,12.1865,12.2015,12.2015,12.2015,12.2015,12.2015,12.2164,12.2462,12.2757,12.305,12.334,12.3484,12.3628,12.3628,12.3628,12.3628,12.3628,12.3628,12.3628,12.3628,12.3628,12.3628,12.3628,12.3628,12.3628,12.3628,12.3628,12.3092,12.2898,12.304,12.2973,12.2973,12.222,12.1415,12.041,11.9203,11.7661,11.6924,11.6186,11.5046,11.4845,11.4711,11.4711,11.4711,11.4711,11.4711,11.4711,11.4711,11.4711,11.4711,11.4711,11.4711,11.4711,11.4711,11.4711,11.4711,11.4711,11.4976,11.5437,11.6014,11.677,11.7488,11.82,11.8801,11.9256,11.985,12.0281,12.074,12.1053,12.1085,12.1187,12.1391,12.1491,12.1591,12.1844,12.1844,12.2012,12.2083,12.2556,12.2583,12.2751,12.2848,12.2681,12.2654,12.2748,12.2932,12.3096,12.3186,12.3366,12.3544,12.3544,12.3632,12.3632,12.3632,12.3632,12.3632,12.3632,12.3632,12.3719,12.3792,12.3878,12.4123,12.4376,12.4721,11.2461,11.1664,11.2817,11.4811,11.7154,11.7743,11.905,12.0732,12.1213,12.1714,12.2015,12.2164,12.2313,12.2313,12.2313,12.2313,12.2462,12.2462,12.2903,12.305,12.3195,12.334,12.3628,12.3628,12.3628,12.3628,12.3628,12.3628,12.3628,12.3628,12.3628,12.3628,12.3628,12.3628,12.3628,12.3771,12.3838,12.3905,12.3779,12.3995,12.4135,12.4129,12.4055,12.351,12.2756,12.1818,12.0477,11.8868,11.7795,11.6789,11.5516,11.4845,11.4711,11.4711,11.4711,11.4711,11.4711,11.4711,11.4711,11.4711,11.4711,11.4711,11.4711,11.4711,11.4711,11.4711,11.4711,11.4711,11.4976,11.537,11.6014,11.677,11.7505,11.8221,11.8985,11.9521,12.0034,12.0494,12.0949,12.1156,12.136,12.1491,12.1691,12.179,12.1888,12.1986,12.2083,12.2155,12.2155,12.2297,12.2466,12.2515,12.2466,12.2654,12.284,12.3096,12.3277,12.3366,12.3366,12.3455,12.3544,12.3632,12.3632,12.3632,12.3632,12.3632,12.3632,12.3632,12.3719,12.3806,12.3892,12.4063,12.4231,12.4721,12.512,11.3098,11.3067,11.3985,11.4957,11.5853,11.6951,11.8036,11.9351,12.112,12.2015,12.2313,12.2164,12.2313,12.261,12.261,12.261,12.2757,12.2757,12.2903,12.305,12.3195,12.334,12.3628,12.3628,12.3628,12.3628,12.3628,12.3628,12.3628,12.3628,12.3628,12.3628,12.3628,12.3771,12.3771,12.3914,12.4264,12.4399,12.4545,12.4756,12.4756,12.4478,12.4264,12.4055,12.3578,12.2966,12.1556,11.9873,11.8398,11.6991,11.5784,11.4778,11.4711,11.4711,11.4711,11.4711,11.4711,11.4711,11.4711,11.4844,11.4844,11.4711,11.4711,11.4711,11.4844,11.4844,11.4844,11.4844,11.5108,11.5567,11.6395,11.714,11.8003,11.8779,11.9325,11.978,12.0281,12.0599,12.109,12.1461,12.1591,12.1691,12.1888,12.1888,12.1986,12.1986,12.2083,12.2083,12.2155,12.2297,12.249,12.2538,12.2748,12.3024,12.3186,12.3366,12.3455,12.3544,12.3544,12.3632,12.3632,12.3632,12.3632,12.3632,12.3632,12.3632,12.3632,12.3632,12.3632,12.3806,12.399,12.4242,12.4582,12.5197,12.5488,11.4087,11.3832,11.5235,11.5733,11.6069,11.769,11.8942,11.9536,12.0722,12.1878,12.269,12.2903,12.305,12.3195,12.3195,12.3195,12.3128,12.3195,12.3195,12.334,12.3484,12.3484,12.3628,12.3628,12.3628,12.3628,12.3628,12.3628,12.3628,12.3628,12.3628,12.3628,12.3914,12.3914,12.4055,12.4405,12.4685,12.51,12.5374,12.5578,12.5442,12.5306,12.4895,12.4617,12.4478,12.4068,12.3326,12.0899,11.9684,11.8606,11.6051,11.5043,11.4711,11.4711,11.4711,11.4711,11.4844,11.4976,11.4976,11.5175,11.5108,11.5108,11.4976,11.4976,11.4976,11.5175,11.5108,11.5108,11.5437,11.5954,11.677,11.7505,11.8428,11.9149,11.966,12.0211,12.0529,12.074,12.1194,12.1662,12.179,12.1888,12.1986,12.2083,12.2083,12.2083,12.2083,12.2083,12.2251,12.249,12.2704,12.2748,12.3024,12.3366,12.3455,12.3544,12.3544,12.3544,12.3632,12.3632,12.3632,12.3632,12.3632,12.3632,12.3632,12.3632,12.3632,12.3632,12.3719,12.3905,12.4075,12.4406,12.4886,12.5418,12.5774,11.4855,11.5042,11.6481,11.6976,11.6873,11.9238,12.0493,12.0788,12.1226,12.2126,12.3195,12.334,12.334,12.3628,12.3628,12.3628,12.3628,12.3628,12.3628,12.3628,12.3628,12.3628,12.3628,12.3628,12.3628,12.3628,12.3628,12.3771,12.3771,12.3628,12.3628,12.3914,12.4197,12.4338,12.4617,12.4895,12.5578,12.598,12.6246,12.6246,12.6177,12.598,12.5644,12.5306,12.4965,12.4421,12.3471,12.1441,11.9887,11.901,11.6651,11.5374,11.4844,11.4844,11.4711,11.4711,11.4844,11.5175,11.5175,11.5306,11.5437,11.5306,11.5567,11.537,11.5437,11.5437,11.55,11.5629,11.5954,11.652,11.7262,11.7916,11.8686,11.9325,11.992,12.0388,12.0705,12.0986,12.1289,12.162,12.1888,12.1986,12.1986,12.2083,12.2083,12.2083,12.2083,12.218,12.2348,12.2726,12.2912,12.3024,12.3366,12.3455,12.3544,12.3632,12.3632,12.3632,12.3632,12.3632,12.3632,12.3632,12.3632,12.3632,12.3632,12.3632,12.3632,12.3719,12.3892,12.399,12.4324,12.4721,12.5036,12.5638,12.6064,11.5107,11.7118,11.7959,11.8201,11.8701,12.0574,12.2048,12.277,12.2916,12.3061,12.3628,12.3195,12.334,12.3628,12.3628,12.3628,12.3628,12.3628,12.3628,12.3628,12.3628,12.3628,12.3628,12.3628,12.3628,12.3628,12.3628,12.3771,12.4123,12.3914,12.3914,12.4055,12.4478,12.4895,12.5306,12.5847,12.6509,12.6899,12.6959,12.6959,12.6959,12.6571,12.6303,12.5766,12.5365,12.4622,12.3061,12.1501,11.9811,11.8261,11.6773,11.5905,11.5437,11.5306,11.4976,11.4844,11.4711,11.4844,11.4844,11.4976,11.5108,11.5567,11.5887,11.6022,11.6029,11.6225,11.6286,11.6345,11.6803,11.7291,11.7746,11.8385,11.9004,11.9561,12.0104,12.0635,12.0881,12.1156,12.1449,12.1648,12.1986,12.2083,12.2083,12.2083,12.2083,12.2155,12.2226,12.2348,12.2676,12.3024,12.3186,12.3366,12.3455,12.3544,12.3632,12.3632,12.3632,12.3632,12.3632,12.3632,12.3632,12.3632,12.3632,12.3632,12.3632,12.3632,12.3632,12.3806,12.3978,12.4324,12.4576,12.4963,12.5417,12.5986,12.6329,11.3332,11.5051,11.733,11.857,11.8938,12.0508,12.1359,12.1848,12.2939,12.3484,12.3628,12.3484,12.3484,12.3628,12.3628,12.3628,12.3628,12.3628,12.3628,12.3628,12.3628,12.3628,12.3628,12.3628,12.3628,12.3628,12.3628,12.3771,12.3914,12.3914,12.4123,12.4338,12.4689,12.5374,12.6177,12.6701,12.7214,12.7593,12.7718,12.7718,12.758,12.7385,12.6914,12.5972,12.5432,12.4628,12.2862,12.1363,11.9879,11.8691,11.7356,11.6277,11.5697,11.5437,11.5175,11.4976,11.4844,11.4976,11.5306,11.55,11.5629,11.5819,11.6142,11.6142,11.6277,11.688,11.6939,11.6997,11.7862,11.8139,11.831,11.8846,11.941,11.9889,12.0388,12.0845,12.1123,12.142,12.1603,12.1915,12.2083,12.2083,12.2083,12.2083,12.2155,12.2297,12.2466,12.2726,12.2971,12.3294,12.3544,12.3544,12.3544,12.3632,12.3632,12.3632,12.3632,12.3632,12.3632,12.3632,12.3632,12.3632,12.3632,12.3632,12.3632,12.3719,12.3792,12.3892,12.4147,12.4487,12.489,12.5417,12.5893,12.6219,12.6555,11.2371,11.415,11.6426,11.7658,11.8084,11.9561,12.0255,12.0664,12.2011,12.3159,12.3561,12.3628,12.3628,12.3628,12.3628,12.3628,12.3628,12.3628,12.3628,12.3628,12.3628,12.3628,12.3628,12.3628,12.3628,12.3628,12.3771,12.3914,12.4055,12.4197,12.4478,12.4756,12.5238,12.6045,12.6959,12.7593,12.7843,12.8265,12.8507,12.8108,12.7689,12.755,12.6803,12.5171,12.4912,12.3907,12.2262,12.1209,11.9811,11.8619,11.7645,11.6714,11.621,11.5826,11.5697,11.5437,11.5175,11.5175,11.5567,11.6082,11.62,11.6191,11.6112,11.5578,11.585,11.7123,11.703,11.6798,11.8021,11.8843,11.8779,11.9186,11.9741,12.0104,12.0635,12.102,12.1289,12.1576,12.1701,12.2012,12.2083,12.2083,12.2083,12.2083,12.2155,12.2297,12.2726,12.2971,12.2862,12.3183,12.3199,12.3271,12.3271,12.3415,12.3632,12.3632,12.3632,12.3487,12.3487,12.3343,12.3487,12.3632,12.356,12.3415,12.3575,12.3719,12.3892,12.3978,12.4314,12.4807,12.5418,12.5974,12.6293,12.6529,12.6841,11.1913,11.4617,11.5606,11.5954,11.6086,11.819,11.9136,11.9337,12.0751,12.2093,12.2948,12.336,12.336,12.3427,12.3561,12.3628,12.3628,12.3628,12.3628,12.3628,12.3628,12.3628,12.3628,12.3628,12.3628,12.3771,12.3914,12.4338,12.4685,12.4756,12.5032,12.5374,12.5778,12.624,12.689,12.7773,12.8386,12.8747,12.8726,12.7816,12.6977,12.6627,12.5787,12.4623,12.4018,12.3089,12.1789,12.0745,11.9839,11.8724,11.7952,11.7453,11.6894,11.652,11.6142,11.5893,11.5567,11.5306,11.5306,11.5887,11.6259,11.6236,11.4941,11.4668,11.4995,11.5618,11.5888,11.5564,11.737,11.8821,11.9159,11.9491,11.9818,12.0211,12.0705,12.109,12.142,12.1701,12.1869,12.2012,12.2083,12.2083,12.2083,12.2012,12.2083,12.218,12.2736,12.2862,12.259,12.2534,12.2317,12.2245,12.2188,12.2188,12.2115,12.2838,12.3271,12.3343,12.3054,12.2549,12.2476,12.2418,12.2708,12.3213,12.3155,12.3109,12.3555,12.4075,12.4648,12.5269,12.5917,12.6312,12.6616,12.6915,12.7199,11.1914,11.3302,11.5142,11.5223,11.4697,11.6718,11.7661,11.7999,11.928,12.015,12.0647,12.1743,12.2086,12.2421,12.3024,12.3494,12.3494,12.3494,12.3561,12.3628,12.3628,12.3628,12.3628,12.3628,12.3771,12.4055,12.4264,12.4405,12.4756,12.5032,12.5238,12.5778,12.6309,12.7018,12.7773,12.8507,12.8611,12.8186,12.7948,12.7428,12.609,12.5809,12.5105,12.3658,12.3156,12.2274,12.103,12.0457,11.9813,11.9124,11.8501,11.8152,11.7677,11.7194,11.677,11.6463,11.6082,11.5697,11.5697,11.5947,11.5918,11.5268,11.3904,11.3289,11.3494,11.4229,11.4697,11.4468,11.6007,11.6943,11.6197,11.7818,11.8875,11.9296,11.9857,12.0448,12.0837,12.0962,12.1273,12.1441,12.1798,12.1727,12.1584,12.137,12.0895,12.0104,12.0668,12.0802,12.0946,12.1148,12.1163,12.1177,12.1032,12.0743,12.0454,12.0901,12.1347,12.1407,12.1407,12.1118,12.0973,12.0335,12.0419,12.1359,12.2034,12.2489,12.3243,12.4284,12.5044,12.571,12.6128,12.6589,12.6826,12.7161,12.7511,11.0752,11.2578,11.3545,11.3558,11.2965,11.5111,11.5984,11.6388,11.7664,11.8403,11.8445,11.9868,12.0544,12.0745,12.1617,12.2153,12.2756,12.2756,12.3159,12.3427,12.3628,12.3628,12.3628,12.3628,12.3771,12.3914,12.4338,12.4617,12.4895,12.5306,12.551,12.6109,12.7087,12.7897,12.8158,12.8471,12.7991,12.7339,12.6883,12.6356,12.5154,12.4659,12.4022,12.2608,12.2256,12.1586,12.0633,12.0385,11.999,11.9521,11.8628,11.7899,11.7301,11.6832,11.6475,11.6182,11.6316,11.6268,11.6336,11.5294,11.46,11.3562,11.2709,11.1985,11.217,11.3135,11.334,11.3842,11.4925,11.5949,11.5293,11.6346,11.7534,11.8021,11.8608,11.929,11.9583,11.9512,11.9583,11.9419,11.9943,12.0656,12.0585,12.0514,11.9275,11.8335,11.8524,11.8733,11.9214,11.9489,11.9805,11.9889,11.9973,11.9756,11.9922,11.9633,11.9333,11.9405,11.9633,11.9778,12.0077,11.9352,11.9434,11.9651,12.0385,12.157,12.2906,12.4313,12.5344,12.6059,12.6534,12.6789,12.7079,12.7422,12.7691,10.9259,11.2118,11.1153,11.0968,11.1504,11.3372,11.4377,11.4711,11.6119,11.6858,11.6989,11.813,11.8734,11.9136,11.9538,12.0343,12.1281,12.1281,12.1885,12.2689,12.336,12.3092,12.3024,12.3159,12.3494,12.3578,12.427,12.4617,12.5032,12.5305,12.5829,12.6545,12.6733,12.7829,12.8074,12.7667,12.6915,12.6463,12.5897,12.5046,12.3912,12.3345,12.2849,12.1715,12.1431,12.1258,12.0878,12.0669,12.0422,12.0137,11.8861,11.7903,11.7777,11.7185,11.6908,11.6626,11.6577,11.6197,11.5718,11.4402,11.2964,11.2211,11.1574,11.1095,11.0751,11.1858,11.2391,11.2425,11.3298,11.4244,11.4838,11.5569,11.6015,11.6527,11.7327,11.7946,11.8469,11.8302,11.8255,11.7566,11.7802,11.8444,11.8516,11.8895,11.8009,11.8389,11.8552,11.8661,11.8853,11.9082,11.9094,11.9188,11.9198,11.928,11.9442,11.9442,11.9434,11.9352,11.9369,11.9369,11.9442,11.9522,11.9601,11.9971,12.071,12.1375,12.2334,12.3732,12.5045,12.6173,12.6913,12.702,12.7236,12.7606,12.7818,10.8561,10.9225,10.8183,10.865,10.9977,11.1906,11.2905,11.3236,11.471,11.5314,11.5382,11.5784,11.6588,11.746,11.8533,11.9136,11.9672,11.9739,12.0008,12.0611,12.1214,12.1348,12.1617,12.2689,12.31,12.2306,12.4005,12.4624,12.4763,12.4882,12.4754,12.4564,12.5529,12.5903,12.619,12.628,12.6144,12.5684,12.4971,12.3794,12.2586,12.2302,12.1947,12.1633,12.1391,12.1187,12.1258,12.1156,12.0982,12.0669,11.9825,11.9154,11.8791,11.8321,11.7917,11.7323,11.6286,11.5778,11.4744,11.3617,11.2676,11.1668,11.0889,11.0157,10.9583,10.917,10.9613,11.0996,11.1832,11.214,11.2444,11.3899,11.4689,11.5527,11.6282,11.6853,11.7445,11.7802,11.766,11.7467,11.7467,11.7467,11.7559,11.7651,11.7995,11.835,11.8538,11.8721,11.895,11.9333,11.9343,11.9434,11.9442,11.9522,11.9601,11.9522,11.9522,11.9522,11.9535,11.9535,11.968,11.968,11.9758,12.0573,12.1531,12.1974,12.2333,12.3358,12.4453,12.5341,12.6055,12.6658,12.703,12.766,12.7892,10.6792,10.7252,10.673,10.759,10.9312,11.0441,11.1105,11.1895,11.3166,11.377,11.384,11.4376,11.518,11.5985,11.6789,11.7594,11.813,11.8264,11.8533,11.9404,12.0008,12.0343,12.0477,12.1751,12.3033,12.2979,12.3938,12.449,12.3667,12.3618,12.394,12.383,12.4273,12.4701,12.5677,12.5083,12.4941,12.4654,12.3896,12.2715,12.2102,12.1888,12.1888,12.1888,12.1691,12.1591,12.1491,12.1391,12.1289,12.1014,12.0306,11.9889,11.9473,11.9154,11.841,11.7554,11.5801,11.4508,11.3385,11.2293,11.1089,11.0176,10.9789,10.947,10.9186,10.9278,11.0125,11.0536,11.1229,11.177,11.2163,11.3892,11.4721,11.5305,11.6454,11.7098,11.758,11.758,11.7559,11.7559,11.7559,11.7651,11.7905,11.8067,11.8406,11.8812,11.8971,11.9286,11.96,11.9778,11.9804,11.9819,11.9898,11.9753,11.9758,11.9758,11.9758,11.9758,11.9767,11.984,11.9909,11.9909,12.0063,12.0579,12.1242,12.1892,12.2573,12.307,12.3218,12.411,12.5114,12.4869,12.4706,12.5628,12.6799,10.4819,10.6134,10.6134,10.7325,10.9114,10.9645,10.9973,11.0689,11.2019,11.249,11.2365,11.3705,11.4243,11.4644,11.4778,11.565,11.6387,11.6789,11.7192,11.7996,11.8667,11.927,12.0209,12.0812,12.1623,12.1898,12.3263,12.293,12.2078,12.2343,12.2918,12.3089,12.3495,12.4291,12.4376,12.3737,12.3621,12.354,12.2672,12.2155,12.2083,12.2083,12.2083,12.2083,12.1986,12.1888,12.179,12.1691,12.1591,12.1249,12.0013,11.9204,11.8649,11.8413,11.729,11.5639,11.4201,11.3116,11.2112,11.1099,10.9839,10.9475,10.9048,10.902,10.9278,11.0021,11.0568,11.1137,11.2542,11.2971,11.2641,11.4836,11.5738,11.6076,11.6346,11.7079,11.7923,11.7794,11.7833,11.7833,11.8712,11.8658,11.8963,11.8997,11.9028,11.9244,11.9547,11.9922,12.0238,12.0376,12.048,12.0637,12.0715,12.0208,12.0066,12.0066,12.0066,12.0066,12.0139,12.0285,12.0208,12.0208,12.0287,12.0291,12.051,12.1084,12.1973,12.2345,12.2211,12.2828,12.3664,12.3409,12.2812,12.3757,12.5178,10.4819,10.6134,10.6134,10.7325,10.9246,11.0574,11.0773,11.0823,11.1818,11.1885,11.1158,11.2303,11.3039,11.3238,11.4108,11.4845,11.5046,11.5247,11.5449,11.6052,11.6856,11.6856,11.7192,11.7996,11.9609,12.0019,12.0698,12.0816,12.0458,12.1224,12.1347,12.1491,12.1477,12.1867,12.2391,12.2384,12.2331,12.2316,12.2155,12.2083,12.2083,12.2083,12.2083,12.2083,12.2083,12.2083,12.1986,12.1986,12.179,12.1406,12.1023,12.0284,11.9163,11.885,11.7575,11.5335,11.4265,11.2884,11.1681,11.0434,11.0125,10.9493,10.9278,10.9169,10.9455,10.9916,11.0434,11.1137,11.2214,11.2615,11.2608,11.3575,11.444,11.5186,11.6006,11.6665,11.7631,11.8138,11.8085,11.8693,11.9716,12.0363,12.1172,12.1349,12.1451,12.1596,12.1262,12.1637,12.1454,12.1498,12.0855,12.1083,12.1017,12.0435,12.0364,12.0364,12.0364,12.029,12.0363,12.0437,12.051,12.0508,12.0289,12.0272,12.0272,12.0026,12.1297,12.1946,12.1491,12.1486,12.2262,12.2541,12.2139,12.2757,12.3458,10.4819,10.6068,10.6134,10.7325,10.9047,10.9445,10.9373,10.9549,11.081,11.1079,11.1024,11.1899,11.2837,11.3504,11.384,11.4108,11.4577,11.4711,11.4711,11.4778,11.5516,11.565,11.6454,11.7326,11.8134,11.8539,11.8393,11.8613,11.9157,12.0051,12.0275,12.0239,12.0635,12.0982,12.1289,12.1662,12.1861,12.2057,12.2155,12.2083,12.2083,12.2083,12.2083,12.2083,12.2083,12.2083,12.2083,12.2083,12.163,12.0891,12.0748,11.9797,11.849,11.7352,11.6001,11.4059,11.3232,11.2522,11.1572,11.1067,11.0669,11.0332,11.0229,11.0021,10.9811,11.0229,11.0869,11.1668,11.2451,11.3521,11.2914,11.4957,11.5512,11.6016,11.6721,11.7599,11.812,11.8389,11.8494,11.8668,11.9619,12.07,12.223,12.2822,12.3502,12.3603,12.3349,12.308,12.2894,12.1953,12.0642,12.0795,12.0729,12.0437,12.051,12.0582,12.051,12.051,12.051,12.0582,12.0655,12.0729,12.0574,11.9862,11.9291,11.8806,11.9763,12.0321,12.022,12.0253,12.0452,12.0624,12.0916,12.1336,12.1738,10.4819,10.6134,10.6134,10.7325,10.8848,10.8383,10.844,10.8744,11.0011,11.028,11.0219,11.1493,11.27,11.3437,11.2968,11.3638,11.451,11.4711,11.4711,11.4778,11.4845,11.5314,11.5985,11.6588,11.7395,11.8134,11.7512,11.7359,11.8241,11.8916,11.9689,12.0278,12.0845,12.1085,12.1461,12.1947,12.2387,12.2226,12.2583,12.244,12.2226,12.2083,12.2083,12.2083,12.2083,12.2083,12.2083,12.1869,12.1156,11.9871,11.9515,11.8373,11.6639,11.5284,11.4123,11.3055,11.2679,11.2495,11.2003,11.1743,11.1457,11.1067,11.0869,11.0739,11.0739,11.1067,11.1553,11.2309,11.3592,11.4641,11.3579,11.5368,11.6854,11.6926,11.7097,11.8078,11.8293,11.7934,11.7444,11.7975,11.9214,12.0382,12.0888,12.1564,12.1878,12.1899,12.1781,12.1729,12.1743,12.1014,12.0066,11.9997,12.0071,12.0069,12.0207,11.9987,11.9836,11.9611,11.9452,11.9518,11.9746,12.0346,12.0173,11.8954,11.8167,11.8126,11.8084,11.8113,11.8463,11.9082,11.8729,11.8373,11.9092,11.984,12.0243,10.4819,10.6134,10.6134,10.7325,10.918,11.0242,11.0307,11.0024,11.0359,10.9823,10.9012,11.0029,11.1363,11.1694,11.3303,11.4309,11.4644,11.4711,11.4711,11.4711,11.4711,11.4979,11.518,11.5448,11.5915,11.6305,11.6345,11.714,11.8338,11.9099,11.9771,12.074,12.1085,12.1289,12.1947,12.3028,12.3439,12.244,12.3225,12.3439,12.2297,12.218,12.218,12.218,12.218,12.218,12.1941,12.0988,12.0061,11.9729,11.8493,11.6354,11.4306,11.3093,11.2879,11.2879,11.2825,11.2646,11.2282,11.2189,11.1932,11.1165,11.1165,11.1165,11.136,11.1648,11.2118,11.2699,11.3129,11.378,11.3688,11.4957,11.5553,11.614,11.6502,11.7504,11.7999,11.64,11.6039,11.6627,11.7638,11.8661,11.9322,12.0285,12.024,12.0262,12.0132,12.0141,11.9997,11.9413,11.8756,11.8462,11.8226,11.8135,11.8259,11.8176,11.8008,11.7838,11.7636,11.7636,11.7784,11.8464,11.888,11.7808,11.7693,11.7941,11.8037,11.7962,11.801,11.8103,11.8149,11.8149,11.8224,11.8373,11.8597,10.4424,10.5016,10.6005,10.7061,10.8183,10.9176,10.9837,11.0292,11.0359,11.0359,11.0621,11.1163,11.1966,11.2767,11.3303,11.4108,11.451,11.4711,11.4711,11.4711,11.4711,11.4711,11.4711,11.4976,11.5306,11.5893,11.6395,11.7505,11.8571,11.9325,11.999,12.0949,12.1156,12.1391,12.1904,12.3555,12.368,12.2919,12.3848,12.392,12.2658,12.2466,12.2654,12.2466,12.2748,12.2819,12.2323,12.1013,11.9703,11.8373,11.6995,11.507,11.3164,11.2736,11.2736,11.2736,11.3002,11.2914,11.2736,11.2646,11.2556,11.2096,11.2096,11.1932,11.1838,11.2303,11.2646,11.2825,11.3177,11.3605,11.3854,11.4018,11.4316,11.512,11.5192,11.5481,11.5905,11.5111,11.4533,11.5038,11.5905,11.6926,11.7886,11.9135,11.9449,11.9322,11.9263,11.8755,11.8536,11.817,11.7293,11.713,11.6657,11.6607,11.6717,11.6897,11.6881,11.6979,11.6998,11.7127,11.7201,11.7404,11.768,11.7791,11.7962,11.8103,11.8103,11.8149,11.8149,11.8149,11.8149,11.8149,11.8224,11.8298,11.8224,10.403,10.4096,10.5543,10.6331,10.6656,10.7441,10.8497,10.9884,10.9884,11.0554,11.1761,11.1962,11.2767,11.4041,11.3504,11.3571,11.4644,11.4711,11.4711,11.4711,11.4711,11.4711,11.4711,11.4976,11.5437,11.5954,11.6645,11.7626,11.864,11.9325,12.0099,12.0878,12.1258,12.1391,12.2003,12.3582,12.392,12.3039,12.4041,12.4065,12.3035,12.3024,12.3186,12.3024,12.3366,12.3366,12.2736,12.1404,11.9552,11.7702,11.611,11.4591,11.3093,11.2736,11.2736,11.2825,11.3002,11.309,11.309,11.309,11.309,11.2736,11.2646,11.2808,11.2374,11.3002,11.3177,11.3264,11.3448,11.3854,11.4018,11.41,11.4172,11.4244,11.4244,11.4244,11.4172,11.4172,11.41,11.4461,11.5255,11.614,11.6374,11.7555,11.808,11.8529,11.817,11.7513,11.7075,11.6708,11.6479,11.6598,11.6533,11.6897,11.7071,11.724,11.7275,11.7362,11.7414,11.7466,11.754,11.7689,11.7891,11.8085,11.8149,11.8149,11.8149,11.8149,11.8149,11.8149,11.8149,11.8149,11.8149,11.8149,11.8149,10.403,10.403,10.4487,10.4873,10.5394,10.6974,10.8023,10.8409,10.8476,10.9348,11.0487,11.0689,11.156,11.2834,11.3638,11.4443,11.4577,11.4644,11.4644,11.4711,11.4711,11.4711,11.4711,11.5108,11.5567,11.6022,11.6588,11.7626,11.864,11.9099,11.992,12.0878,12.1258,12.1491,12.2343,12.3848,12.3802,12.3134,12.4232,12.4441,12.3474,12.3294,12.3544,12.3632,12.3719,12.3719,12.3023,12.1514,11.9663,11.7814,11.6311,11.4558,11.295,11.2736,11.2736,11.2825,11.3162,11.3177,11.3002,11.335,11.3435,11.3002,11.3233,11.3392,11.3249,11.3435,11.3605,11.3688,11.4018,11.4018,11.41,11.41,11.41,11.41,11.41,11.41,11.41,11.41,11.41,11.4172,11.4405,11.4787,11.4943,11.5245,11.5761,11.7002,11.6854,11.6486,11.6337,11.6329,11.6378,11.6408,11.6837,11.724,11.7404,11.751,11.7666,11.7642,11.7693,11.7742,11.7767,11.7866,11.8057,11.8149,11.8149,11.8149,11.8149,11.8149,11.8149,11.8149,11.8149,11.8149,11.8149,11.8149,11.8149,10.4095,10.4159,10.4546,10.4929,10.5249,10.6226,10.7279,10.8007,10.8141,10.8945,11.0152,11.042,11.0756,11.1426,11.2834,11.3437,11.3571,11.4309,11.4644,11.4711,11.4644,11.4644,11.4844,11.5306,11.5697,11.6022,11.7017,11.7984,11.8756,11.9438,12.0245,12.1085,12.136,12.1591,12.2226,12.3777,12.4041,12.3322,12.4534,12.4952,12.3688,12.3905,12.4231,12.4231,12.4641,12.4801,12.435,12.2489,12.0395,11.8524,11.6666,11.4825,11.304,11.2736,11.2736,11.2736,11.3249,11.3421,11.3335,11.3421,11.3435,11.335,11.3074,11.3162,11.3264,11.3461,11.3628,11.3772,11.3937,11.4018,11.41,11.41,11.41,11.41,11.41,11.41,11.41,11.41,11.41,11.41,11.4333,11.457,11.4729,11.5031,11.5324,11.554,11.5751,11.5883,11.6024,11.6297,11.6491,11.6717,11.7128,11.7457,11.7666,11.7767,11.7866,11.7866,11.7914,11.7914,11.8037,11.8057,11.8149,11.8149,11.8149,11.8149,11.8149,11.8149,11.8149,11.8149,11.8149,11.8149,11.8149,11.8149,11.8149,10.4095,10.4418,10.4802,10.5056,10.5433,10.5805,10.6599,10.747,10.7537,10.8275,10.9549,10.9817,10.9951,11.0487,11.156,11.1962,11.2298,11.3437,11.4108,11.4175,11.4108,11.4309,11.4777,11.5437,11.5893,11.6022,11.7209,11.8221,11.8756,11.9438,12.0245,12.1258,12.136,12.1491,12.2226,12.3444,12.3658,12.3291,12.4609,12.4803,12.405,12.4641,12.4959,12.488,12.5342,12.5491,12.5345,12.3725,12.1875,11.986,11.753,11.5056,11.3217,11.2825,11.2825,11.2914,11.3249,11.3507,11.3507,11.3592,11.3605,11.352,11.335,11.3177,11.3264,11.3461,11.37,11.37,11.3854,11.41,11.41,11.41,11.41,11.41,11.41,11.41,11.41,11.41,11.41,11.41,11.4412,11.4575,11.4733,11.5032,11.5467,11.5751,11.5878,11.5986,11.628,11.6555,11.6778,11.7128,11.7404,11.7666,11.7866,11.7962,11.801,11.801,11.801,11.8085,11.8178,11.8149,11.8149,11.8149,11.8149,11.8149,11.8149,11.8149,11.8149,11.8149,11.8149,11.8149,11.8149,11.8149,11.8149,10.4095,10.4418,10.4802,10.5182,10.5433,10.5872,10.6063,10.613,10.6197,10.7001,10.8007,10.8275,10.8945,11.0085,11.0353,11.0554,11.0756,11.2029,11.2633,11.2499,11.27,11.337,11.4376,11.5167,11.5562,11.5954,11.6962,11.7934,11.8756,11.9213,11.992,12.1085,12.136,12.1491,12.2155,12.2632,12.2984,12.3042,12.3792,12.4437,12.456,12.488,12.5114,12.5491,12.5565,12.5638,12.5638,12.5051,12.4167,12.2404,11.8661,11.5661,11.3622,11.3002,11.2825,11.309,11.3335,11.3507,11.3592,11.3772,11.3772,11.3435,11.3605,11.3854,11.3592,11.3748,11.3904,11.4009,11.4018,11.41,11.41,11.41,11.41,11.41,11.41,11.41,11.41,11.41,11.41,11.418,11.4419,11.4657,11.4733,11.5251,11.5678,11.5878,11.6068,11.6334,11.6618,11.6852,11.711,11.7383,11.7666,11.7866,11.7962,11.8057,11.8103,11.8103,11.8103,11.8103,11.8149,11.8149,11.8149,11.8149,11.8149,11.8149,11.8149,11.8149,11.8149,11.8149,11.8149,11.8149,11.8149,11.8149,11.8149,10.4418,10.4802,10.5056,10.5433,10.5682,10.5805,10.5928,10.5928,10.5928,10.6264,10.6666,10.68,10.7135,10.7672,10.861,10.8945,10.9147,11.0554,11.0689,10.9951,11.0689,11.1962,11.3236,11.3632,11.4363,11.5819,11.7154,11.8053,11.8756,11.9256,12.0029,12.1085,12.136,12.1491,12.2083,12.2561,12.2952,12.3167,12.3918,12.456,12.488,12.5269,12.5565,12.5637,12.5854,12.5924,12.5924,12.5854,12.4609,12.1974,11.9986,11.7008,11.3651,11.3002,11.2825,11.309,11.3421,11.3592,11.3605,11.3854,11.3772,11.3772,11.3616,11.3461,11.3616,11.3628,11.3772,11.3865,11.4018,11.41,11.41,11.41,11.41,11.41,11.41,11.41,11.41,11.41,11.41,11.4267,11.4503,11.4733,11.4958,11.5396,11.5815,11.5878,11.6215,11.6555,11.689,11.7087,11.7436,11.7668,11.7962,11.801,11.8057,11.8103,11.8149,11.8149,11.8149,11.8149,11.8149,11.8149,11.8149,11.8149,11.8149,11.8149,11.8149,11.8149,11.8149,11.8149,11.8149,11.8149,11.8149,11.8149,11.8149,10.4675,10.4929,10.5308,10.5558,10.5928,10.5928,10.5928,10.5928,10.5928,10.5928,10.5928,10.5928,10.5928,10.6264,10.6934,10.7403,10.7537,10.8476,10.8744,10.8409,10.9214,11.0689,11.2231,11.2566,11.3762,11.5751,11.7086,11.8053,11.8756,11.9256,12.0067,12.1085,12.1391,12.1591,12.2083,12.2561,12.2952,12.3415,12.4169,12.4728,12.519,12.5565,12.578,12.5851,12.6064,12.6207,12.6133,12.5691,12.4007,12.1301,12.0142,11.7797,11.4441,11.335,11.3177,11.335,11.352,11.3844,11.3937,11.3865,11.3937,11.3937,11.37,11.3544,11.37,11.372,11.3802,11.3865,11.4018,11.41,11.41,11.41,11.41,11.41,11.41,11.41,11.41,11.3585,11.3602,11.3688,11.4212,11.4733,11.5105,11.5538,11.5815,11.5883,11.6362,11.6743,11.6999,11.7295,11.7618,11.7907,11.7982,11.8057,11.8103,11.8149,11.8149,11.8149,11.8149,11.8149,11.8149,11.8149,11.8149,11.8149,11.8149,11.8149,11.8149,11.8149,11.8149,11.8149,11.8149,11.8149,11.8149,11.8149,11.8149,10.4675,10.5056,10.5308,10.5558,10.5928,10.5928,10.5928,10.5928,10.5928,10.5928,10.5928,10.5928,10.5928,10.5995,10.613,10.6063,10.6197,10.6398,10.6934,10.7806,10.8074,10.9616,11.2096,11.2096,11.3291,11.5352,11.6702,11.7677,11.8409,11.8977,11.9856,12.1014,12.142,12.179,12.2083,12.2561,12.3024,12.3487,12.4242,12.4886,12.5491,12.5709,12.5851,12.6064,12.6133,12.6207,12.6133,12.4659,12.3045,12.1358,11.9542,11.7076,11.4629,11.4018,11.3937,11.3772,11.3937,11.418,11.4412,11.4252,11.3937,11.3854,11.3937,11.3865,11.3782,11.3865,11.4027,11.4018,11.41,11.41,11.41,11.41,11.41,11.41,11.41,11.41,11.3802,11.2783,11.1926,11.2531,11.3782,11.466,11.5105,11.5538,11.5883,11.6024,11.6436,11.6878,11.7147,11.7493,11.7758,11.7999,11.8074,11.8103,11.8149,11.8149,11.8149,11.8149,11.8149,11.8149,11.8149,11.8149,11.8149,11.8149,11.8149,11.8149,11.8149,11.8149,11.8149,11.8149,11.8149,11.8149,11.8149,11.8149,11.8149,10.4675,10.5308,10.5558,10.5805,10.5928,10.5928,10.5928,10.5928,10.5928,10.5928,10.5928,10.5928,10.5928,10.5928,10.5928,10.5928,10.5928,10.5928,10.6197,10.6666,10.6666,10.7672,10.9281,10.9549,11.0735,11.2646,11.3223,11.4008,11.5364,11.7165,11.8522,11.9568,12.0994,12.179,12.2083,12.2561,12.3096,12.3719,12.4406,12.5117,12.5637,12.5924,12.6064,12.6207,12.6207,12.6207,12.6133,12.4586,12.2898,12.1284,11.9532,11.7435,11.5169,11.4412,11.41,11.4252,11.418,11.4252,11.4412,11.4252,11.4018,11.4018,11.3874,11.3874,11.4018,11.3874,11.4027,11.41,11.41,11.41,11.41,11.41,11.41,11.41,11.41,11.41,11.41,11.3585,11.3458,11.355,11.4294,11.4885,11.5179,11.5535,11.5815,11.5957,11.6583,11.7044,11.7368,11.7683,11.7999,11.8149,11.8149,11.8149,11.8149,11.8149,11.8149,11.8149,11.8149,11.8149,11.8149,11.8149,11.8149,11.8149,11.8149,11.8149,11.8149,11.8149,11.8149,11.8149,11.8149,11.8149,11.8149,11.8149,11.8149,10.4675,10.5308,10.5682,10.5928,10.5928,10.5928,10.5928,10.5928,10.5928,10.5928,10.5928,10.5928,10.5928,10.5928,10.5392,10.5191,10.5191,10.5191,10.5459,10.5928,10.6118,10.6857,10.8007,10.8266,10.9447,11.1158,11.1484,11.2266,11.3912,11.6337,11.7926,11.883,12.071,12.1888,12.2083,12.2561,12.3186,12.3951,12.4487,12.512,12.5851,12.6064,12.6207,12.6207,12.6201,12.5906,12.5249,12.3695,12.2073,12.0394,11.8709,11.7052,11.5616,11.4878,11.4575,11.4497,11.4497,11.4497,11.457,11.434,11.418,11.41,11.3955,11.3955,11.41,11.4027,11.3955,11.4027,11.41,11.41,11.41,11.41,11.41,11.41,11.41,11.3883,11.3377,11.3241,11.3392,11.3477,11.335,11.3648,11.4156,11.5242,11.5883,11.6171,11.6712,11.7219,11.7568,11.785,11.8074,11.8149,11.8149,11.8149,11.8149,11.8149,11.8149,11.8149,11.8149,11.8149,11.8149,11.8149,11.8149,11.8149,11.8149,11.8149,11.8149,11.8149,11.8149,11.8149,11.8149,11.8149,11.8149,11.8149,11.8149,10.4542,10.4989,10.5682,10.5928,10.5928,10.5928,10.5928,10.5928,10.5928,10.5928,10.5928,10.5928,10.5928,10.566,10.4319,10.3783,10.385,10.4037,10.4776,10.5984,10.6362,10.7102,10.794,10.8448,10.9368,11.0684,11.0929,11.1956,11.3651,11.6486,11.813,11.8476,12.0695,12.2012,12.218,12.2561,12.3366,12.4135,12.4648,12.5269,12.5994,12.5912,12.5765,12.5691,12.6041,12.5155,12.3621,12.2204,12.0654,11.8903,11.7365,11.6354,11.5883,11.5538,11.5106,11.4808,11.4956,11.4956,11.4657,11.4497,11.4412,11.41,11.41,11.41,11.41,11.41,11.41,11.41,11.41,11.41,11.41,11.3883,11.3811,11.3883,11.3883,11.3089,11.1868,11.1874,11.1807,11.1667,11.1097,11.1318,11.2625,11.4437,11.5229,11.5724,11.6533,11.7091,11.7365,11.7924,11.8149,11.8149,11.8149,11.8149,11.8149,11.8194,11.8194,11.8194,11.8269,11.8224,11.8149,11.8149,11.8149,11.8149,11.8149,11.8149,11.8149,11.8149,11.8149,11.8149,11.8149,11.8149,11.8149,11.8149,11.8149,10.346,10.3908,10.5404,10.5928,10.5928,10.5928,10.5928,10.5928,10.5928,10.5928,10.5928,10.5928,10.5514,10.4546,10.32,10.325,10.4244,10.4311,10.5239,10.6522,10.6776,10.6979,10.7197,10.7211,10.7587,10.8285,10.8352,10.8942,11.0441,11.3265,11.5491,11.6821,11.9104,12.0942,12.1941,12.2748,12.3472,12.4158,12.4807,12.5418,12.5769,12.3849,12.267,12.267,12.2794,12.2637,12.2056,12.0644,11.9536,11.903,11.7355,11.628,11.6158,11.6024,11.5815,11.5608,11.5396,11.5105,11.4733,11.4497,11.4412,11.41,11.41,11.41,11.41,11.41,11.41,11.41,11.41,11.41,11.3955,11.3089,11.2431,11.2422,11.2446,11.1723,11.0417,11.1295,11.1522,11.0734,11.0228,11.0444,11.1163,11.1876,11.2656,11.3301,11.456,11.5628,11.6171,11.7281,11.8149,11.8149,11.8149,11.8194,11.8283,11.8357,11.8357,11.8357,11.8357,11.8313,11.8224,11.8149,11.8149,11.8149,11.8149,11.8149,11.8149,11.8149,11.8149,11.8149,11.8149,11.8149,11.8149,11.8149,11.8149,10.3584,10.3364,10.5203,10.5928,10.5928,10.5928,10.5928,10.5928,10.5928,10.5928,10.5861,10.4896,10.3789,10.2423,10.1729,10.1729,10.2721,10.333,10.4595,10.5948,10.6743,10.7014,10.6828,10.6354,10.6133,10.6531,10.6415,10.6874,10.8043,11.0542,11.2841,11.5068,11.818,12.0157,12.118,12.2481,12.356,12.4169,12.4229,12.4538,12.4739,12.2596,12.1336,12.1466,12.1656,12.1422,12.0683,11.9856,11.9042,11.8242,11.7355,11.6717,11.6471,11.6471,11.605,11.5063,11.4653,11.3938,11.2918,11.3346,11.3555,11.3248,11.3747,11.41,11.41,11.41,11.41,11.41,11.41,11.3811,11.3161,11.2366,11.15,11.0928,11.0866,11.0138,10.86,10.9911,11.0508,10.9283,10.9137,10.9568,11.0361,11.0127,11.0399,11.1813,11.2995,11.4439,11.547,11.6459,11.7401,11.7924,11.7595,11.7565,11.8251,11.8444,11.8444,11.8401,11.8401,11.8357,11.8269,11.8149,11.8149,11.8149,11.8149,11.8149,11.8149,11.8149,11.8149,11.8149,11.8149,11.8149,11.8149,11.8149,11.8224,10.4184,10.362,10.5002,10.5861,10.5928,10.5794,10.5794,10.5928,10.5593,10.5526,10.5246,10.3165,10.1551,10.0265,10.0062,10.0062,10.0512,10.1618,10.3289,10.4846,10.6367,10.6978,10.6607,10.5688,10.5284,10.5373,10.5373,10.5844,10.6735,10.8409,11.0473,11.3488,11.747,11.9586,12.0038,12.205,12.356,12.4169,12.3207,12.2852,12.3266,12.1786,12.0959,12.1262,12.1383,12.0834,11.9426,11.9243,11.8427,11.6979,11.6795,11.6665,11.6305,11.6305,11.5535,11.3704,11.3243,11.2247,11.0659,11.1464,11.2113,11.211,11.3175,11.3883,11.41,11.3811,11.3666,11.3522,11.3594,11.2872,11.1716,11.1283,11.0495,10.9352,10.9209,10.855,10.7307,10.8395,10.8912,10.7468,10.7608,10.8257,10.927,10.8682,10.8876,11.0625,11.1727,11.2931,11.4321,11.5143,11.5935,11.6878,11.6592,11.6379,11.762,11.8303,11.8228,11.8369,11.8401,11.8357,11.8269,11.8149,11.8149,11.8149,11.8149,11.8149,11.8149,11.8149,11.8149,11.8149,11.8149,11.8149,11.8149,11.8149,11.8269,10.3442,10.3662,10.4118,10.4923,10.5794,10.4789,10.5044,10.6093,10.3873,10.2981,10.3011,10.1437,10.0647,10.0351,9.924,9.9484,10.0789,10.1266,10.2832,10.5216,10.5806,10.5942,10.576,10.5669,10.4963,10.4269,10.4349,10.5183,10.6783,10.7447,10.908,11.1869,11.5906,11.8516,11.9729,12.2305,12.3734,12.4024,12.2039,12.1238,12.1646,11.8986,11.7702,11.7932,11.805,11.8148,11.7889,11.6681,11.5756,11.5031,11.3959,11.3292,11.3049,11.3049,11.2844,11.2433,11.1938,11.1474,11.0846,11.0661,11.0952,11.1812,11.2157,11.28,11.3738,11.1933,11.0489,11.0489,11.0633,11.0495,11.0066,10.8905,10.7896,10.7831,10.7614,10.6958,10.587,10.6888,10.7394,10.6298,10.6071,10.6425,10.6711,10.6492,10.6828,10.8156,10.9701,11.1002,11.1855,11.308,11.3872,11.426,11.4123,11.4773,11.6204,11.6849,11.7374,11.8378,11.8528,11.8444,11.8239,11.8149,11.8149,11.8074,11.8074,11.7924,11.8074,11.8074,11.7999,11.785,11.8074,11.8149,11.8074,11.8074,11.8269,10.1896,10.1906,10.2442,10.2844,10.2911,10.2964,10.3604,10.4361,10.1573,10.0918,10.1615,10.019,9.9688,9.9836,9.9018,9.9193,10.0118,10.08,10.2029,10.353,10.4212,10.4554,10.4485,10.3913,10.3379,10.2908,10.3052,10.3606,10.492,10.5716,10.7445,11.0179,11.238,11.5196,11.8587,12.1783,12.3647,12.4096,12.0944,11.9551,12.0092,11.8397,11.7333,11.6881,11.7795,11.8037,11.7532,11.6692,11.6119,11.5978,11.5196,11.4357,11.3509,11.3401,11.2625,11.1088,11.05,10.9839,10.8916,10.8384,10.8697,10.9791,11.0436,11.1223,11.2096,11.0649,10.9712,10.9712,10.9712,10.9422,10.8627,10.7756,10.6888,10.6377,10.6235,10.5801,10.5293,10.6016,10.6363,10.5712,10.5629,10.5762,10.5762,10.582,10.614,10.6814,10.7967,10.957,11.0734,11.1033,11.145,11.3,11.3383,11.448,11.6813,11.7452,11.7753,11.8503,11.8575,11.8494,11.8357,11.7446,11.7102,11.7027,11.6354,11.6055,11.5905,11.6504,11.6578,11.6429,11.6952,11.7625,11.7371,11.77,11.7565,9.9929,9.9157,10.0431,10.0297,9.9425,10.1047,10.1817,10.1775,9.924,9.9086,10.0732,9.9435,9.8958,9.8958,9.8958,9.8889,9.9131,10.0254,10.0937,10.1317,10.2547,10.3162,10.3093,10.2116,10.1572,10.1643,10.1746,10.202,10.2771,10.3916,10.5742,10.8157,10.8771,11.1602,11.6568,12.0615,12.2982,12.3806,12.0214,11.845,11.8765,11.8544,11.7912,11.6905,11.8409,11.8647,11.7019,11.727,11.7121,11.6224,11.6326,11.5631,11.3943,11.3443,11.2321,10.9714,10.8921,10.7843,10.6178,10.5784,10.5958,10.6577,10.8121,10.899,10.8993,10.8993,10.9138,10.9356,10.9211,10.8702,10.7539,10.7105,10.6524,10.5432,10.5141,10.5217,10.5222,10.5498,10.5623,10.5561,10.5696,10.5762,10.5828,10.6014,10.6313,10.6837,10.7496,10.8287,10.9613,10.9133,10.9741,11.2185,11.328,11.4936,11.7152,11.8349,11.8158,11.8653,11.8429,11.7975,11.7845,11.6742,11.58,11.5382,11.4485,11.3662,11.3587,11.4485,11.4709,11.4111,11.5457,11.6728,11.5651,11.6623,11.6847,9.7521,9.7615,9.7883,9.8487,9.9358,9.9904,10.0085,9.9996,0.0,0.0,0.0,9.9026,9.8958,9.8958,9.8958,9.9063,9.9271,9.9545,10.0334,10.171,10.1984,10.2122,10.2122,10.209,10.1537,10.0432,10.083,10.1651,10.2732,10.3278,10.4508,10.649,10.8113,11.0376,11.3319,11.7295,12.031,12.1991,12.0496,11.9412,11.8765,11.7513,11.6348,11.5291,11.683,11.6469,11.4061,11.5058,11.3719,10.9602,10.9501,10.8756,10.6976,10.6927,10.7224,10.7639,10.7391,10.6445,10.4652,10.4343,10.3597,10.2186,10.4484,10.5435,10.4338,10.4124,10.4636,10.587,10.6016,10.6013,10.5934,10.565,10.5574,10.5483,10.5264,10.5192,10.5416,10.555,10.5616,10.5696,10.5762,10.5762,10.5762,10.6004,10.6492,10.7002,10.7369,10.7937,10.8502,10.8502,10.9026,11.1054,11.2755,11.4373,11.6025,11.5975,11.6042,11.8013,11.7414,11.6626,11.6313,11.6037,11.5245,11.4005,11.3587,11.3213,11.3288,11.3438,11.3587,11.3438,11.3812,11.4111,11.3961,11.4946,11.5705,9.4933,9.4933,9.4933,9.5446,0.0,9.649,9.6961,9.756,9.6864,9.7277,9.8483,9.8244,9.8553,9.9306,9.9409,9.9614,9.9716,9.9817,10.0432,10.1154,10.1154,10.1255,10.1285,10.1651,10.1402,10.0707,10.1089,10.1627,10.2396,10.2301,10.3355,10.5577,10.7058,10.8984,11.1236,11.572,11.8452,11.9383,11.861,11.7994,11.7825,11.7838,11.6911,11.51,11.6384,0.0,0.0,0.0,0.0,0.0,0.0,0.0,0.0,0.0,0.0,10.3735,10.2691,10.1561,10.0531,10.0288,10.0188,9.995,10.1164,10.1328,9.9912,10.1227,10.2542,10.3005,10.3143,10.3208,10.3281,10.3216,10.3143,10.3399,10.3389,10.3701,10.4456,10.4602,10.4959,10.5609,10.5755,10.5828,10.582,10.6264,10.6667,10.711,10.7518,10.7927,10.8161,10.8278,10.8876,11.0564,11.2495,11.4335,11.5831,11.5202,11.4857,11.5816,11.5674,11.5084,11.4784,11.399,11.3117,11.2327,11.1387,11.0746,11.0821,11.1494,11.1793,11.112,11.2167,11.284,11.112,11.1387,11.2069,9.2234,9.2129,9.2398,9.2743,9.299,9.3063,9.4058,9.5472,9.5857,9.6582,9.772,9.7435,9.7849,9.9021,9.9565,9.9901,9.9901,10.0471,10.0637,10.0733,10.0733,10.076,10.088,10.1232,10.1372,10.1395,10.1299,10.134,10.159,10.1158,10.1973,10.3959,10.5728,10.7517,10.9671,0.0,0.0,0.0,11.6475,11.6755,11.7071,11.8094,11.7399,11.4861,11.5992,0.0,11.2155,11.2278,11.1932,11.0716,10.9379,0.0,0.0,0.0,0.0,0.0,0.0,0.0,0.0,0.0,0.0,0.0,9.7286,9.67,9.5916,9.8819,10.0745,10.0669,10.1082,10.1302,10.112,10.1194,10.1242,10.1405,10.1405,10.1962,10.3135,10.3216,10.3573,10.4862,10.5236,10.5317,10.5437,10.6299,10.6911,10.729,10.7667,10.8063,10.8278,10.8278,10.8951,11.0605,11.2081,11.3845,11.588,11.4766,11.3768,11.4058,11.3815,11.3308,11.2796,11.167,11.1102,10.9973,10.9109,10.8353,10.8353,10.9325,10.9923,10.8577,11.0447,11.1344,10.8129,10.768,10.8061,8.9443,9.0008,9.1429,9.2171,9.2328,9.2034,9.2961,9.4759,9.4556,9.5304,9.6854,9.6694,9.649,9.6464,9.7902,9.881,9.9136,10.0555,10.1395,10.1691,10.1691,10.1691,10.1691,10.1782,10.1782,10.1712,10.0446,9.983,9.983,9.9742,9.9883,10.0411,10.3517,10.6048,10.7769,11.1771,11.3484,11.2685,11.6475,11.7923,11.7071,11.6985,11.5737,11.3417,11.4461,11.3173,10.909,11.0033,10.8702,10.4393,10.3779,10.277,10.1016,10.0719,9.9755,0.0,9.761,0.0,0.0,0.0,0.0,0.0,0.0,0.0,0.0,9.5726,9.8102,9.9276,10.0613,10.1435,10.1448,10.1375,10.1463,10.1413,10.1394,10.1525,10.1728,10.1559,10.1436,10.1644,10.297,10.371,10.3974,10.5741,10.713,10.7246,10.7733,10.8311,10.8428,10.8428,10.9026,11.0703,11.1292,11.2342,11.3815,11.324,11.2616,11.3606,11.2716,11.1266,10.9828,11.032,11.0056,10.7467,10.7462,10.8054,10.8278,10.8353,10.8428,10.8129,10.8469,10.7945,10.5327,10.5442,10.6344,8.6818,8.7356,8.9045,8.9829,9.0121,9.108,9.1965,9.2911,9.3674,9.4303,9.4928,9.5616,9.6195,9.6595,9.7562,9.809,9.8318,9.9971,10.0358,9.9755,10.0602,10.1042,10.1199,10.1199,10.1624,10.2489,10.1851,10.1582,10.1667,10.0491,10.0067,10.0461,10.2746,10.391,10.4174,10.759,11.0482,11.2628,11.4716,11.63,11.7383,11.6294,11.4877,11.317,11.2719,11.0658,10.6998,10.751,10.6289,10.2887,10.1683,10.077,10.0173,9.662,9.5018,0.0,0.0,0.0,0.0,0.0,0.0,0.0,0.0,0.0,0.0,0.0,9.3448,9.4283,9.6449,9.7768,9.7734,9.768,9.8083,9.9113,9.8424,9.8693,10.0492,10.0349,10.0569,10.1635,10.2947,10.3428,10.2801,10.5286,10.6972,10.6184,10.7377,10.8652,10.9516,10.9074,10.9414,11.1811,11.1708,11.1626,11.2405,11.1448,11.0729,11.1118,11.0004,10.8631,10.7717,10.7354,10.6645,10.5108,10.522,10.5666,10.5586,10.5591,10.5631,10.5591,10.567,10.5295,10.4016,10.4344,10.4828,8.5399,8.5934,8.6954,8.7625,8.8107,9.0394,9.1396,9.1538,9.3183,9.3749,9.3508,9.4645,9.5408,9.5857,9.601,9.6305,9.6729,9.8534,9.8829,9.8272,9.9408,10.0059,10.0222,10.0212,10.0852,10.1931,10.1657,10.1596,10.1686,10.0151,9.9368,9.9472,10.0535,10.0837,10.0584,10.3754,10.7612,11.1944,11.2583,11.4086,11.6424,11.5079,11.3794,11.2859,11.1257,10.8959,10.5835,10.5345,10.4127,10.2124,9.9856,9.8721,9.8575,9.3092,0.0,0.0,0.0,0.0,0.0,0.0,0.0,0.0,0.0,8.7657,8.4987,0.0,8.9655,0.0,9.2338,9.3887,9.4161,9.4137,0.0,0.0,9.5036,9.561,9.8136,9.8378,9.9077,10.0865,10.217,10.2665,10.2022,10.4689,10.6184,10.4894,10.6079,10.7945,11.0082,10.8968,10.8895,11.1445,11.133,11.0867,11.0792,10.9987,10.9446,10.9309,10.7864,10.6524,10.5978,10.4719,10.3675,10.3225,10.3381,10.3647,10.3573,10.3609,10.342,10.2561,10.2549,10.2699,10.2713,10.2695,10.2874,8.6178,8.689,8.6294,8.6408,8.7265,9.026,9.1543,9.1614,9.3186,9.3825,9.3825,9.387,9.316,9.204,9.1891,0.0,9.4018,9.5582,9.7161,9.8673,9.8829,9.8901,9.8886,9.8878,9.895,9.9108,9.7764,9.7125,9.7272,9.7132,9.6201,9.4693,9.4911,9.5917,9.7642,10.1028,10.4775,10.8842,11.0772,11.2137,11.2893,11.2671,11.2129,11.1406,11.069,10.8914,10.5844,10.4108,10.2355,10.0348,9.7334,9.4916,9.3406,0.0,0.0,0.0,0.0,0.0,0.0,0.0,0.0,0.0,0.0,0.0,0.0,0.0,0.0,8.8268,8.9753,0.0,9.2693,9.3005,0.0,0.0,0.0,9.3254,9.3621,9.4678,9.6083,9.7732,0.0,0.0,10.1974,10.3932,10.4623,10.3412,10.3553,10.5063,10.8353,10.7432,10.6868,10.9045,10.9186,10.9277,10.9234,10.9365,10.9396,10.9262,10.7864,10.6102,10.4536,10.3916,10.3314,10.1872,10.2788,10.3701,10.3701,10.355,10.2799,9.9943,9.9569,9.9659,9.9736,9.9836,9.988,8.3769,8.37,8.3361,8.3645,8.44,8.6544,8.8042,8.9184,9.0758,9.0901,8.9973,8.9968,8.9044,8.7609,8.7541,0.0,0.0,0.0,9.2691,9.3407,9.5271,9.6704,9.7486,9.7625,9.8126,9.9066,9.8496,9.8284,9.8358,9.7353,9.4193,8.9152,0.0,0.0,9.4801,9.8047,10.2276,10.7242,10.8244,10.9978,11.2625,11.2726,11.2196,11.1102,10.8918,10.6666,10.4308,10.2573,10.0314,9.7415,9.4962,9.2961,0.0,0.0,0.0,0.0,0.0,0.0,0.0,0.0,0.0,0.0,0.0,8.0287,7.8911,0.0,0.0,0.0,8.4555,8.5902,8.8511,8.9551,0.0,0.0,0.0,0.0,0.0,0.0,0.0,9.6334,9.7742,9.8817,9.9627,10.1313,10.2765,10.3303,10.4315,10.5816,10.8291,0.0,10.7915,10.874,10.9036,10.8768,10.7728,10.8616,10.9367,10.932,10.7081,10.4741,10.2968,10.1781,10.0953,10.035,10.0547,10.0969,10.0908,10.1057,10.0715,9.961,9.9334,9.9383,9.9355,9.9407,9.9409,8.1454,0.0,0.0,0.0,0.0,8.3522,8.4876,8.6153,8.772,8.7792,8.6668,8.6271,0.0,0.0,0.0,0.0,0.0,0.0,8.8743,8.9245,9.1962,9.376,9.4769,9.4769,9.5629,9.721,9.7354,9.7139,9.6707,9.462,9.0723,8.5057,0.0,0.0,0.0,0.0,9.9547,10.4988,10.5782,10.7742,11.1238,11.1459,11.1049,11.0115,10.7388,10.4878,10.2624,10.089,9.8335,9.4784,9.2041,0.0,0.0,0.0,0.0,0.0,0.0,0.0,0.0,0.0,0.0,0.0,0.0,0.0,0.0,0.0,0.0,0.0,0.0,0.0,8.4531,8.6973,8.8088,0.0,0.0,0.0,0.0,0.0,0.0,0.0,0.0,0.0,9.6789,9.8406,10.039,0.0,0.0,10.4696,10.6983,10.7318,10.7579,10.818,10.8836,0.0,10.7546,10.8515,10.9282,10.8828,10.6646,10.4287,10.2092,10.0387,9.9308,9.9282,9.9256,9.9229,9.9099,9.8957,9.885,9.8774,9.8796,9.8796,9.885,9.9174,9.9476,0.0,0.0,0.0,0.0,0.0,0.0,0.0,0.0,8.4393,8.4925,0.0,8.325,0.0,0.0,0.0,0.0,0.0,8.4358,0.0,0.0,8.9152,9.0015,9.0034,9.0102,9.082,9.2328,9.2606,9.1881,9.0153,8.7452,0.0,0.0,0.0,0.0,0.0,0.0,9.6379,10.182,10.3497,10.5449,10.7768,10.8031,10.8123,10.8107,10.6741,10.4274,10.0906,9.9059,9.6537,9.2887,8.8424,0.0,0.0,0.0,0.0,0.0,0.0,0.0,0.0,0.0,0.0,0.0,0.0,0.0,0.0,0.0,0.0,0.0,0.0,0.0,0.0,8.5946,0.0,0.0,0.0,0.0,0.0,0.0,0.0,0.0,0.0,0.0,9.398,9.5437,9.7611,10.091,0.0,0.0,0.0,0.0,10.4809,10.6673,10.8225,10.9195,10.9271,10.932,10.886,10.725,0.0,0.0,10.2351,10.0464,9.9378,9.9444,9.9552,9.9506,9.9355,9.7868,9.7037,9.6984,9.7005,9.7102,9.7156,9.8201,9.9279,0.0,0.0,0.0,0.0,0.0,0.0,0.0,0.0,0.0,7.8536,0.0,7.6976,0.0,0.0,0.0,0.0,0.0,0.0,0.0,0.0,8.4262,8.6069,8.7048,8.8129,8.8345,0.0,8.7904,8.6152,0.0,0.0,0.0,0.0,0.0,0.0,0.0,0.0,9.3201,9.8578,10.134,10.3979,10.6197,10.7377,10.7585,10.6741,10.6184,10.3262,9.7575,9.5846,9.3381,0.0,0.0,0.0,0.0,0.0,0.0,0.0,0.0,0.0,0.0,0.0,0.0,0.0,0.0,0.0,0.0,0.0,0.0,0.0,0.0,0.0,0.0,0.0,8.2585,0.0,0.0,0.0,0.0,0.0,0.0,0.0,0.0,0.0,9.0717,9.3045,9.5535,9.7787,9.9461,10.0877,10.2173,0.0,0.0,0.0,0.0,0.0,0.0,0.0,10.6559,10.7046,10.5313,10.3423,10.2283,10.062,9.9486,9.9541,0.0,0.0,9.3714,9.3337,9.3736,9.3797,9.4743,9.5442,9.5496,9.5967,9.6311,0.0,0.0,0.0,0.0,0.0,0.0,0.0,0.0,0.0,7.4066,7.3046,0.0,0.0,0.0,0.0,0.0,0.0,0.0,0.0,0.0,0.0,0.0,8.2441,8.3598,0.0,0.0,0.0,0.0,0.0,0.0,0.0,0.0,0.0,0.0,0.0,0.0,9.1333,9.6302,10.0118,10.3265,10.5513,10.7242,10.7404,10.6035,10.5362,10.2182,9.5973,0.0,0.0,0.0,0.0,0.0,0.0,0.0,0.0,0.0,0.0,0.0,0.0,0.0,0.0,0.0,0.0,0.0,0.0,0.0,0.0,0.0,0.0,0.0,0.0,0.0,7.9929,0.0,0.0,0.0,0.0,0.0,0.0,0.0,0.0,0.0,0.0,0.0,9.3331,9.608,9.8427,10.0171,10.1442,10.2728,10.3147,0.0,0.0,0.0,0.0,0.0,0.0,0.0,0.0,0.0,0.0,0.0,0.0,0.0,0.0,9.5494,9.0376,8.9923,9.032,9.0393,0.0,0.0,0.0,0.0,0.0,0.0,0.0,0.0,0.0,0.0,0.0,0.0,0.0,0.0,0.0,7.1777,0.0,0.0,6.9383,0.0,0.0,0.0,0.0,0.0,0.0,0.0,0.0,0.0,0.0,0.0,0.0,0.0,0.0,0.0,0.0,0.0,0.0,0.0,0.0,0.0,0.0,9.0853,9.4923,9.9631,10.3166,10.5601,10.7211,10.718,10.5885,10.424,10.1025,9.6089,0.0,0.0,0.0,0.0,0.0,0.0,0.0,0.0,0.0,0.0,0.0,0.0,0.0,0.0,0.0,0.0,0.0,0.0,0.0,0.0,0.0,0.0,0.0,0.0,0.0,0.0,8.1358,8.3012,8.2836,0.0,0.0,0.0,0.0,0.0,0.0,0.0,0.0,0.0,0.0,9.6727,9.8064,10.1264,10.187,10.1985,10.215,10.3529,10.4589,10.4462,10.4425,10.3971,0.0,0.0,0.0,0.0,0.0,0.0,0.0,0.0,0.0,0.0,0.0,0.0,0.0,0.0,0.0,0.0,0.0,0.0,0.0,0.0,0.0,0.0,0.0,0.0,0.0,0.0,0.0,0.0,0.0,0.0,0.0,0.0,0.0,0.0,0.0,0.0,0.0,0.0,0.0,0.0,0.0,0.0,0.0,0.0,0.0,0.0,0.0,0.0,0.0,0.0,0.0,0.0,0.0,0.0,8.9391,9.3268,9.8054,10.1678,10.3926,10.4532,10.4573,10.4165,10.252,9.9305,0.0,0.0,0.0,0.0,0.0,0.0,0.0,0.0,0.0,0.0,0.0,0.0,0.0,0.0,0.0,0.0,0.0,0.0,0.0,0.0,0.0,0.0,0.0,0.0,0.0,0.0,0.0,0.0,8.0429,8.0781,8.0932,0.0,0.0,0.0,0.0,0.0,0.0,0.0,0.0,0.0,0.0,9.7598,9.9778,10.0167,10.0245,10.0348,10.0894,10.1652,10.2727,10.1939,10.15,10.2279,0.0,0.0,0.0,0.0,0.0,0.0,0.0,0.0,0.0,0.0,0.0,0.0,0.0,0.0,0.0,0.0,0.0,0.0,0.0,0.0,0.0,0.0,0.0,0.0,0.0,0.0,0.0,0.0,0.0,0.0,0.0,0.0,0.0,0.0,0.0,0.0,0.0,0.0,0.0,0.0,0.0,0.0,0.0,0.0,0.0,0.0,0.0,0.0,0.0,0.0,0.0,0.0,0.0,8.8853,9.2635,9.7502,10.0702,10.225,10.3004,10.3118,10.2445,10.2072,9.8632,0.0,0.0,0.0,0.0,0.0,0.0,0.0,0.0,0.0,0.0,0.0,0.0,0.0,0.0,0.0,0.0,0.0,0.0,0.0,0.0,0.0,0.0,0.0,0.0,0.0,0.0,0.0,0.0,7.757,7.9,8.0606,0.0,0.0,0.0,0.0,0.0,0.0,0.0,0.0,0.0,0.0,9.6757,9.9088,9.9526,0.0,0.0,9.9076,9.9167,10.0194,9.894,9.8182,9.9345,9.6644,0.0,0.0,0.0,0.0,0.0,0.0,0.0,0.0,0.0,0.0,0.0,0.0,0.0,0.0,0.0,0.0,0.0,0.0,0.0,0.0,0.0,0.0,0.0,0.0,0.0,0.0,0.0,0.0,0.0,0.0,0.0,0.0,0.0,0.0,0.0,0.0,0.0,0.0,0.0,0.0,0.0,0.0,0.0,0.0,0.0,0.0,0.0,0.0,0.0,0.0,0.0,0.0,8.8942,9.2744,9.7534,10.0314,10.0911,10.2371,10.2371,10.0911,10.2445,9.8632,0.0,0.0,0.0,0.0,0.0,0.0,0.0,0.0,0.0,0.0,0.0,0.0,0.0,0.0,0.0,0.0,0.0,0.0,0.0,0.0,0.0,0.0,0.0,0.0,0.0,0.0,0.0,0.0,0.0,0.0,0.0,0.0,0.0,0.0,0.0,0.0,0.0,0.0,0.0,0.0,0.0,9.553,9.8872,9.9259,9.928,0.0,9.8167,9.7197,9.7541,9.5956,9.4729,9.5,0.0,0.0,0.0,0.0,0.0,0.0,0.0,0.0,0.0,0.0,0.0,0.0,0.0,0.0,0.0,0.0,0.0,0.0,0.0,0.0,0.0,0.0,0.0,0.0,0.0,0.0,0.0,0.0,0.0,0.0,0.0,0.0,0.0,0.0,0.0,0.0,0.0,0.0,0.0,0.0,0.0,0.0,0.0,0.0,0.0,0.0,0.0,0.0,0.0,0.0,0.0,0.0,0.0,0.0,9.1215,9.6016,9.9314,10.0761,10.0127,10.0127,10.0875,10.1324,0.0,0.0,0.0,0.0,0.0,0.0,0.0,0.0,0.0,0.0,0.0,0.0,0.0,0.0,0.0,0.0,0.0,0.0,0.0,0.0,0.0,0.0,0.0,0.0,0.0,0.0,0.0,7.0477,0.0,0.0,0.0,0.0,0.0,0.0,0.0,0.0,0.0,0.0,0.0,0.0,0.0,0.0,9.394,9.7286,9.6728,9.6833,0.0,0.0,9.6302,9.8855,9.6681,9.5152,0.0,0.0,0.0,0.0,0.0,0.0,0.0,0.0,0.0,0.0,0.0,0.0,0.0,0.0,0.0,0.0,0.0,0.0,0.0,0.0,0.0,0.0,0.0,0.0,0.0,0.0,0.0,0.0,0.0,0.0,0.0,0.0,0.0,0.0,0.0,0.0,0.0,0.0,0.0,0.0,0.0,0.0,0.0,0.0,0.0,0.0,0.0,0.0,0.0,0.0,0.0,0.0,0.0,0.0,8.7962,9.0621,9.4794,9.7907,9.9753,9.9006,9.9006,9.9828,10.0576,9.7061,0.0,0.0,0.0,0.0,0.0,0.0,0.0,0.0,0.0,0.0,0.0,0.0,0.0,0.0,0.0,0.0,0.0,0.0,0.0,0.0,0.0,0.0,0.0,0.0,0.0,0.0,0.0,0.0,0.0,0.0,0.0,0.0,0.0,0.0,0.0,0.0,0.0,0.0,0.0,0.0,0.0,0.0,9.4837,9.4832,0.0,0.0,0.0,9.4434,9.6387,0.0,0.0,0.0,0.0,0.0,0.0,0.0,0.0,0.0,0.0,0.0,0.0,0.0,0.0,0.0,0.0,0.0,0.0,0.0,0.0,0.0,0.0,0.0,0.0,0.0,0.0,0.0,0.0,0.0,0.0,0.0,0.0,0.0,0.0,0.0,0.0,0.0,0.0,0.0,0.0,0.0,0.0,0.0,0.0,0.0,0.0,0.0,0.0,0.0,0.0,0.0,0.0,0.0,0.0,0.0,0.0,0.0,9.0282,9.3984,9.6794,9.8407,9.8557,9.8557,9.8557,9.9903,9.6837,0.0,0.0,0.0,0.0,0.0,0.0,0.0,0.0,0.0,0.0,0.0,0.0,0.0,0.0,0.0,0.0,0.0,0.0,0.0,0.0,0.0,0.0,0.0,0.0,0.0,0.0,0.0,0.0,0.0,0.0,0.0,0.0,0.0,0.0,0.0,0.0,0.0,0.0,0.0,0.0,0.0,9.197,9.2273,9.3319,9.4318,0.0,0.0,9.2184,9.2548,9.1068,0.0,0.0,0.0,0.0,0.0,0.0,0.0,0.0,0.0,0.0,0.0,0.0,0.0,0.0,0.0,0.0,0.0,0.0,0.0,0.0,0.0,0.0,0.0,0.0,0.0,0.0,0.0,0.0,0.0,0.0,0.0,0.0,0.0,0.0,0.0,0.0,0.0,0.0,0.0,0.0,0.0,0.0,0.0,0.0,0.0,0.0,0.0,0.0,0.0,0.0,0.0,0.0,0.0,0.0,0.0,0.0,8.8877,9.4621,9.7873,9.8366,9.8519,9.8557,9.8557,9.8856,9.579,0.0,0.0,0.0,0.0,0.0,0.0,0.0,0.0,0.0,0.0,0.0,0.0,0.0,0.0,0.0,0.0,0.0,0.0,0.0,0.0,0.0,0.0,0.0,0.0,0.0,0.0,0.0,0.0,0.0,0.0,0.0,0.0,0.0,0.0,0.0,0.0,0.0,0.0,0.0,0.0,0.0,9.0758,9.2121,9.1426,0.0,0.0,0.0,0.0,9.393,9.1874,0.0,0.0,0.0,0.0,0.0,0.0,0.0,0.0,0.0,0.0,0.0,0.0,0.0,0.0,0.0,0.0,0.0,0.0,0.0,0.0,0.0,0.0,0.0,0.0,0.0,0.0,0.0,0.0,0.0,0.0,0.0,0.0,0.0,0.0,0.0,0.0,0.0,0.0,0.0,0.0,0.0,0.0,0.0,0.0,0.0,0.0,0.0,0.0,0.0,0.0,0.0,0.0,0.0,0.0,0.0,0.0,8.958,9.4356,9.7426,9.8406,9.8557,9.8557,9.8482,9.7734,9.4594,0.0,0.0,0.0,0.0,0.0,0.0,0.0,0.0,0.0,0.0,0.0,0.0,0.0,0.0,0.0,0.0,0.0,0.0,0.0,0.0,0.0,0.0,0.0,0.0,0.0,0.0,0.0,0.0,0.0,0.0,0.0,0.0,0.0,0.0,0.0,0.0,0.0,0.0,0.0,0.0,8.9835,9.0138,9.0985,0.0,0.0,0.0,0.0,0.0,0.0,9.1123,9.0272,0.0,0.0,0.0,0.0,0.0,0.0,0.0,0.0,0.0,0.0,0.0,0.0,0.0,0.0,0.0,0.0,0.0,0.0,0.0,0.0,0.0,0.0,0.0,0.0,0.0,0.0,0.0,0.0,0.0,0.0,0.0,0.0,0.0,0.0,0.0,0.0,0.0,0.0,0.0,0.0,0.0,0.0,0.0,0.0,0.0,0.0,0.0,0.0,0.0,0.0,0.0,0.0,0.0,0.0,0.0,9.0356,9.3876,9.657,9.8482,9.8557,9.8557,9.8482,9.6613,9.3323,8.8462,0.0,0.0,0.0,0.0,0.0,0.0,0.0,0.0,0.0,0.0,0.0,0.0,0.0,0.0,0.0,0.0,0.0,0.0,0.0,0.0,0.0,0.0,0.0,0.0,0.0,0.0,0.0,0.0,0.0,0.0,0.0,0.0,0.0,0.0,0.0,0.0,0.0,0.0,0.0,8.9835,8.9835,0.0,0.0,0.0,0.0,0.0,0.0,0.0,0.0,8.9977,0.0,0.0,0.0,0.0,0.0,0.0,0.0,0.0,0.0,0.0,0.0,0.0,0.0,0.0,0.0,0.0,0.0,0.0,0.0,0.0,0.0,0.0,0.0,0.0,0.0,0.0,0.0,0.0,0.0,0.0,0.0,0.0,0.0,0.0,0.0,0.0,0.0,0.0,0.0,0.0,0.0,0.0,0.0,0.0,0.0,0.0,0.0,0.0,0.0,0.0,0.0,0.0,0.0,0.0,0.0,0.0,9.3319,9.6645,9.8366,9.8444,9.8557,9.8482,9.5491,9.1603,8.6667,0.0,0.0,0.0,0.0,0.0,0.0,0.0,0.0,0.0,0.0,0.0,0.0,0.0,0.0,0.0,0.0,0.0,0.0,0.0,0.0,0.0,0.0,0.0,0.0,0.0,0.0,0.0,0.0,0.0,0.0,0.0,0.0,0.0,0.0,0.0,0.0,0.0,0.0,8.955,8.9821,0.0,0.0,0.0,0.0,0.0,0.0,0.0,0.0,9.0018,0.0,0.0,0.0,0.0,0.0,0.0,0.0,0.0,0.0,0.0,0.0,0.0,0.0,0.0,0.0,0.0,0.0,0.0,0.0,0.0,0.0,0.0,0.0,0.0,0.0,0.0,0.0,0.0,0.0,0.0,0.0,0.0,0.0,0.0,0.0,0.0,0.0,0.0,0.0,0.0,0.0,0.0,0.0,0.0,0.0,0.0,0.0,0.0,0.0,0.0,0.0,0.0,0.0,0.0,0.0,0.0,0.0,0.0,9.6684,9.8406,9.8557,9.8108,9.7211,9.4818,9.1154,0.0,0.0,0.0,0.0,0.0,0.0,0.0,0.0,0.0,0.0,0.0,0.0,0.0,0.0,0.0,0.0,0.0,0.0,0.0,0.0,0.0,0.0,0.0,0.0,0.0,0.0,0.0,0.0,0.0,0.0,0.0,0.0,0.0,0.0,0.0,0.0,0.0,0.0,0.0,0.0,0.0,0.0,0.0,0.0,0.0,0.0,0.0,0.0,0.0,0.0,0.0,0.0,0.0,0.0,0.0,0.0,0.0,0.0,0.0,0.0,0.0,0.0,0.0,0.0,0.0,0.0,0.0,0.0,0.0,0.0,0.0,0.0,0.0,0.0,0.0,0.0,0.0,0.0,0.0,0.0,0.0,0.0,0.0,0.0,0.0,0.0,0.0,0.0,0.0,0.0,0.0,0.0,0.0,0.0,0.0,0.0,0.0,0.0,0.0,0.0,0.0,0.0,0.0,0.0,0.0,0.0,0.0,0.0,9.6388,9.8482,9.8557,9.7734,9.6015,9.407,9.0705,0.0,0.0,0.0,0.0,0.0,0.0,0.0,0.0,0.0,0.0,0.0,0.0,0.0,0.0,0.0,0.0,0.0,0.0,0.0,0.0,0.0,0.0,0.0,0.0,0.0,0.0,0.0,0.0,0.0,0.0,0.0,0.0,0.0,0.0,0.0,0.0,0.0,0.0,0.0,0.0,0.0,0.0,0.0,0.0,0.0,0.0,0.0,0.0,9.0029,0.0,0.0,0.0,0.0,0.0,0.0,0.0,0.0,0.0,0.0,0.0,0.0,0.0,0.0,0.0,0.0,0.0,0.0,0.0,0.0,0.0,0.0,0.0,0.0,0.0,0.0,0.0,0.0,0.0,0.0,0.0,0.0,0.0,0.0,0.0,0.0,0.0,0.0,0.0,0.0,0.0,0.0,0.0,0.0,0.0,0.0,0.0,0.0,0.0,0.0,0.0,0.0,0.0,0.0,0.0,0.0,0.0,0.0,0.0,9.5342,9.8482,9.8557,9.7734,9.6015,9.3023,8.9135,0.0,0.0,0.0,0.0,0.0,0.0,0.0,0.0,0.0,0.0,0.0,0.0,0.0,0.0,0.0,0.0,0.0,0.0,0.0,0.0,0.0,0.0,0.0,0.0,0.0,0.0,0.0,0.0,0.0,0.0,0.0,0.0,0.0,0.0,0.0,0.0,0.0,0.0,0.0,0.0,0.0,0.0,0.0,0.0,0.0,0.0,0.0,0.0,0.0,0.0,0.0,0.0,0.0,0.0,0.0,0.0,0.0,0.0,0.0,0.0,0.0,0.0,0.0,0.0,0.0,0.0,0.0,0.0,0.0,0.0,0.0,0.0,0.0,0.0,0.0,0.0,0.0,0.0,0.0,0.0,0.0,0.0,0.0,0.0,0.0,0.0,0.0,0.0,0.0,0.0,0.0,0.0,0.0,0.0,0.0,0.0,0.0,0.0,0.0,0.0,0.0,0.0,0.0,0.0,0.0,0.0,0.0,0.0,9.3771,9.6987,9.7061,9.5865,9.3248,9.093,8.7415,0.0,0.0,0.0,0.0,0.0,0.0,0.0,0.0,0.0,0.0,0.0,0.0,0.0,0.0,0.0,0.0,0.0,0.0,0.0,0.0,0.0,0.0,0.0,0.0,0.0,0.0,0.0,0.0,0.0,0.0,0.0,0.0,0.0,0.0,0.0,0.0,0.0,0.0,0.0,0.0,0.0,0.0,0.0,0.0,0.0,0.0,0.0,0.0,0.0,0.0,0.0,0.0,0.0,0.0,0.0,0.0,0.0,0.0,0.0,0.0,0.0,0.0,0.0,0.0,0.0,0.0,0.0,0.0,0.0,0.0,0.0,0.0,0.0,0.0,0.0,0.0,0.0,0.0,0.0,0.0,0.0,0.0,0.0,0.0,0.0,0.0,0.0,0.0,0.0,0.0,0.0,0.0,0.0,0.0,0.0,0.0,0.0,0.0,0.0,0.0,0.0,0.0,0.0,0.0,0.0,0.0,0.0,0.0,0.0,9.5192,9.4968,9.3397,9.0556,8.8911,8.5845,0.0,0.0,0.0,0.0,0.0,0.0,0.0,0.0,0.0,0.0,0.0,0.0,0.0,0.0,0.0,0.0,0.0,0.0,0.0,0.0,0.0,0.0,0.0,0.0,0.0,0.0,0.0,0.0,0.0,0.0,0.0,0.0,0.0,0.0,0.0,0.0,0.0,0.0,0.0,0.0,0.0,0.0,0.0,0.0,0.0,0.0,0.0,0.0,0.0,0.0,0.0,0.0,0.0,0.0,0.0,0.0,0.0,0.0,0.0,0.0,0.0,0.0,0.0,0.0,0.0,0.0,0.0,0.0,0.0,0.0,0.0,0.0,0.0,0.0,0.0,0.0,0.0,0.0,0.0,0.0,0.0,0.0,0.0,0.0,0.0,0.0,0.0,0.0,0.0,0.0,0.0,0.0,0.0,0.0,0.0,0.0,0.0,0.0,0.0,0.0,0.0,0.0,0.0,0.0,0.0,0.0,0.0,0.0,0.0,9.3622,9.2201,9.0631,8.8836,8.7116,8.4723,0.0,0.0,0.0,0.0,0.0,0.0,0.0,0.0,0.0,0.0,0.0,0.0,0.0,0.0,0.0,0.0,0.0,0.0,0.0,0.0,0.0,0.0,0.0,0.0,0.0,0.0,0.0,0.0,0.0,0.0,0.0,0.0,0.0,0.0,0.0,0.0,0.0,0.0,0.0,0.0,0.0,0.0,0.0,0.0,0.0,0.0,0.0,0.0,0.0,0.0,0.0,0.0,0.0,0.0,0.0,0.0,0.0,0.0,0.0,0.0,0.0,0.0,0.0,0.0,0.0,0.0,0.0,0.0,0.0,0.0,0.0,0.0,0.0,0.0,0.0,0.0,0.0,0.0,0.0,0.0,0.0,0.0,0.0,0.0,0.0,0.0,0.0,0.0,0.0,0.0,0.0,0.0,0.0,0.0,0.0,0.0,0.0,0.0,0.0,0.0,0.0,0.0,0.0,0.0,0.0,0.0,0.0,0.0,0.0,9.0406,9.093,9.0331,8.8686,8.5994,8.3078,7.9788,0.0,0.0,0.0,0.0,0.0,0.0,0.0,0.0,0.0,0.0,0.0,0.0,0.0,0.0,0.0,0.0,0.0,0.0,0.0,0.0,0.0,0.0,0.0,0.0,0.0,0.0,0.0,0.0,0.0,0.0,0.0,0.0,0.0,0.0,0.0,0.0,0.0,0.0,0.0,0.0,0.0,0.0,0.0,0.0,0.0,0.0,0.0,0.0,0.0,0.0,0.0,0.0,0.0,0.0,0.0,0.0,0.0,0.0,0.0,0.0,0.0,0.0,0.0,0.0,0.0,0.0,0.0,0.0,0.0,0.0,0.0,0.0,0.0,0.0,0.0,0.0,0.0,0.0,0.0,0.0,0.0,0.0,0.0,0.0,0.0,0.0,0.0,0.0,0.0,0.0,0.0,0.0,0.0,0.0,0.0,0.0,0.0,0.0,0.0,0.0,0.0,0.0,0.0,0.0,0.0,0.0,0.0,0.0,8.8612,8.9808,8.9808,8.8612,8.592,8.2704,0.0,0.0,0.0,0.0,0.0,0.0,0.0,0.0,0.0,0.0,0.0,0.0,0.0,0.0,0.0,0.0,0.0,0.0,0.0,0.0,0.0,0.0,0.0,0.0,0.0,0.0,0.0,0.0,0.0,0.0,0.0,0.0,0.0,0.0,0.0,0.0,0.0,0.0,0.0,0.0,0.0,0.0,0.0,0.0,0.0,0.0,0.0,0.0,0.0,0.0,0.0,0.0,0.0,0.0,0.0,0.0,0.0,0.0,0.0,0.0,0.0,0.0,0.0,0.0,0.0,0.0,0.0,0.0,0.0,0.0,0.0,0.0,0.0,0.0,0.0,0.0,0.0,0.0,0.0,0.0,0.0,0.0,0.0,0.0,0.0,0.0,0.0,0.0,0.0,0.0,0.0,0.0,0.0,0.0,0.0,0.0,0.0,0.0,0.0,0.0,0.0,0.0,0.0,0.0,0.0,0.0,0.0,0.0,8.8612,8.8612,8.8612,8.8612,8.8537,8.6817,8.3676,0.0,0.0,0.0,0.0,0.0,0.0,0.0,0.0,0.0,0.0,0.0,0.0,0.0,0.0,0.0,0.0,0.0,0.0,0.0,0.0,0.0,0.0,0.0,0.0,0.0,0.0,0.0,0.0,0.0,0.0,0.0,0.0,0.0,0.0,0.0,0.0,0.0,0.0,0.0,0.0,0.0,0.0,0.0,0.0,0.0,0.0,0.0,0.0,0.0,0.0,0.0,0.0,0.0,0.0,0.0,0.0,0.0,0.0,0.0,0.0,0.0,0.0,0.0,0.0,0.0,0.0,0.0,0.0,0.0,0.0,0.0,0.0,0.0,0.0,0.0,0.0,0.0,0.0,0.0,0.0,0.0,0.0,0.0,0.0,0.0,0.0,0.0,0.0,0.0,0.0,0.0,0.0,0.0,0.0,0.0,0.0,0.0,0.0,0.0,0.0,0.0,0.0,0.0,0.0,0.0,0.0,0.0,0.0,0.0,8.8537,0.0,8.749,0.0,8.4873,8.2106,0.0,0.0,0.0,0.0,0.0,0.0,0.0,0.0,0.0,0.0,0.0,0.0,0.0,0.0,0.0,0.0,0.0,0.0,0.0,0.0,0.0,0.0,0.0,0.0,0.0,0.0,0.0,0.0,0.0,0.0,0.0,0.0,0.0,0.0,0.0,0.0,0.0,0.0,0.0,0.0,0.0,0.0,0.0,0.0,0.0,0.0,0.0,0.0,0.0,0.0,0.0,0.0,0.0,0.0,0.0,0.0,0.0,0.0,0.0,0.0,0.0,0.0,0.0,0.0,0.0,0.0,0.0,0.0,0.0,0.0,0.0,0.0,0.0,0.0,0.0,0.0,0.0,0.0,0.0,0.0,0.0,0.0,0.0,0.0,0.0,0.0,0.0,0.0,0.0,0.0,0.0,0.0,0.0,0.0,0.0,0.0,0.0,0.0,0.0,0.0,0.0,0.0,0.0,0.0,0.0,0.0,0.0,0.0,0.0,8.7781,8.7299,8.7266,8.7639,8.5247,8.2779,0.0,0.0,0.0,0.0,0.0,0.0,0.0,0.0,0.0,0.0,0.0,0.0,0.0,0.0,0.0,0.0,0.0,0.0,0.0,0.0,0.0,0.0,0.0,0.0,0.0,0.0,0.0,0.0,0.0,0.0,0.0,0.0,0.0,0.0,0.0,0.0,0.0,0.0,0.0,0.0,0.0,0.0,0.0,0.0,0.0,0.0,0.0,0.0,0.0,0.0,0.0,0.0,0.0,0.0,0.0,0.0,0.0,0.0,0.0,0.0,0.0,0.0,0.0,0.0,0.0,0.0,0.0,0.0,0.0,0.0,0.0,0.0,0.0,0.0,0.0,0.0,0.0,0.0,0.0,0.0,0.0,0.0,0.0,0.0,0.0,0.0,0.0,0.0,0.0,0.0,0.0,0.0,0.0,0.0,0.0,0.0,0.0,0.0,0.0,0.0,0.0,0.0,0.0,0.0,0.0,0.0,0.0,0.0,0.0,8.6573,8.7856,8.7897,8.6326,8.7523,8.5321,0.0,0.0,0.0,0.0,0.0,0.0,0.0,0.0,0.0,0.0,0.0,0.0,0.0,0.0,0.0,0.0,0.0,0.0,0.0,0.0,0.0,0.0,0.0,0.0,0.0,0.0,0.0,0.0,0.0,0.0,0.0,0.0,0.0,0.0,0.0,0.0,0.0,0.0,0.0,0.0,0.0,0.0,0.0,0.0,0.0,0.0,0.0,0.0,0.0,0.0,0.0,0.0,0.0,0.0,0.0,0.0,0.0,0.0,0.0,0.0,0.0,0.0,0.0,0.0,0.0,0.0,0.0,0.0,0.0,0.0,0.0,0.0,0.0,0.0,0.0,0.0,0.0,0.0,0.0,0.0,0.0,0.0,0.0,0.0,0.0,0.0,0.0,0.0,0.0,0.0,0.0,0.0,0.0,0.0,0.0,0.0,0.0,0.0,0.0,0.0,0.0,0.0,0.0,0.0,0.0,0.0,0.0,0.0,0.0,0.0,8.8509,8.7984,8.641,8.4476,8.3141,8.2405,0.0,0.0,0.0,0.0,0.0,0.0,0.0,0.0,0.0,0.0,0.0,0.0,0.0,0.0,0.0,0.0,0.0,0.0,0.0,0.0,0.0,0.0,0.0,0.0,0.0,0.0,0.0,0.0,0.0,0.0,0.0,0.0,0.0,0.0,0.0,0.0,0.0,0.0,0.0,0.0,0.0,0.0,0.0,0.0,0.0,0.0,0.0,0.0,0.0,0.0,0.0,0.0,0.0,0.0,0.0,0.0,0.0,0.0,0.0,0.0,0.0,0.0,0.0,0.0,0.0,0.0,0.0,0.0,0.0,0.0,0.0,0.0,0.0,0.0,0.0,0.0,0.0,0.0,0.0,0.0,0.0,0.0,0.0,0.0,0.0,0.0,0.0,0.0,0.0,0.0,0.0,0.0,0.0,0.0,0.0,0.0,0.0,0.0,0.0,0.0,0.0,0.0,0.0,0.0,0.0,0.0,0.0,0.0,0.0,0.0,8.8046,8.6501,8.4567,8.3308,0.0,0.0,0.0,0.0,0.0,0.0,0.0,0.0,0.0,0.0,0.0,0.0,0.0,0.0,0.0,0.0,0.0,0.0,0.0,0.0,0.0,0.0,0.0,0.0,0.0,0.0,0.0,0.0,0.0,0.0,0.0,0.0,0.0,0.0,0.0,0.0,0.0,0.0,0.0,0.0,0.0,0.0,0.0,0.0,0.0,0.0,0.0,0.0,0.0,0.0,0.0,0.0,0.0,0.0,0.0,0.0,0.0,0.0,0.0,0.0,0.0,0.0,0.0,0.0,0.0,0.0,0.0,0.0,0.0,0.0,0.0,0.0,0.0,0.0,0.0,0.0,0.0,0.0,0.0,0.0,0.0,0.0,0.0,0.0,0.0,0.0,0.0,0.0,0.0,0.0,0.0,0.0,0.0,0.0,0.0,0.0,0.0,0.0,0.0,0.0,0.0,0.0,0.0,0.0,0.0,0.0,0.0,0.0,0.0,0.0,0.0,8.8076,8.6801,8.6426,0.0,8.1924,0.0,0.0,0.0,0.0,0.0,0.0,0.0,0.0,0.0,0.0,0.0,0.0,0.0,0.0,0.0,0.0,0.0,0.0,0.0,0.0,0.0,0.0,0.0,0.0,0.0,0.0,0.0,0.0,0.0,0.0,0.0,0.0,0.0,0.0,0.0,0.0,0.0,0.0,0.0,0.0,0.0,0.0,0.0,0.0,0.0,0.0,0.0,0.0,0.0,0.0,0.0,0.0,0.0,0.0,0.0,0.0,0.0,0.0,0.0,0.0,0.0,0.0,0.0,0.0,0.0,0.0,0.0,0.0,0.0,0.0,0.0,0.0,0.0,0.0,0.0,0.0,0.0,0.0,0.0,0.0,0.0,0.0,0.0,0.0,0.0,0.0,0.0,0.0,0.0,0.0,0.0,0.0,0.0,0.0,0.0,0.0,0.0,0.0,0.0,0.0,0.0,0.0,0.0,0.0,0.0,0.0,0.0,0.0,0.0,0.0,0.0,0.0,8.5911,8.4156,8.3358,0.0,0.0,0.0,0.0,0.0,0.0,0.0,0.0,0.0,0.0,0.0,0.0,0.0,0.0,0.0,0.0,0.0,0.0,0.0,0.0,0.0,0.0,0.0,0.0,0.0,0.0,0.0,0.0,0.0,0.0,0.0,0.0,0.0,0.0,0.0,0.0,0.0,0.0,0.0,0.0,0.0,0.0,0.0,0.0,0.0,0.0,0.0,0.0,0.0,0.0,0.0,0.0,0.0,0.0,0.0,0.0,0.0,0.0,0.0,0.0,0.0,0.0,0.0,0.0,0.0,0.0,0.0,0.0,0.0,0.0,0.0,0.0,0.0,0.0,0.0,0.0,0.0,0.0,0.0,0.0,0.0,0.0,0.0,0.0,0.0,0.0,0.0,0.0,0.0,0.0,0.0,0.0,0.0,0.0,0.0,0.0,0.0,0.0,0.0,0.0,0.0,0.0,0.0,0.0,0.0,0.0,0.0,0.0,0.0,0.0,8.7449,8.8952,8.6568,8.4839,8.4088,0.0,0.0,0.0,0.0,0.0,0.0,0.0,0.0,0.0,0.0,0.0,0.0,0.0,0.0,0.0,0.0,0.0,0.0,0.0,0.0,0.0,0.0,0.0,0.0,0.0,0.0,0.0,0.0,0.0,0.0,0.0,0.0,0.0,0.0,0.0,0.0,0.0,0.0,0.0,0.0,0.0,0.0,0.0,0.0,0.0,0.0,0.0,0.0,0.0,0.0,0.0,0.0,0.0,0.0,0.0,0.0,0.0,0.0,0.0,0.0,0.0,0.0,0.0,0.0,0.0,0.0,0.0,0.0,0.0,0.0,0.0,0.0,0.0,0.0,0.0,0.0,0.0,0.0,0.0,0.0,0.0,0.0,0.0,0.0,0.0,0.0,0.0,0.0,0.0,0.0,0.0,0.0,0.0,0.0,0.0,0.0,0.0,0.0,0.0,0.0,0.0,0.0,0.0,0.0,0.0,0.0,0.0,0.0,0.0,0.0,0.0,0.0,0.0,0.0,8.4215,0.0,0.0,0.0,0.0,0.0,0.0,0.0,0.0,0.0,0.0,0.0,0.0,0.0,0.0,0.0,0.0,0.0,0.0,0.0,0.0,0.0,0.0,0.0,0.0,0.0,0.0,0.0,0.0,0.0,0.0,0.0,0.0,0.0,0.0,0.0,0.0,0.0,0.0,0.0,0.0,0.0,0.0,0.0,0.0,0.0,0.0,0.0,0.0,0.0,0.0,0.0,0.0,0.0,0.0,0.0,0.0,0.0,0.0,0.0,0.0,0.0,0.0,0.0,0.0,0.0,0.0,0.0,0.0,0.0,0.0,0.0,0.0,0.0,0.0,0.0,0.0,0.0,0.0,0.0,0.0,0.0,0.0,0.0,0.0,0.0,0.0,0.0,0.0,0.0,0.0,0.0,0.0,0.0,0.0,0.0,0.0,0.0,0.0,0.0,0.0,0.0,0.0,0.0,0.0,0.0,0.0,0.0,0.0,0.0,0.0,0.0,0.0,0.0,0.0,0.0,0.0,0.0,0.0,0.0,0.0,0.0,0.0,0.0,0.0,0.0,0.0,0.0,0.0,0.0,0.0,0.0,0.0,0.0,0.0,0.0,0.0,0.0,0.0,0.0,0.0,0.0,0.0,0.0,0.0,0.0,0.0,0.0,0.0,0.0,0.0,0.0,0.0,0.0,0.0,0.0,0.0,0.0,0.0,0.0,0.0,0.0,0.0,0.0,0.0,0.0,0.0,0.0,0.0,0.0,0.0,0.0,0.0,0.0,0.0,0.0,0.0,0.0,0.0,0.0,0.0,0.0,0.0,0.0,0.0,0.0,0.0,0.0,0.0,0.0,0.0,0.0,0.0,0.0,0.0,0.0,0.0,0.0,0.0,0.0,0.0,0.0,0.0,0.0,0.0,0.0,0.0,0.0,0.0,0.0,0.0,0.0,0.0,0.0,0.0,0.0,0.0,0.0,0.0,0.0,0.0,0.0,0.0,0.0,0.0,0.0,0.0,0.0,0.0,0.0,0.0,0.0,0.0,0.0,0.0,0.0,0.0,0.0,0.0,0.0,0.0,0.0,0.0,0.0,0.0,0.0,0.0,0.0,0.0,0.0,0.0,0.0,0.0,0.0,0.0,0.0,0.0,0.0,0.0,0.0,0.0,0.0,0.0,0.0,0.0,0.0,0.0,0.0,0.0,0.0,0.0,0.0,0.0,0.0,0.0,0.0,0.0,0.0,0.0,0.0,0.0,0.0,0.0,0.0,0.0,0.0,0.0,0.0,0.0,0.0,0.0,0.0,0.0,0.0,0.0,0.0,0.0,0.0,0.0,0.0,0.0,0.0,0.0,0.0,0.0,0.0,0.0,0.0,0.0,0.0,0.0,0.0,0.0,0.0,0.0,0.0,0.0,0.0,0.0,0.0,0.0,0.0,0.0,0.0,0.0,0.0,0.0,0.0,0.0,0.0,0.0,0.0,0.0,0.0,0.0,0.0,0.0,0.0,0.0,0.0,0.0,0.0,0.0,0.0,0.0,0.0,0.0,0.0,0.0,0.0,0.0,0.0,0.0,0.0,0.0,0.0,0.0,0.0,0.0,0.0,0.0,0.0,0.0,0.0,0.0,0.0,0.0,0.0,0.0,0.0,0.0,0.0,0.0,0.0,0.0,0.0,0.0,0.0,0.0,0.0,0.0,0.0,0.0,0.0,0.0,0.0,0.0,0.0,0.0,0.0,0.0,0.0,0.0,0.0,0.0,0.0,0.0,0.0,0.0,0.0,0.0,0.0,0.0,0.0,0.0,0.0,0.0,0.0,0.0,0.0,0.0,0.0,0.0,0.0,0.0,0.0,0.0,0.0,0.0,0.0,0.0,0.0,0.0,0.0,0.0,0.0,0.0,0.0,0.0,0.0,0.0,0.0,0.0,0.0,0.0,0.0,0.0,0.0,0.0,0.0,0.0,0.0,0.0,0.0,0.0,0.0,0.0,0.0,0.0,0.0,0.0,0.0,0.0,0.0,0.0,0.0,0.0,0.0,0.0,0.0,0.0,0.0,0.0,0.0,0.0,0.0,0.0,0.0,0.0,0.0,0.0,0.0,0.0,0.0,0.0,0.0,0.0,0.0,0.0,0.0,0.0,0.0,0.0,0.0,0.0,0.0,0.0,0.0,0.0,0.0,0.0,0.0,0.0,0.0,0.0,0.0,0.0,0.0,0.0,0.0,0.0,0.0,0.0,0.0,0.0,0.0,0.0,0.0,0.0,0.0,0.0,0.0,0.0,0.0,0.0,0.0,0.0,0.0,0.0,0.0,0.0,0.0,0.0,0.0,0.0,0.0,0.0,0.0,0.0,0.0,0.0,0.0,0.0,0.0,0.0,0.0,0.0,0.0,0.0,0.0,0.0,0.0,0.0,0.0,0.0,0.0,0.0,0.0,0.0,0.0,0.0,0.0,0.0,0.0,0.0,0.0,0.0,0.0,0.0,0.0,0.0,0.0,0.0,0.0,0.0,0.0,0.0,0.0,0.0,0.0,0.0,0.0,0.0,0.0,0.0,0.0,0.0,0.0,0.0,0.0,0.0,0.0,0.0,0.0,0.0,0.0,0.0,0.0,0.0,0.0,0.0,0.0,0.0,0.0,0.0,0.0,0.0,0.0,0.0,0.0,0.0,0.0,0.0,0.0,0.0,0.0,0.0,0.0,0.0,0.0,0.0,0.0,0.0,0.0,0.0,0.0,0.0,0.0,0.0,0.0,0.0,0.0,0.0,0.0,0.0,0.0,0.0,0.0,0.0,0.0,0.0,0.0,0.0,0.0,0.0,0.0,0.0,0.0,0.0,0.0,0.0,0.0,0.0,0.0,0.0,0.0,0.0,0.0,0.0,0.0,0.0,0.0,0.0,0.0,0.0,0.0,0.0,0.0,0.0,0.0,0.0,0.0,0.0,0.0,0.0,0.0,0.0,0.0,0.0,0.0,0.0,0.0,0.0,0.0,0.0,0.0,0.0,0.0,0.0,0.0,0.0,0.0,0.0,0.0,0.0,0.0,0.0,0.0,0.0,0.0,0.0,0.0,0.0,0.0,0.0,0.0,0.0,0.0,0.0,0.0,0.0,0.0,0.0,0.0,0.0,0.0,0.0,0.0,0.0,0.0,0.0,0.0,0.0,0.0,0.0,0.0,0.0,0.0,0.0,0.0,0.0,0.0,0.0,0.0,0.0,0.0,0.0,0.0,0.0,0.0,0.0,0.0,0.0,0.0,0.0,0.0,0.0,0.0,0.0,0.0,0.0,0.0,0.0,0.0,0.0,0.0,0.0,0.0,0.0,0.0,0.0,0.0,0.0,0.0,0.0,0.0,0.0,0.0,0.0,0.0,0.0,0.0,0.0,0.0,0.0,0.0,0.0,0.0,0.0,0.0,0.0,0.0,0.0,0.0,0.0,0.0,0.0,0.0,0.0,0.0,0.0,0.0,0.0,0.0,0.0,0.0,0.0,0.0,0.0,0.0,0.0,0.0,0.0,0.0,0.0,0.0,0.0,0.0,0.0,0.0,0.0,0.0,0.0,0.0,0.0,0.0,0.0,0.0,0.0,0.0,0.0,0.0,0.0,0.0,0.0,0.0,0.0,0.0,0.0,0.0,0.0,0.0,0.0,0.0,0.0,0.0,0.0,0.0,0.0,0.0,0.0,0.0,0.0,0.0,0.0,0.0,0.0,0.0,0.0,0.0,0.0,0.0,0.0,0.0,0.0,0.0,0.0,0.0,0.0,0.0,0.0,0.0,0.0,0.0,0.0,0.0,0.0,0.0,0.0,0.0,0.0,0.0,0.0,0.0,0.0,0.0,0.0,0.0,0.0,0.0,0.0,0.0,0.0,0.0,0.0,0.0,0.0,0.0,0.0,0.0,0.0,0.0,0.0,0.0,0.0,0.0,0.0,0.0,0.0,0.0,0.0,0.0,0.0,0.0,0.0,0.0,0.0,0.0,0.0,0.0,0.0,0.0,0.0,0.0,0.0,0.0,0.0,0.0,0.0,0.0,0.0,0.0,0.0,0.0,0.0,0.0,0.0,0.0,0.0,0.0,0.0,0.0,0.0,0.0,0.0,0.0,0.0,0.0,0.0,0.0,0.0,0.0,0.0,0.0,0.0,0.0,0.0,0.0,0.0,0.0,0.0,0.0,0.0,0.0,0.0,0.0,0.0,0.0,0.0,0.0,0.0,0.0,0.0,0.0,0.0,0.0,0.0,0.0,0.0,0.0,0.0,0.0,0.0,0.0,0.0,0.0,0.0,0.0,0.0,0.0,0.0,0.0,0.0,0.0,0.0,0.0,0.0,0.0,0.0,0.0,0.0,0.0,0.0,0.0,0.0,0.0,0.0,0.0,0.0]}],[{"header":{"parameterUnit":"kt","parameterCategory":2,"dx":1,"dy":1,"la1":29.587661999999998,"la2":31.0,"lo1":-88.76705300000003,"lo2":-86.6583820000003,"nx":115,"ny":88,"refTime":"2022-10-08T06:00:00:Z","depth":0,"parameterNumber":2,"parameterNumberName":"V-component_of_WINDS"},"data":[7.3901,7.3355,7.3003,7.2246,7.1762,7.1735,7.1288,7.0009,7.0047,7.0047,7.0047,7.0047,7.0047,7.0047,7.0047,7.0047,7.0009,6.9744,6.9213,6.8719,6.7882,6.7079,6.6542,6.6004,6.5734,6.5734,6.5734,6.5734,6.5734,6.5734,6.5734,6.5734,6.5734,6.5734,6.5734,6.5663,6.5145,6.4719,6.4293,6.4237,6.3667,6.3595,6.3595,6.3274,6.2847,6.249,6.2098,6.1563,6.1243,6.1029,6.0993,6.0993,6.0993,6.0993,6.0993,6.0993,6.0993,6.0993,6.0993,6.0993,6.0993,6.0993,6.0993,6.0993,6.0993,6.0993,6.0993,6.0993,6.0743,6.0743,5.9738,5.8982,5.7428,5.561,5.436,5.2065,5.0241,4.9485,4.8697,4.8434,4.8434,4.7907,4.7643,4.7379,4.7115,4.624,4.5392,4.5419,4.5498,4.5897,4.6646,4.6158,4.5939,4.5354,4.4426,4.4814,4.4349,4.3697,4.2883,4.2421,4.1589,4.0662,4.0393,4.0686,4.044,4.044,4.044,4.071,4.044,4.044,4.017,4.017,3.9901,3.936,3.8549,7.294,7.2254,7.1934,7.1633,7.1058,7.0902,7.0724,7.0009,7.0047,7.0047,7.0047,7.0047,7.0047,7.0047,7.0047,7.0047,6.9744,6.9213,6.8682,6.8149,6.7614,6.681,6.6273,6.5734,6.5734,6.5734,6.5734,6.5734,6.5734,6.5734,6.5734,6.5734,6.5734,6.5734,6.5734,6.5698,6.5663,6.5038,6.4719,6.4593,6.4486,6.4451,6.4415,6.4166,6.3667,6.2918,6.2419,6.1991,6.1635,6.1349,6.1029,6.1029,6.0993,6.0993,6.0993,6.0993,6.0993,6.0993,6.0993,6.0993,6.0993,6.0993,6.0993,6.0993,6.0993,6.0993,6.0993,6.0743,6.0492,5.999,5.8729,5.7461,5.5578,5.4008,5.3039,5.1805,5.0502,4.9456,4.8668,4.7907,4.7643,4.7351,4.7087,4.685,4.6267,4.5153,4.4596,4.4623,4.4727,4.5335,4.5519,4.5302,4.5084,4.4338,4.3737,4.357,4.3108,4.2565,4.2322,4.1248,4.071,4.0416,4.0147,4.017,4.017,4.017,4.017,4.017,4.017,4.017,4.017,3.9924,3.9654,3.8842,3.8007,7.2822,7.2005,7.0811,7.0392,7.0745,7.036,7.0078,6.9971,7.0047,6.9744,6.9479,6.8948,6.8682,6.8682,6.8682,6.8682,6.8682,6.8415,6.7882,6.7347,6.681,6.6273,6.6004,6.5734,6.5734,6.5734,6.5734,6.5734,6.5734,6.5734,6.5734,6.5734,6.5734,6.5734,6.5734,6.5734,6.5734,6.5734,6.5449,6.5003,6.4734,6.4699,6.4699,6.4986,6.4558,6.4023,6.3381,6.2561,6.2169,6.1777,6.1171,6.1064,6.0993,6.0993,6.0993,6.0993,6.0993,6.0993,6.0993,6.0993,6.0993,6.0993,6.0993,6.0993,6.0993,6.0993,6.0993,6.0993,6.0492,5.9773,5.8476,5.6952,5.5098,5.3556,5.2583,5.1545,4.995,4.8902,4.817,4.7379,4.7087,4.6823,4.6294,4.6029,4.5764,4.4649,4.4649,4.4409,4.4435,4.491,4.4616,4.4375,4.4107,4.3444,4.2833,4.2565,4.2029,4.1785,4.1517,4.0979,4.044,4.044,4.017,4.017,4.017,4.017,4.017,4.017,4.017,3.9901,3.9924,3.9654,3.9136,3.8322,3.6648,7.3033,7.2169,7.0496,7.0012,7.0393,6.9703,6.9428,6.9705,6.963,6.9213,6.8682,6.8415,6.8149,6.8149,6.8149,6.8149,6.7882,6.7882,6.7079,6.681,6.6542,6.6273,6.5734,6.5734,6.5734,6.5734,6.5734,6.5734,6.5734,6.5734,6.5734,6.5734,6.5734,6.5734,6.5734,6.5464,6.55,6.5535,6.5123,6.4548,6.4277,6.4618,6.4924,6.4982,6.5271,6.4772,6.4059,6.3203,6.2633,6.2098,6.1421,6.1064,6.0993,6.0993,6.0993,6.0993,6.0993,6.0993,6.0993,6.0993,6.0993,6.0993,6.0993,6.0993,6.0993,6.0993,6.0993,6.0993,6.0492,5.9738,5.8476,5.6952,5.5419,5.3876,5.2355,5.0733,4.9107,4.8377,4.7643,4.7115,4.6586,4.6029,4.5498,4.5233,4.4967,4.4701,4.4435,4.4461,4.4461,4.4513,4.4272,4.3686,4.3368,4.2833,4.2297,4.1785,4.1248,4.0979,4.0979,4.071,4.044,4.017,4.017,4.017,4.017,4.017,4.017,4.017,3.9901,3.9631,3.936,3.8819,3.8278,3.6648,3.4699,7.3447,7.3076,7.1919,7.0791,6.9611,6.8204,6.8148,6.8908,6.8876,6.8682,6.8149,6.8415,6.8149,6.7614,6.7614,6.7614,6.7347,6.7347,6.7079,6.681,6.6542,6.6273,6.5734,6.5734,6.5734,6.5734,6.5734,6.5734,6.5734,6.5734,6.5734,6.5734,6.5734,6.5464,6.5464,6.5194,6.4688,6.4758,6.4145,6.3566,6.3566,6.411,6.4688,6.4924,6.5017,6.5038,6.4293,6.3738,6.2954,6.2205,6.1563,6.1029,6.0993,6.0993,6.0993,6.0993,6.0993,6.0993,6.0993,6.0743,6.0743,6.0993,6.0993,6.0993,6.0743,6.0743,6.0743,6.0743,6.0241,5.9521,5.7715,5.6187,5.4713,5.3194,5.1575,4.9921,4.8902,4.8725,4.7699,4.6321,4.5764,4.5498,4.4967,4.4967,4.4701,4.4701,4.4435,4.4435,4.4461,4.4513,4.3979,4.3393,4.2565,4.1761,4.1517,4.0979,4.071,4.044,4.044,4.017,4.017,4.017,4.017,4.017,4.017,4.017,4.017,4.017,4.017,3.9631,3.8797,3.7984,3.6312,3.4133,3.2746,7.3736,7.2869,7.2357,7.1269,6.9397,6.8291,6.7637,6.7975,6.7262,6.7211,6.731,6.7079,6.681,6.6542,6.6542,6.6542,6.6506,6.6542,6.6542,6.6273,6.6004,6.6004,6.5734,6.5734,6.5734,6.5734,6.5734,6.5734,6.5734,6.5734,6.5734,6.5734,6.5194,6.5194,6.4924,6.4417,6.3873,6.3056,6.2509,6.1928,6.2202,6.2475,6.3294,6.3839,6.411,6.4242,6.3858,6.2601,6.2304,6.2072,6.1058,6.0527,6.0993,6.0993,6.0993,6.0993,6.0743,6.0492,6.0492,6.0276,6.0241,6.0241,6.0492,6.0492,6.0492,6.0276,6.0241,6.0241,5.9773,5.8763,5.6952,5.5419,5.3971,5.2737,5.0793,4.8874,4.8697,4.8782,4.7434,4.579,4.5233,4.4967,4.4701,4.4435,4.4435,4.4435,4.4435,4.4435,4.4194,4.3979,4.3151,4.2565,4.1761,4.0979,4.071,4.044,4.044,4.044,4.017,4.017,4.017,4.017,4.017,4.017,4.017,4.017,4.017,4.017,3.9901,3.9067,3.8526,3.7442,3.581,3.3313,3.1942,7.3524,7.2236,7.2081,7.0983,6.9532,6.8496,6.7825,6.7299,6.6507,6.5964,6.6542,6.6273,6.6273,6.5734,6.5734,6.5734,6.5734,6.5734,6.5734,6.5734,6.5734,6.5734,6.5734,6.5734,6.5734,6.5734,6.5734,6.5464,6.5464,6.5734,6.5734,6.5194,6.4653,6.4382,6.3839,6.3294,6.1928,6.1105,6.0555,6.0555,6.0522,6.1105,6.162,6.2475,6.2987,6.3054,6.2912,6.1877,6.1415,6.1294,6.0401,6.006,6.0743,6.0743,6.0993,6.0993,6.0743,6.0276,6.0276,6.0025,5.9773,6.0025,5.9521,5.9738,5.9773,5.9773,5.9486,5.9234,5.8763,5.7461,5.5931,5.436,5.2843,5.1575,4.9979,4.864,4.8462,4.7963,4.6559,4.5472,4.4967,4.4701,4.4701,4.4435,4.4435,4.4435,4.4435,4.4168,4.3927,4.2858,4.2322,4.1761,4.0979,4.071,4.044,4.017,4.017,4.017,4.017,4.017,4.017,4.017,4.017,4.017,4.017,4.017,4.017,3.9901,3.936,3.8797,3.7713,3.6648,3.5559,3.3371,3.1724,7.2276,7.177,7.0527,6.9973,6.9572,6.8914,6.8001,6.7006,6.6738,6.647,6.5734,6.6542,6.6273,6.5734,6.5734,6.5734,6.5734,6.5734,6.5734,6.5734,6.5734,6.5734,6.5734,6.5734,6.5734,6.5734,6.5734,6.5464,6.4959,6.5194,6.5194,6.4924,6.411,6.3294,6.2475,6.138,6.0003,5.9174,5.8865,5.8865,5.8865,5.9695,5.9905,6.0325,6.0807,6.1119,6.1021,6.0578,6.039,6.0257,5.9499,5.9695,5.9773,6.0025,6.0492,6.0743,6.0993,6.0743,6.0743,6.0492,6.0241,5.9521,5.8729,5.8798,5.912,5.8901,5.8613,5.8325,5.7918,5.6574,5.4906,5.3329,5.1744,5.0443,4.9136,4.8434,4.8227,4.7115,4.571,4.518,4.4701,4.4435,4.4435,4.4435,4.4435,4.4461,4.4487,4.3927,4.254,4.1761,4.1517,4.0979,4.071,4.044,4.017,4.017,4.017,4.017,4.017,4.017,4.017,4.017,4.017,4.017,4.017,4.017,4.017,3.9631,3.909,3.7713,3.6606,3.5538,3.3019,3.1412,3.0329,7.0818,6.9471,6.9804,6.9495,6.9015,6.7488,6.658,6.6158,6.6057,6.6004,6.5734,6.6004,6.6004,6.5734,6.5734,6.5734,6.5734,6.5734,6.5734,6.5734,6.5734,6.5734,6.5734,6.5734,6.5734,6.5734,6.5734,6.5464,6.5194,6.5194,6.4959,6.4382,6.3532,6.2168,6.0522,5.9418,5.831,5.7477,5.7198,5.7198,5.7136,5.7383,5.7504,5.7741,5.7825,5.8115,5.7946,5.7563,5.7501,5.821,5.8511,5.8291,5.9269,5.9773,6.0276,6.0492,6.0743,6.0492,6.0025,5.9486,5.9234,5.8695,5.8223,5.8223,5.8291,5.8274,5.7985,5.7697,5.7485,5.6033,5.4229,5.2294,5.0994,4.9659,4.864,4.7907,4.7407,4.6002,4.4862,4.4675,4.4435,4.4435,4.4435,4.4435,4.4461,4.4513,4.4272,4.2858,4.1444,4.0955,4.044,4.044,4.044,4.017,4.017,4.017,4.017,4.017,4.017,4.017,4.017,4.017,4.017,4.017,4.017,3.9901,3.9924,3.936,3.8549,3.717,3.5517,3.3019,3.0515,2.914,2.8346,6.9199,6.7575,6.7898,6.7588,6.7149,6.5594,6.4954,6.4835,6.5216,6.5485,6.5698,6.5734,6.5734,6.5734,6.5734,6.5734,6.5734,6.5734,6.5734,6.5734,6.5734,6.5734,6.5734,6.5734,6.5734,6.5734,6.5464,6.5194,6.4924,6.4653,6.411,6.3566,6.2441,6.0797,5.8865,5.7477,5.6919,5.5771,5.5211,5.5371,5.519,5.513,5.5135,5.5076,5.5288,5.5491,5.5075,5.5558,5.5869,5.6261,5.7062,5.7241,5.8257,5.9016,5.9269,5.9773,6.0276,6.0276,5.9521,5.851,5.7935,5.7614,5.726,5.7311,5.7446,5.7441,5.6764,5.6023,5.5034,5.416,5.3194,5.1515,5.0211,4.9136,4.8434,4.7671,4.6559,4.5153,4.4596,4.4409,4.4435,4.4435,4.4435,4.4435,4.4461,4.4513,4.2858,4.1444,4.0811,4.0322,4.003,4.0053,4.0053,4.01,4.017,4.017,4.017,4.0124,4.0124,4.0077,4.0124,4.017,4.0147,4.01,3.9854,3.9901,3.936,3.909,3.8007,3.6083,3.3313,3.0826,2.9157,2.7761,2.6672,6.791,6.6174,6.4742,6.4274,6.4348,6.3506,6.3346,6.3453,6.3867,6.4577,6.5717,6.5592,6.5592,6.5627,6.5698,6.5734,6.5734,6.5734,6.5734,6.5734,6.5734,6.5734,6.5734,6.5734,6.5734,6.5464,6.5194,6.4382,6.3873,6.3566,6.3022,6.2168,6.1346,6.0214,5.8833,5.6888,5.5491,5.465,5.431,5.3926,5.3572,5.3424,5.307,5.2899,5.2962,5.3202,5.2955,5.3444,5.3984,5.4419,5.5002,5.5708,5.6698,5.7461,5.8223,5.9051,5.9521,6.0025,6.0025,5.8729,5.7648,5.7006,5.6371,5.6237,5.6087,5.5147,5.4039,5.4195,5.318,5.1973,5.1195,5.0414,4.963,4.8874,4.8462,4.7699,4.6002,4.4596,4.4357,4.4409,4.4435,4.4435,4.4435,4.4409,4.4435,4.3266,4.1663,4.0811,4.0424,4.0109,4.0039,4.0015,3.9701,3.9701,3.9678,3.9912,4.0053,4.0077,3.9983,3.9818,3.9795,3.9481,3.9574,3.9737,3.9422,3.8816,3.8661,3.8526,3.6627,3.4446,3.1687,2.9743,2.807,2.6687,2.5301,6.6582,6.5415,6.4483,6.3869,6.3251,6.2715,6.2561,6.2411,6.2093,6.3214,6.5506,6.5073,6.4914,6.5092,6.5413,6.5663,6.5663,6.5663,6.5698,6.5734,6.5734,6.5734,6.5734,6.5734,6.5464,6.4924,6.4688,6.4417,6.3566,6.3022,6.2441,6.1346,6.0246,5.8556,5.6888,5.5211,5.3601,5.2442,5.202,5.1484,5.0944,5.083,5.0546,5.0275,5.0699,5.0647,5.1063,5.1441,5.1786,5.2416,5.307,5.3845,5.4874,5.5899,5.6952,5.7749,5.851,5.9269,5.9269,5.8442,5.7479,5.622,5.5554,5.5255,5.5355,5.5405,5.318,5.277,5.1953,5.1152,4.9622,4.9103,4.833,4.7896,4.7515,4.684,4.5179,4.4625,4.444,4.4201,4.4331,4.4305,4.4253,4.4175,4.3704,4.2531,4.0668,3.9542,3.959,3.9949,3.9661,3.9373,3.9326,3.9232,3.9138,3.8992,3.8844,3.9155,3.9155,3.9062,3.9015,3.8519,3.8257,3.8556,3.8185,3.7741,3.7092,3.652,3.4972,3.3097,3.1155,2.9225,2.7826,2.5871,2.4497,6.5564,6.4997,6.3914,6.327,6.2618,6.2175,6.1995,6.1559,6.1252,6.2295,6.431,6.4071,6.4094,6.4201,6.4665,6.495,6.5271,6.5271,6.5485,6.5627,6.5734,6.5734,6.5734,6.5734,6.5464,6.5194,6.4382,6.3839,6.3294,6.2475,6.1894,6.0489,5.8588,5.6609,5.5061,5.3543,5.1712,5.0481,4.9981,4.9455,4.8984,4.879,4.8541,4.7988,4.8466,4.8508,4.9045,4.9251,5.0009,5.0733,5.1274,5.2184,5.3148,5.417,5.4933,5.5727,5.7361,5.7969,5.8003,5.6857,5.6204,5.5388,5.4364,5.3414,5.3202,5.2756,5.1951,5.1581,5.0269,4.9816,4.8643,4.7895,4.7189,4.6788,4.6124,4.5195,4.4413,4.4387,4.4413,4.376,4.3656,4.3915,4.3889,4.3863,4.2824,4.1614,3.9658,3.8292,3.9023,3.9402,3.8927,3.8665,3.8404,3.8334,3.7811,3.772,3.7912,3.7935,3.772,3.7766,3.7572,3.7346,3.7085,3.7153,3.7093,3.6589,3.5824,3.4767,3.3293,3.143,2.9795,2.8689,2.7012,2.5346,2.3954,6.4359,6.4731,6.3208,6.2145,6.1808,6.1877,6.1457,6.0993,6.1093,6.1482,6.2532,6.2811,6.3132,6.3346,6.356,6.3987,6.4486,6.4486,6.4807,6.5235,6.5592,6.5449,6.5413,6.5485,6.5663,6.5017,6.4347,6.3839,6.3022,6.1794,6.0017,5.8673,5.6425,5.525,5.3706,5.1905,5.0313,4.9179,4.8327,4.8001,4.7565,4.7348,4.7157,4.6722,4.6613,4.685,4.7615,4.8142,4.896,4.9456,5.0148,5.0655,5.1517,5.2481,5.3278,5.4074,5.5604,5.6047,5.5816,5.4873,5.4184,5.3823,5.3218,5.21,5.1939,4.951,4.8287,4.8592,4.8677,4.82,4.7567,4.6986,4.6285,4.5608,4.4159,4.3805,4.3705,4.3937,4.3627,4.3081,4.2876,4.311,4.3136,4.2981,4.2079,4.0765,3.9093,3.8269,3.8905,3.8692,3.8409,3.7866,3.7583,3.7323,3.6802,3.6802,3.7085,3.7346,3.678,3.678,3.6802,3.6541,3.6281,3.6107,3.5756,3.5378,3.479,3.3733,3.2339,3.0,2.8136,2.7289,2.5886,2.4804,2.369,6.2994,6.3061,6.1519,6.0847,6.0961,6.1077,6.0666,6.0209,6.0672,6.0991,6.1349,6.1563,6.1991,6.2455,6.3025,6.3346,6.3631,6.3667,6.3809,6.413,6.4451,6.4522,6.4665,6.5235,6.5109,6.4008,6.3867,6.3157,6.2204,6.0236,5.7843,5.5134,5.4256,5.2795,5.1305,5.0062,4.9372,4.8246,4.7347,4.6593,4.6138,4.6031,4.5897,4.6083,4.6294,4.6823,4.685,4.7115,4.7351,4.8142,4.8412,4.9051,5.0118,5.0835,5.1578,5.2543,5.2995,5.3374,5.2897,5.298,5.2841,5.2666,5.2003,5.1953,5.1391,5.1197,5.0242,4.7688,4.747,4.6737,4.6002,4.5441,4.4888,4.3769,4.2611,4.282,4.2747,4.2876,4.2825,4.2465,4.2465,4.2465,4.2208,4.1952,4.1206,4.0174,3.9375,3.8575,3.8362,3.7912,3.7629,3.7085,3.6802,3.6541,3.6281,3.6541,3.6541,3.6541,3.5976,3.5976,3.602,3.602,3.5758,3.5144,3.4562,3.3826,3.2208,3.219,3.1896,2.9226,2.7081,2.6057,2.498,2.4526,2.3703,6.1656,6.1922,6.1001,6.0562,6.0593,6.059,6.0325,5.9496,5.9855,6.0175,6.053,6.0815,6.1243,6.167,6.2098,6.2526,6.2811,6.2882,6.3025,6.3488,6.3809,6.3987,6.4059,6.4736,6.5074,6.436,6.3832,6.2748,6.0651,5.8302,5.6157,5.4164,5.2751,5.1334,5.014,4.8957,4.8273,4.7538,4.6323,4.5576,4.5046,4.4967,4.4967,4.4967,4.5498,4.5764,4.6029,4.6294,4.6559,4.706,4.6785,4.7226,4.827,4.9051,4.9654,5.0505,5.0352,5.0087,5.0186,5.0584,5.1213,5.1376,5.1487,5.1629,5.0624,4.9513,4.7598,4.6636,4.6357,4.5442,4.4465,4.4004,4.2892,4.1968,4.1239,4.1467,4.1926,4.1926,4.2208,4.2208,4.2208,4.1952,4.1463,4.1231,4.0482,3.9754,3.9519,3.9046,3.8572,3.7766,3.6914,3.6347,3.6085,3.6041,3.5758,3.5758,3.5758,3.5758,3.5193,3.5214,3.5519,3.5519,3.4995,3.4576,3.3908,3.2092,2.971,2.9263,2.9298,2.7799,2.6024,2.4555,2.3394,2.3,2.2929,6.0517,6.1277,6.1277,6.1031,6.0794,6.0777,6.0022,5.8854,5.8936,5.9184,5.9745,6.0458,6.1064,6.0957,6.1029,6.1492,6.1884,6.2098,6.2312,6.274,6.3096,6.3417,6.3916,6.4237,6.4328,6.4133,6.3484,6.1626,5.8884,5.6725,5.4726,5.3202,5.1469,5.0532,4.868,4.7808,4.6836,4.619,4.5256,4.4461,4.4435,4.4435,4.4435,4.4435,4.4701,4.4967,4.5233,4.5498,4.5764,4.624,4.6069,4.6057,4.6438,4.7242,4.7388,4.7015,4.6721,4.6565,4.8167,4.8596,4.9191,5.0179,5.0561,5.0259,4.9513,4.7838,4.6365,4.5185,4.4331,4.3649,4.3239,4.2365,4.0985,4.0252,4.063,4.1748,4.1181,4.2003,4.1438,4.1438,4.1456,4.1147,4.0962,4.0394,3.9826,3.9899,3.971,3.9544,3.9068,3.7378,3.626,3.5734,3.5471,3.5038,3.4712,3.4712,3.4712,3.4712,3.4733,3.4775,3.5038,3.5038,3.4492,3.336,3.3137,3.1879,2.9283,2.7684,2.6535,2.5828,2.516,2.3709,2.1931,2.1822,2.2072,6.0517,6.1277,6.1277,6.1031,6.0868,6.1292,6.0458,5.8925,5.883,5.8866,5.9104,6.0343,6.0738,6.0527,6.0672,6.1064,6.1171,6.1278,6.1385,6.1706,6.2134,6.2134,6.2312,6.274,6.3263,6.2811,6.1831,5.9908,5.6812,5.4607,5.2449,5.0946,4.9389,4.8005,4.7288,4.6673,4.5738,4.5125,4.4461,4.4435,4.4435,4.4435,4.4435,4.4435,4.4435,4.4435,4.4701,4.4701,4.5233,4.5392,4.555,4.5572,4.5742,4.592,4.5427,4.4273,4.4722,4.5322,4.626,4.6877,4.7598,4.9036,4.9513,4.9751,4.9306,4.8078,4.6877,4.5185,4.392,4.2666,4.1822,4.0498,3.9405,3.91,4.1365,4.3329,4.2234,4.1256,4.0948,4.058,4.0638,4.0858,4.0838,4.0309,3.9755,3.9802,3.9108,3.8936,3.8003,3.6567,3.5799,3.5293,3.4701,3.425,3.3663,3.3663,3.3663,3.3925,3.3946,3.3967,3.3987,3.4271,3.2794,3.1385,3.1385,3.0204,2.8841,2.7035,2.5547,2.4441,2.4042,2.2988,2.1811,2.1369,2.1769,6.0517,6.1239,6.1277,6.1031,6.0757,6.0667,5.9694,5.8248,5.83,5.8441,5.9032,5.9811,6.0312,6.0351,6.053,6.0672,6.0922,6.0993,6.0993,6.1029,6.1421,6.1492,6.192,6.2383,6.2154,6.1708,5.9999,5.7851,5.4932,5.3137,5.1674,4.9805,4.8434,4.7351,4.6559,4.579,4.5259,4.4727,4.4461,4.4435,4.4435,4.4435,4.4435,4.4435,4.4435,4.4435,4.4435,4.4435,4.457,4.4599,4.4546,4.4493,4.4302,4.3876,4.3371,4.2929,4.3182,4.3757,4.4513,4.5156,4.6124,4.7117,4.7358,4.7838,4.8318,4.7358,4.564,4.4269,4.2885,4.1318,4.054,3.9303,3.837,3.8537,4.0475,4.1644,4.1539,4.0765,4.0223,3.9706,3.9734,4.0093,4.0305,4.0204,3.9831,3.9268,3.8301,3.7629,3.6403,3.5835,3.545,3.4923,3.4049,3.34,3.3137,3.2874,3.3137,3.3137,3.3137,3.2874,3.2894,3.3198,3.2026,2.9607,2.8089,2.7156,2.6003,2.5575,2.4186,2.2831,2.2596,2.2084,2.1321,2.1122,2.1466,6.0517,6.1277,6.1277,6.1031,6.0646,6.0078,5.9185,5.782,5.8186,5.8328,5.8605,5.9282,5.9924,6.0316,6.0066,6.0423,6.0886,6.0993,6.0993,6.1029,6.1064,6.1314,6.167,6.1991,6.1765,6.117,5.9553,5.6607,5.4197,5.2324,5.1113,4.9513,4.7907,4.7087,4.6321,4.5897,4.5151,4.4487,4.4616,4.4565,4.4487,4.4435,4.4435,4.4435,4.4435,4.4435,4.4435,4.4357,4.4097,4.363,4.35,4.3084,4.2742,4.2245,4.2102,4.1708,4.1849,4.234,4.2994,4.3455,4.4185,4.5156,4.564,4.6153,4.6153,4.5156,4.3942,4.2831,4.1344,3.9754,3.9108,3.8322,3.7687,3.771,3.8896,3.9795,3.9868,3.9746,3.9296,3.8902,3.9023,3.9115,3.9279,3.8913,3.8428,3.7851,3.6942,3.6058,3.5197,3.4986,3.4712,3.4125,3.3299,3.2735,3.1929,3.187,3.155,3.1212,3.0614,3.0354,3.069,3.1404,3.0241,2.7189,2.5117,2.457,2.4024,2.3494,2.2491,2.2071,2.147,2.0872,2.0731,2.0861,2.1202,6.0517,6.1277,6.1277,6.1031,6.0831,6.1108,6.0204,5.8809,5.8988,5.8702,5.7963,5.9121,5.9525,5.9389,6.0244,6.0779,6.0957,6.0993,6.0993,6.0993,6.0993,6.1136,6.1243,6.1062,6.0663,5.958,5.8325,5.6187,5.3618,5.2095,5.0532,4.817,4.7087,4.6559,4.5897,4.5387,4.4928,4.4565,4.485,4.4928,4.4513,4.4168,4.4168,4.4168,4.4168,4.4168,4.4383,4.4335,4.3996,4.3578,4.3421,4.2637,4.1604,4.1162,4.1085,4.1085,4.0787,4.1278,4.226,4.2505,4.2967,4.4914,4.4914,4.4914,4.4428,4.3698,4.2478,4.1577,4.0617,3.9456,3.8316,3.7629,3.7267,3.7177,3.7293,3.7896,3.834,3.8102,3.7983,3.7894,3.8223,3.8269,3.8195,3.7926,3.7048,3.6195,3.53,3.445,3.4125,3.3959,3.3493,3.2852,3.1402,3.0552,2.9759,2.9465,2.8876,2.829,2.7158,2.7158,2.7193,2.7622,2.7172,2.4236,2.2877,2.2392,2.1877,2.1863,2.1606,2.1091,2.0833,2.0833,2.0846,2.0872,2.0912,6.0289,6.0631,6.0587,6.0264,5.9967,5.9896,5.9637,5.8952,5.8988,5.8988,5.8818,5.9418,5.9847,5.9959,6.0244,6.0672,6.0886,6.0993,6.0993,6.0993,6.0993,6.0993,6.0993,6.0492,6.0025,5.9051,5.7715,5.5419,5.3101,5.1575,5.0009,4.7643,4.7115,4.6294,4.5578,4.5276,4.471,4.4133,4.4466,4.4492,4.3737,4.3368,4.2833,4.3368,4.2565,4.259,4.3317,4.315,4.2978,4.3084,4.2872,4.2167,4.1188,4.1033,4.1033,4.1033,4.0294,4.054,4.1033,4.1278,4.1524,4.2749,4.2749,4.2967,4.3211,4.1988,4.1278,4.0787,3.98,3.8564,3.7819,3.7322,3.7144,3.7127,3.715,3.7244,3.766,3.7402,3.7214,3.7378,3.766,3.771,3.7452,3.7278,3.6519,3.5628,3.448,3.3772,3.3431,3.3049,3.2804,3.1385,2.9898,2.8534,2.7752,2.6988,2.6716,2.5934,2.5136,2.4896,2.4912,2.4687,2.4478,2.3163,2.1863,2.1091,2.1091,2.0833,2.0833,2.0833,2.0833,2.0833,2.0846,2.0859,2.0846,6.0062,6.01,6.0018,5.9548,5.912,5.8639,5.8603,5.8426,5.8426,5.8783,5.9424,5.9531,5.9959,6.0637,6.0351,6.0387,6.0957,6.0993,6.0993,6.0993,6.0993,6.0993,6.0993,6.0492,5.9773,5.8763,5.7207,5.5163,5.3132,5.1575,4.9747,4.7615,4.685,4.6294,4.5312,4.498,4.4492,4.357,4.3925,4.3629,4.2665,4.1761,4.1517,4.1761,4.0979,4.0979,4.1663,4.1803,4.2042,4.2259,4.1974,4.1708,4.1162,4.1033,4.1033,4.0787,4.0294,4.0047,4.0047,4.0047,4.0047,4.1033,4.1278,4.1059,4.2015,4.0294,3.98,3.9553,3.8787,3.7819,3.7322,3.7073,3.7097,3.712,3.712,3.712,3.7097,3.7097,3.7073,3.7191,3.7449,3.7177,3.6693,3.6221,3.5538,3.4829,3.3885,3.3142,3.3019,3.264,3.1756,3.0426,2.8516,2.6988,2.6222,2.5455,2.4928,2.4144,2.3888,2.3632,2.3647,2.3677,2.2649,2.1619,2.0833,2.0833,2.0833,2.0833,2.0833,2.0833,2.0833,2.0833,2.0833,2.0833,2.0833,6.0062,6.0062,5.9417,5.8732,5.8421,5.8385,5.8043,5.7642,5.7678,5.8141,5.8747,5.8854,5.9318,5.9995,6.0423,6.085,6.0922,6.0957,6.0957,6.0993,6.0993,6.0993,6.0993,6.0241,5.9521,5.8798,5.7495,5.5163,5.3132,5.2095,4.9979,4.7615,4.685,4.6029,4.4832,4.4466,4.4145,4.3302,4.3384,4.2545,4.1614,4.0955,4.044,4.017,3.9901,3.9901,4.0567,4.1248,4.1495,4.172,4.1188,4.113,4.1111,4.1033,4.1033,4.0787,4.0073,3.98,4.0294,3.9306,3.9059,4.0294,4.0098,3.9876,3.9826,3.9059,3.8564,3.8316,3.7322,3.7322,3.7073,3.7073,3.7073,3.7073,3.7073,3.7073,3.7073,3.7073,3.7073,3.7097,3.6621,3.5917,3.5416,3.4685,3.4015,3.3826,3.2681,3.2304,3.199,3.1442,3.0368,2.9024,2.7243,2.5455,2.4687,2.4175,2.3405,2.3134,2.2877,2.262,2.2892,2.2378,2.1348,2.0833,2.0833,2.0833,2.0833,2.0833,2.0833,2.0833,2.0833,2.0833,2.0833,2.0833,2.0833,5.9797,5.9532,5.8849,5.8163,5.7741,5.7376,5.7342,5.7428,5.75,5.7927,5.8569,5.8712,5.889,5.9246,5.9995,6.0316,6.0387,6.0779,6.0957,6.0993,6.0957,6.0957,6.0743,6.0025,5.9269,5.8798,5.6442,5.4392,5.2873,5.1314,4.9193,4.7087,4.6586,4.5764,4.4487,4.444,4.3925,4.2764,4.2273,4.1505,4.0487,3.9067,3.8278,3.8278,3.692,3.6376,3.6834,3.7741,3.8829,3.9658,4.0171,4.038,4.0864,4.1033,4.1033,4.1033,3.9826,3.9331,3.9578,3.9331,3.9059,3.9306,4.0319,4.0073,3.9553,3.8515,3.8019,3.8067,3.7571,3.7322,3.7073,3.7073,3.7073,3.7073,3.7073,3.7073,3.7073,3.7073,3.7073,3.7073,3.6598,3.5849,3.5076,3.4074,3.3341,3.2586,3.1829,3.1051,3.0817,3.0076,2.9315,2.7752,2.5967,2.4431,2.3405,2.2892,2.2378,2.2378,2.212,2.212,2.1877,2.1348,2.0833,2.0833,2.0833,2.0833,2.0833,2.0833,2.0833,2.0833,2.0833,2.0833,2.0833,2.0833,2.0833,5.9797,5.9077,5.8392,5.7934,5.7245,5.6554,5.668,5.7143,5.7179,5.7571,5.8248,5.8391,5.8462,5.8747,5.9318,5.9531,5.971,6.0316,6.0672,6.0708,6.0672,6.0779,6.0707,5.9773,5.9051,5.8798,5.622,5.3876,5.2873,5.1314,4.9193,4.685,4.6586,4.6029,4.4487,4.4017,4.3183,4.2152,4.109,4.025,3.9113,3.692,3.5831,3.6104,3.4466,3.3919,3.3879,3.4894,3.6101,3.7504,3.904,4.0179,4.037,4.0787,4.0787,4.054,3.9826,3.9084,3.9084,3.8836,3.8564,3.8811,3.9306,3.98,3.9553,3.8515,3.8043,3.8043,3.7819,3.7073,3.7073,3.7073,3.7073,3.7073,3.7073,3.7073,3.7073,3.7073,3.7073,3.7073,3.6349,3.5576,3.4804,3.3801,3.2565,3.1829,3.0778,2.9457,2.9531,2.906,2.7497,2.5967,2.4687,2.3405,2.2378,2.1863,2.1606,2.1606,2.1606,2.1619,2.1104,2.0833,2.0833,2.0833,2.0833,2.0833,2.0833,2.0833,2.0833,2.0833,2.0833,2.0833,2.0833,2.0833,2.0833,5.9797,5.9077,5.8392,5.7705,5.7245,5.659,5.6394,5.643,5.6466,5.6894,5.7428,5.7571,5.7927,5.8533,5.8676,5.8783,5.889,5.9567,5.9888,5.9817,5.9924,6.028,6.0815,5.9633,5.9199,5.8763,5.6731,5.4681,5.2873,5.1835,4.9979,4.7087,4.6586,4.6029,4.4461,4.3126,4.2347,4.1468,3.9924,3.8639,3.7192,3.6104,3.5286,3.3919,3.3645,3.3371,3.3371,3.4093,3.4726,3.5099,3.8269,3.9825,3.9679,4.0294,4.0787,4.0047,3.9578,3.9084,3.8836,3.8067,3.8067,3.9059,3.8564,3.7819,3.8836,3.8612,3.8388,3.7594,3.7322,3.7073,3.7073,3.7073,3.7073,3.7073,3.7073,3.7073,3.7073,3.7073,3.7073,3.6824,3.6076,3.5054,3.4804,3.332,3.1809,3.0778,2.9747,2.9005,2.8806,2.7515,2.5695,2.4416,2.3405,2.2378,2.1863,2.1348,2.1091,2.1091,2.1091,2.1091,2.0833,2.0833,2.0833,2.0833,2.0833,2.0833,2.0833,2.0833,2.0833,2.0833,2.0833,2.0833,2.0833,2.0833,2.0833,5.9077,5.8392,5.7934,5.7245,5.6785,5.6554,5.6323,5.6323,5.6323,5.6501,5.6715,5.6787,5.6965,5.725,5.7749,5.7927,5.8034,5.8783,5.8854,5.8462,5.8854,5.9531,6.0209,5.9785,5.9534,5.8695,5.6508,5.4423,5.2873,5.1545,4.9718,4.7087,4.6586,4.6029,4.4435,4.31,4.1736,4.0614,3.8774,3.7192,3.6104,3.4446,3.3351,3.3077,3.2548,3.2273,3.2273,3.2548,3.2807,3.3254,3.5257,3.7455,3.9133,4.0294,4.0787,4.0047,3.9331,3.8836,3.8564,3.7819,3.8067,3.8067,3.8291,3.8515,3.8291,3.8019,3.8067,3.7547,3.7322,3.7073,3.7073,3.7073,3.7073,3.7073,3.7073,3.7073,3.7073,3.7073,3.7073,3.6303,3.5554,3.4804,3.4052,3.2817,3.1304,3.0778,2.9785,2.906,2.8333,2.6494,2.416,2.2606,2.1863,2.1606,2.1348,2.1091,2.0833,2.0833,2.0833,2.0833,2.0833,2.0833,2.0833,2.0833,2.0833,2.0833,2.0833,2.0833,2.0833,2.0833,2.0833,2.0833,2.0833,2.0833,2.0833,5.8621,5.8163,5.7475,5.7015,5.6323,5.6323,5.6323,5.6323,5.6323,5.6323,5.6323,5.6323,5.6323,5.6501,5.6858,5.7107,5.7179,5.7678,5.782,5.7642,5.807,5.8854,5.9674,5.9852,5.9537,5.866,5.6475,5.4423,5.2873,5.1545,4.9427,4.7087,4.6294,4.5764,4.4435,4.31,4.1736,4.01,3.7962,3.6355,3.5013,3.3351,3.2529,3.2254,3.1724,3.1467,3.1448,3.1338,3.1494,3.1653,3.2755,3.4893,3.7737,3.9306,3.98,3.9306,3.8811,3.8092,3.7571,3.7547,3.7571,3.7571,3.8043,3.8267,3.8043,3.7499,3.7251,3.7547,3.7322,3.7073,3.7073,3.7073,3.7073,3.7073,3.7073,3.7073,3.7073,3.718,3.6638,3.6119,3.5464,3.4804,3.3823,3.2313,3.1304,3.1051,2.9823,2.8297,2.755,2.5199,2.2863,2.1321,2.1335,2.1348,2.1091,2.0833,2.0833,2.0833,2.0833,2.0833,2.0833,2.0833,2.0833,2.0833,2.0833,2.0833,2.0833,2.0833,2.0833,2.0833,2.0833,2.0833,2.0833,2.0833,2.0833,5.8621,5.7934,5.7475,5.7015,5.6323,5.6323,5.6323,5.6323,5.6323,5.6323,5.6323,5.6323,5.6323,5.6359,5.643,5.6394,5.6466,5.6573,5.6858,5.7321,5.7464,5.8284,5.9603,5.9603,5.929,5.8775,5.6919,5.4874,5.2719,5.1424,4.934,4.706,4.6002,4.5233,4.4435,4.31,4.1761,4.0124,3.7984,3.581,3.3919,3.2803,3.2254,3.1724,3.1448,3.1467,3.1448,3.1081,3.0964,3.0821,3.1473,3.3295,3.6418,3.7322,3.7571,3.8067,3.7571,3.6824,3.6349,3.6847,3.7571,3.7819,3.7571,3.7547,3.7795,3.7547,3.705,3.7322,3.7073,3.7073,3.7073,3.7073,3.7073,3.7073,3.7073,3.7073,3.7251,3.719,3.6637,3.5751,3.5058,3.4782,3.3823,3.2313,3.1051,3.0817,2.9842,2.806,2.5168,2.3105,2.1294,2.0806,2.082,2.1091,2.0833,2.0833,2.0833,2.0833,2.0833,2.0833,2.0833,2.0833,2.0833,2.0833,2.0833,2.0833,2.0833,2.0833,2.0833,2.0833,2.0833,2.0833,2.0833,2.0833,2.0833,5.8621,5.7475,5.7015,5.6554,5.6323,5.6323,5.6323,5.6323,5.6323,5.6323,5.6323,5.6323,5.6323,5.6323,5.6323,5.6323,5.6323,5.6323,5.6466,5.6715,5.6715,5.725,5.8106,5.8248,5.7952,5.7396,5.676,5.4991,5.2271,5.0641,4.8791,4.6798,4.5841,4.5233,4.4435,4.31,4.1785,3.9901,3.7442,3.4992,3.3077,3.2273,3.1724,3.1467,3.1467,3.1467,3.1448,3.1063,3.0927,3.0802,3.0913,3.2292,3.4936,3.6349,3.7073,3.6847,3.6824,3.6847,3.6349,3.6847,3.7322,3.7322,3.7275,3.7275,3.7322,3.7275,3.705,3.7073,3.7073,3.7073,3.7073,3.7073,3.7073,3.7073,3.7073,3.7073,3.7073,3.718,3.6591,3.5802,3.4943,3.4031,3.3299,3.2041,3.1304,3.1071,2.9879,2.7022,2.3346,2.1281,2.0806,2.0833,2.0833,2.0833,2.0833,2.0833,2.0833,2.0833,2.0833,2.0833,2.0833,2.0833,2.0833,2.0833,2.0833,2.0833,2.0833,2.0833,2.0833,2.0833,2.0833,2.0833,2.0833,2.0833,2.0833,5.8621,5.7475,5.6785,5.6323,5.6323,5.6323,5.6323,5.6323,5.6323,5.6323,5.6323,5.6323,5.6323,5.6323,5.6038,5.5931,5.5931,5.5931,5.6074,5.6323,5.6127,5.6518,5.7428,5.7263,5.6974,5.6638,5.6498,5.4756,5.1613,4.9682,4.8245,4.6808,4.5733,4.4967,4.4435,4.31,4.1517,3.9677,3.717,3.4699,3.2254,3.1724,3.1467,3.1467,3.1173,3.11,3.1228,3.0554,3.0154,3.0297,3.0148,3.109,3.3152,3.4848,3.5576,3.5826,3.5826,3.5826,3.5849,3.6326,3.6824,3.7073,3.7026,3.7026,3.7073,3.705,3.7026,3.705,3.7073,3.7073,3.7073,3.7073,3.7073,3.7073,3.7073,3.7003,3.6839,3.6521,3.6297,3.5779,3.4654,3.3664,3.2734,3.1959,3.1051,3.0856,2.937,2.6255,2.2321,2.078,2.082,2.0833,2.0833,2.0833,2.0833,2.0833,2.0833,2.0833,2.0833,2.0833,2.0833,2.0833,2.0833,2.0833,2.0833,2.0833,2.0833,2.0833,2.0833,2.0833,2.0833,2.0833,2.0833,2.0833,2.0833,5.8546,5.7898,5.6785,5.6323,5.6323,5.6323,5.6323,5.6323,5.6323,5.6323,5.6323,5.6323,5.6323,5.6181,5.5468,5.5182,5.5218,5.5027,5.5417,5.6056,5.5664,5.6051,5.7393,5.6755,5.6631,5.6396,5.5913,5.4001,5.0898,4.8548,4.7129,4.6669,4.5126,4.4409,4.4168,4.31,4.0979,3.8842,3.6627,3.4446,3.1999,3.1393,3.1357,3.1338,3.0551,3.0336,3.0536,2.9621,2.9245,2.9371,2.9263,2.955,3.1051,3.2313,3.355,3.4553,3.4325,3.4325,3.5054,3.5826,3.6349,3.7073,3.7073,3.7073,3.7073,3.7073,3.7073,3.7073,3.7073,3.7073,3.7073,3.7003,3.6979,3.7003,3.7003,3.6745,3.6078,3.5811,3.5521,3.5208,3.4231,3.3238,3.2561,3.1736,3.1145,3.0468,2.8516,2.5423,2.1752,2.0793,2.0833,2.0833,2.0833,2.0833,2.0833,2.0575,2.0575,2.0575,2.0588,2.0846,2.0833,2.0833,2.0833,2.0833,2.0833,2.0833,2.0833,2.0833,2.0833,2.0833,2.0833,2.0833,2.0833,2.0833,2.0833,5.7054,5.6711,5.6339,5.6323,5.6323,5.6323,5.6323,5.6323,5.6323,5.6323,5.6323,5.6323,5.5808,5.4713,5.4009,5.3749,5.3977,5.4012,5.4202,5.4862,5.4699,5.4803,5.521,5.5513,5.5114,5.458,5.4614,5.3429,5.0622,4.7787,4.6368,4.6312,4.4828,4.4019,4.4383,4.2565,4.0416,3.8255,3.6083,3.3899,3.1649,3.0879,3.0585,3.0585,2.9764,2.9443,2.9585,2.8964,2.8698,2.8851,2.8988,2.9531,3.0311,3.0817,3.1304,3.2061,3.2817,3.3823,3.4804,3.5826,3.6349,3.7073,3.7073,3.7073,3.7073,3.7073,3.7073,3.7073,3.7073,3.7073,3.7026,3.6745,3.6802,3.7071,3.6265,3.6032,3.5877,3.5626,3.5163,3.4119,3.3437,3.2715,3.1876,3.1026,3.0186,2.983,2.6975,2.3525,2.1531,2.0944,2.0833,2.0833,2.0833,2.0575,2.0059,2.0072,2.0072,2.0072,2.0072,2.033,2.0846,2.0833,2.0833,2.0833,2.0833,2.0833,2.0833,2.0833,2.0833,2.0833,2.0833,2.0833,2.0833,2.0833,2.0833,5.6828,5.6122,5.6232,5.6323,5.6323,5.6323,5.6323,5.6323,5.6323,5.6323,5.6287,5.5189,5.4029,5.3035,5.2394,5.2394,5.2622,5.2933,5.3294,5.3983,5.4095,5.4233,5.4431,5.419,5.3786,5.2824,5.3057,5.2126,5.0381,4.8352,4.7029,4.6199,4.448,4.3734,4.3807,4.2174,4.0147,3.7962,3.5622,3.337,3.139,3.0567,2.9971,2.9442,2.8646,2.8312,2.8139,2.7671,2.7483,2.757,2.7363,2.7752,2.877,2.877,2.9203,3.0294,3.1527,3.2941,3.3984,3.4924,3.5532,3.6251,3.6684,3.7073,3.7073,3.7073,3.7073,3.7073,3.7073,3.6979,3.6768,3.651,3.6228,3.5775,3.5222,3.5256,3.5811,3.5712,3.4843,3.3411,3.2847,3.2196,3.1645,3.08,3.0098,2.8917,2.5309,2.2504,2.1141,2.0797,2.0701,2.0793,2.0471,2.0201,1.9788,1.9555,1.9555,1.9814,1.9814,2.0072,2.0588,2.0833,2.0833,2.0833,2.0833,2.0833,2.0833,2.0833,2.0833,2.0833,2.0833,2.0833,2.0833,2.0833,2.0846,5.7157,5.5969,5.6125,5.6287,5.6323,5.6252,5.6252,5.6323,5.6145,5.6109,5.5666,5.3419,5.1743,5.1088,5.0984,5.0984,5.0937,5.1777,5.2345,5.3134,5.3323,5.3629,5.4027,5.2982,5.192,5.1394,5.1394,5.0769,4.9771,4.9405,4.8322,4.5852,4.4212,4.3526,4.3394,4.2025,4.0147,3.7962,3.5329,3.3206,3.1019,3.0365,2.9598,2.7995,2.7466,2.6788,2.6476,2.589,2.5713,2.5934,2.5359,2.5597,2.6851,2.6851,2.7471,2.8877,3.0343,3.1393,3.2254,3.3547,3.4544,3.4811,3.6228,3.7003,3.7073,3.6979,3.6932,3.6885,3.6909,3.6674,3.6299,3.6158,3.5636,3.4216,3.391,3.4486,3.5125,3.522,3.4601,3.2856,3.213,3.181,3.1591,3.1164,3.0194,2.8352,2.4003,2.0676,2.0673,2.0821,2.0703,2.0609,2.0034,1.9475,1.9419,1.9002,1.899,1.9543,1.9814,2.0072,2.0588,2.0833,2.0833,2.0833,2.0833,2.0833,2.0833,2.0833,2.0833,2.0833,2.0833,2.0833,2.0833,2.0833,2.0588,5.6457,5.5409,5.5361,5.5788,5.6252,5.5717,5.5559,5.5523,5.4361,5.3608,5.3054,5.1964,5.1006,5.0581,4.975,4.9601,4.9704,4.9939,5.0711,5.1887,5.1891,5.1958,5.2155,5.1824,5.1194,5.0013,4.9493,4.9327,4.8945,4.8401,4.7146,4.5198,4.3624,4.3136,4.3578,4.1517,3.9607,3.7918,3.4994,3.2486,3.0612,2.9667,2.853,2.7227,2.6712,2.5923,2.5327,2.4801,2.5133,2.6293,2.5525,2.5376,2.6099,2.6099,2.6312,2.6733,2.8429,2.9609,3.048,3.2517,3.4186,3.5254,3.6172,3.6651,3.6956,3.6369,3.59,3.59,3.5947,3.5636,3.5232,3.5123,3.4538,3.2967,3.3415,3.3981,3.4144,3.3446,3.2578,3.1739,3.1168,3.0768,3.0599,3.0536,2.9626,2.6966,2.2568,1.9822,2.0227,2.0703,2.0591,2.0147,1.961,1.8949,1.8665,1.7985,1.8066,1.9014,1.9038,1.9555,2.0317,2.0833,2.0833,2.082,2.082,2.0793,2.082,2.082,2.0806,2.078,2.082,2.0833,2.082,2.082,2.0588,5.5325,5.4184,5.4469,5.4683,5.4719,5.4459,5.422,5.375,5.2033,5.1143,5.0941,5.0226,4.9702,4.9233,4.883,4.8648,4.8831,4.9164,4.9763,5.0495,5.0828,5.0994,5.0961,5.0402,4.9586,4.8809,4.8328,4.8037,4.7539,4.7622,4.6718,4.4515,4.3702,4.3357,4.3162,4.1636,3.9877,3.794,3.468,3.2034,2.9942,2.952,2.844,2.6716,2.6114,2.5359,2.4447,2.4007,2.4153,2.5181,2.4486,2.4047,2.4386,2.4881,2.5226,2.5137,2.7295,2.8662,2.9184,3.0823,3.2198,3.3567,3.482,3.5603,3.5613,3.5153,3.4592,3.4592,3.4592,3.4501,3.399,3.3975,3.3446,3.2269,3.2733,3.3359,3.3705,3.2412,3.1254,3.1313,3.0788,3.0327,3.0327,2.9844,2.8688,2.6384,2.2703,2.006,2.0024,2.0078,1.9903,1.9417,1.8974,1.8388,1.7718,1.703,1.7073,1.771,1.825,1.8768,2.0072,2.0445,2.0648,2.0635,2.0516,2.0464,2.0437,2.0543,2.0556,2.053,2.0622,2.0741,2.0432,2.0754,2.0201,5.3694,5.2723,5.34,5.3329,5.2865,5.2882,5.272,5.2137,4.975,4.8864,4.913,4.8498,4.8265,4.8265,4.8265,4.8232,4.8082,4.8897,4.923,4.9142,4.9739,5.0037,5.0004,4.8707,4.7905,4.7397,4.7175,4.6762,4.6025,4.6811,4.6253,4.4248,4.3947,4.34,4.2715,4.1531,3.9959,3.7851,3.4471,3.1739,2.9612,2.9556,2.8308,2.5917,2.5439,2.4679,2.3542,2.3061,2.3031,2.3646,2.3139,2.2738,2.2665,2.3596,2.4131,2.4323,2.6401,2.789,2.7954,2.884,2.9634,3.1064,3.3056,3.4103,3.3322,3.3322,3.3367,3.3433,3.3389,3.3234,3.2622,3.2745,3.2568,3.1982,3.1894,3.2168,3.3176,3.15,3.0536,3.1018,3.0557,3.0327,3.0096,2.9151,2.7742,2.5649,2.2359,2.0314,1.9821,1.9489,1.9103,1.8773,1.8195,1.7434,1.6986,1.6107,1.5818,1.6676,1.7171,1.8158,1.9456,2.006,2.0158,2.0345,2.0187,2.0042,2.0029,2.0187,2.0226,2.0121,2.0358,2.0582,2.0132,2.0302,2.0341,5.24,5.1903,5.2045,5.2366,5.283,5.2284,5.2101,5.1778,0.0,0.0,0.0,4.8298,4.8265,4.8265,4.8265,4.8049,4.7616,4.7747,4.7857,4.7969,4.8099,4.8164,4.8164,4.7335,4.6541,4.6035,4.5156,4.4993,4.5739,4.5443,4.49,4.4109,4.3955,4.32,4.2087,4.0675,3.9091,3.7296,3.5407,3.2835,2.9612,2.9299,2.7664,2.4769,2.4833,2.3961,2.1655,2.2105,2.262,2.3047,2.203,2.188,2.2982,2.2484,2.2547,2.3863,2.5287,2.6293,2.6578,2.7471,2.8487,2.9301,3.1446,3.2235,3.1402,3.1586,3.199,3.2368,3.2412,3.2159,3.1631,3.2049,3.1774,3.0746,3.0682,3.0661,3.0976,3.0515,3.0285,3.0557,3.0327,3.0327,3.0327,2.89,2.7045,2.4949,2.1845,1.9275,1.9132,1.9132,1.9224,1.9083,1.8111,1.7093,1.6823,1.5526,1.502,1.6323,1.6763,1.743,1.8943,1.9678,1.9803,1.9846,2.0029,1.9963,1.9976,2.0002,2.0029,2.0002,2.0068,2.0121,2.0094,1.9751,1.9362,5.0477,5.0477,5.0477,5.0483,0.0,4.9962,4.8872,4.732,4.5426,4.562,4.7503,4.7124,4.7007,4.7367,4.715,4.6716,4.6498,4.6281,4.6035,4.6099,4.6099,4.5878,4.5626,4.4993,4.4618,4.4312,4.3431,4.3138,4.3465,4.3688,4.334,4.2121,4.2712,4.2381,4.1589,4.1263,3.9634,3.6214,3.3451,3.079,2.8016,2.829,2.726,2.4203,2.4738,0.0,0.0,0.0,0.0,0.0,0.0,0.0,0.0,0.0,0.0,2.2523,2.3708,2.4852,2.5532,2.617,2.6845,2.7719,2.9008,2.9534,2.8414,2.8787,2.9161,3.0023,2.9819,2.9594,2.9615,2.984,2.9819,2.8918,2.8672,2.9247,3.0199,3.0241,3.0097,3.0034,3.0075,3.0096,2.9844,2.8225,2.6348,2.4482,2.1875,1.976,1.9315,1.9092,1.9198,1.9247,1.7817,1.6833,1.6021,1.44,1.4103,1.4991,1.5486,1.643,1.7923,1.8564,1.9183,1.9301,1.939,1.9527,1.9541,1.9659,1.9712,1.9593,1.9778,1.9897,1.9593,1.939,1.9005,4.827,4.8471,4.8613,4.8279,4.7637,4.6653,4.4612,4.2257,4.1183,4.2749,4.5568,4.4918,4.5109,4.565,4.5374,4.5002,4.5002,4.447,4.4281,4.4062,4.4062,4.3812,4.3342,4.271,4.2769,4.2518,4.1959,4.1459,4.1045,4.1901,4.1718,4.0427,4.1115,4.1541,4.1004,0.0,0.0,0.0,3.1482,2.857,2.6222,2.7536,2.6834,2.3108,2.4391,0.0,2.2309,2.2079,2.2265,2.3281,2.3,0.0,0.0,0.0,0.0,0.0,0.0,0.0,0.0,0.0,0.0,0.0,2.6523,2.6363,2.5477,2.5786,2.6524,2.7682,2.7321,2.7381,2.8043,2.8063,2.7602,2.6698,2.6698,2.7559,2.9573,2.984,2.9699,2.9327,2.968,2.9951,2.924,2.7491,2.5667,2.4031,2.1905,2.0272,1.9092,1.9092,1.9211,1.9005,1.8003,1.6507,1.4485,1.3583,1.2962,1.3752,1.4479,1.5421,1.6857,1.7687,1.8343,1.865,1.8748,1.9106,1.9106,1.9277,1.9382,1.9145,1.9475,1.9633,1.9066,1.8987,1.8568,4.6066,4.5122,4.5336,4.5204,4.4534,4.1942,4.042,3.9493,3.6533,3.7541,4.1362,4.1543,4.2206,4.3201,4.3333,4.2964,4.2592,4.2942,4.2518,4.1603,4.1603,4.1603,4.1603,4.1381,4.1381,4.1353,4.0838,4.0334,4.0334,4.0552,4.0609,4.0314,4.0516,4.0708,4.1099,4.013,3.7971,3.526,3.1482,2.8583,2.6222,2.7277,2.5923,2.1789,2.3548,2.3025,1.9727,2.089,2.1376,2.1239,2.1586,2.2314,2.2858,2.2098,2.1887,0.0,2.2087,0.0,0.0,0.0,0.0,0.0,0.0,0.0,0.0,2.4089,2.4915,2.6137,2.6724,2.7179,2.742,2.7401,2.6477,2.4816,2.4577,2.5313,2.7258,2.8165,2.8608,2.8427,2.9041,2.9494,2.8835,2.6609,2.4733,2.353,2.1185,1.9342,1.9119,1.9119,1.9224,1.9769,1.8125,1.6289,1.4479,1.2902,1.2333,1.3697,1.4089,1.4648,1.6169,1.698,1.7677,1.7984,1.8465,1.9053,1.9092,1.9106,1.9119,1.9066,1.8882,1.8791,1.8335,1.8118,1.7796,4.3522,4.2606,4.295,4.1649,3.8952,3.7262,3.6691,3.6365,3.479,3.5493,3.7872,3.9606,4.0585,4.1002,4.0661,4.038,4.0223,4.0391,4.0039,3.9294,3.9628,3.9547,3.9354,3.9354,3.9519,3.9598,3.9352,3.8994,3.8772,3.9079,3.8914,3.8312,3.8927,3.885,3.7916,3.7836,3.6165,3.3095,3.1006,2.819,2.4416,2.5516,2.4156,2.021,2.14,2.1259,1.9348,1.9926,2.066,2.14,2.231,2.2571,2.175,2.1641,2.15,0.0,0.0,0.0,0.0,0.0,0.0,0.0,0.0,0.0,0.0,0.0,2.2219,2.1984,2.3378,2.4376,2.4821,2.5034,2.4682,2.3338,2.2949,2.3466,2.5989,2.7123,2.7183,2.5812,2.7104,2.7955,2.7065,2.5277,2.3715,2.3055,2.0629,1.9158,1.9064,1.8498,1.831,1.8711,1.7443,1.5936,1.5298,1.3191,1.2127,1.3398,1.375,1.4302,1.5378,1.6284,1.6891,1.6883,1.7608,1.8157,1.8618,1.8144,1.7914,1.8144,1.7683,1.6677,1.601,1.5362,1.5199,4.1421,4.03,4.0086,3.7647,3.4263,3.4022,3.3944,3.3997,3.4146,3.4586,3.5661,3.776,3.8306,3.8001,3.7819,3.7693,3.7859,3.7824,3.769,3.7232,3.7662,3.7659,3.7223,3.7468,3.7707,3.7857,3.7503,3.7229,3.676,3.7196,3.6905,3.5959,3.6592,3.6204,3.4634,3.522,3.393,3.0782,3.0167,2.7653,2.3422,2.3936,2.2635,1.8886,2.0119,2.044,1.9377,1.9525,2.024,2.1707,2.2824,2.2338,2.0504,2.1065,0.0,0.0,0.0,0.0,0.0,0.0,0.0,0.0,0.0,2.0641,1.9036,0.0,2.0081,0.0,2.026,2.1676,2.2172,2.26,0.0,0.0,2.1069,2.1634,2.4468,2.5671,2.5393,2.3518,2.5237,2.6074,2.5201,2.4169,2.3055,2.1818,2.014,1.8791,1.8915,1.7747,1.7247,1.7651,1.639,1.5335,1.5324,1.3261,1.1986,1.3179,1.3722,1.4024,1.4659,1.5417,1.5726,1.5657,1.6143,1.688,1.7332,1.6642,1.638,1.6933,1.5555,1.3977,1.3295,1.2837,1.2631,3.9957,3.8006,3.5524,3.3602,3.1978,3.3075,3.3545,3.3571,3.3917,3.4381,3.4381,3.5564,3.5295,3.3955,3.4356,0.0,3.5386,3.5974,3.6086,3.6158,3.5727,3.5753,3.6236,3.6478,3.6504,3.6072,3.5101,3.4632,3.4446,3.4158,3.383,3.3765,3.3377,3.3027,3.2671,3.2582,3.1534,2.9164,2.839,2.6663,2.3996,2.3949,2.205,1.7894,2.0266,2.0678,1.8901,1.953,2.0592,2.2017,2.1579,2.126,2.0708,0.0,0.0,0.0,0.0,0.0,0.0,0.0,0.0,0.0,0.0,0.0,0.0,0.0,0.0,1.8963,1.9282,0.0,2.0762,2.0406,0.0,0.0,0.0,1.9609,2.2476,2.2949,2.2625,2.189,0.0,0.0,2.3777,2.3041,2.2,2.0336,1.9192,1.8525,1.9106,1.7256,1.6449,1.7271,1.5831,1.4629,1.4381,1.2702,1.1739,1.2932,1.3722,1.3733,1.3994,1.4604,1.452,1.3864,1.4446,1.5036,1.5036,1.5014,1.4905,1.4491,1.333,1.2016,1.1363,1.1816,1.2706,3.6424,3.4243,3.3258,3.169,3.0303,3.1072,3.1394,3.1582,3.2139,3.219,3.2082,3.3861,3.3514,3.1024,3.1215,0.0,0.0,0.0,3.3051,3.3077,3.327,3.3771,3.4522,3.4811,3.4989,3.4838,3.4396,3.4082,3.3867,3.3521,3.2204,3.0046,0.0,0.0,3.0118,3.0679,2.9811,2.7485,2.7239,2.5896,2.3426,2.2934,2.1301,1.8343,1.896,1.9048,1.8862,1.9474,1.9954,2.0484,2.1053,2.0609,0.0,0.0,0.0,0.0,0.0,0.0,0.0,0.0,0.0,0.0,0.0,1.7432,1.6234,0.0,0.0,0.0,1.5862,1.6503,1.7405,1.8016,0.0,0.0,0.0,0.0,0.0,0.0,0.0,1.8944,2.0776,2.1907,2.1404,2.0382,1.9278,1.8448,1.8394,1.8183,1.8122,0.0,1.6128,1.8197,1.5809,1.3837,1.4183,1.1895,1.0531,1.1008,1.1255,1.1702,1.3099,1.34,1.3291,1.3211,1.3461,1.3741,1.4182,1.308,1.2143,1.179,1.1537,1.1104,1.0662,1.0887,1.1546,3.3116,0.0,0.0,0.0,0.0,2.9372,2.964,2.9665,2.9777,2.9801,3.0266,3.2041,0.0,0.0,0.0,0.0,0.0,0.0,3.0773,3.0947,3.1217,3.1827,3.2863,3.3095,3.3395,3.3472,3.3284,3.2974,3.2593,3.1889,3.0136,2.7432,0.0,0.0,0.0,0.0,2.831,2.6176,2.6129,2.5122,2.2632,2.1918,2.0832,1.9169,1.8453,1.8257,1.8789,1.9383,1.9783,1.9715,2.0194,0.0,0.0,0.0,0.0,0.0,0.0,0.0,0.0,0.0,0.0,0.0,0.0,0.0,0.0,0.0,0.0,0.0,0.0,0.0,1.4715,1.5727,1.5532,0.0,0.0,0.0,0.0,0.0,0.0,0.0,0.0,0.0,1.8595,1.7795,1.7025,0.0,0.0,1.752,1.7184,1.6518,1.6318,1.7861,1.5054,0.0,1.3205,1.1405,0.9801,0.9761,1.0269,1.0961,1.2762,1.2326,1.1754,1.1971,1.2187,1.2404,1.2827,1.1493,1.039,1.0382,1.0166,1.0166,1.039,1.0205,1.0236,0.0,0.0,0.0,0.0,0.0,0.0,0.0,0.0,2.7015,2.7594,0.0,2.9685,0.0,0.0,0.0,0.0,0.0,2.9047,0.0,0.0,3.0046,3.0337,3.1221,3.1025,3.1272,3.1791,3.121,3.0743,3.0165,2.8415,0.0,0.0,0.0,0.0,0.0,0.0,2.6955,2.5387,2.5565,2.4587,2.217,2.1244,2.0772,2.0037,1.9062,1.8621,1.8474,1.9255,1.986,2.0592,1.8594,0.0,0.0,0.0,0.0,0.0,0.0,0.0,0.0,0.0,0.0,0.0,0.0,0.0,0.0,0.0,0.0,0.0,0.0,0.0,0.0,1.3612,0.0,0.0,0.0,0.0,0.0,0.0,0.0,0.0,0.0,0.0,1.5306,1.5329,1.5678,1.6208,0.0,0.0,0.0,0.0,1.6835,1.5704,1.3288,1.1477,1.1485,1.1008,1.0242,1.0327,0.0,0.0,1.1888,1.1003,1.0445,0.9794,1.0244,1.0678,1.0662,1.0286,1.0199,0.998,0.9768,0.9564,0.9783,0.9239,0.9123,0.0,0.0,0.0,0.0,0.0,0.0,0.0,0.0,0.0,2.514,0.0,2.5756,0.0,0.0,0.0,0.0,0.0,0.0,0.0,0.0,2.7175,2.7758,2.8915,2.9274,2.9346,0.0,2.8987,2.7993,0.0,0.0,0.0,0.0,0.0,0.0,0.0,0.0,2.5628,2.4578,2.4798,2.3528,2.1124,2.0629,1.994,1.9062,1.8723,1.8673,1.8525,1.9065,1.8999,0.0,0.0,0.0,0.0,0.0,0.0,0.0,0.0,0.0,0.0,0.0,0.0,0.0,0.0,0.0,0.0,0.0,0.0,0.0,0.0,0.0,0.0,0.0,1.1974,0.0,0.0,0.0,0.0,0.0,0.0,0.0,0.0,0.0,1.3558,1.3906,1.4704,1.5051,1.4643,1.4402,1.3905,0.0,0.0,0.0,0.0,0.0,0.0,0.0,0.7685,0.7251,0.8057,0.8821,0.9624,0.9467,0.936,0.9585,0.0,0.0,0.985,0.981,0.9645,0.9032,0.8706,0.856,0.7935,0.7763,0.8214,0.0,0.0,0.0,0.0,0.0,0.0,0.0,0.0,0.0,2.2644,2.2856,0.0,0.0,0.0,0.0,0.0,0.0,0.0,0.0,0.0,0.0,0.0,2.639,2.676,0.0,0.0,0.0,0.0,0.0,0.0,0.0,0.0,0.0,0.0,0.0,0.0,2.4686,2.3342,2.4036,2.2893,2.0271,2.0118,1.9664,1.8697,1.8578,1.8247,1.8004,0.0,0.0,0.0,0.0,0.0,0.0,0.0,0.0,0.0,0.0,0.0,0.0,0.0,0.0,0.0,0.0,0.0,0.0,0.0,0.0,0.0,0.0,0.0,0.0,0.0,1.1233,0.0,0.0,0.0,0.0,0.0,0.0,0.0,0.0,0.0,0.0,0.0,1.3532,1.4145,1.3833,1.341,1.2455,1.1251,1.0159,0.0,0.0,0.0,0.0,0.0,0.0,0.0,0.0,0.0,0.0,0.0,0.0,0.0,0.0,0.9616,0.8901,0.8857,0.8697,0.7908,0.0,0.0,0.0,0.0,0.0,0.0,0.0,0.0,0.0,0.0,0.0,0.0,0.0,0.0,0.0,2.0751,0.0,0.0,2.0552,0.0,0.0,0.0,0.0,0.0,0.0,0.0,0.0,0.0,0.0,0.0,0.0,0.0,0.0,0.0,0.0,0.0,0.0,0.0,0.0,0.0,0.0,2.4132,2.1915,2.346,2.2635,1.981,1.987,1.9623,1.867,1.838,1.7813,1.6943,0.0,0.0,0.0,0.0,0.0,0.0,0.0,0.0,0.0,0.0,0.0,0.0,0.0,0.0,0.0,0.0,0.0,0.0,0.0,0.0,0.0,0.0,0.0,0.0,0.0,0.0,1.1434,1.1667,1.1826,0.0,0.0,0.0,0.0,0.0,0.0,0.0,0.0,0.0,0.0,1.3379,1.3128,1.2658,1.0707,0.8698,0.7591,0.7466,0.7543,0.8221,0.8677,0.8639,0.0,0.0,0.0,0.0,0.0,0.0,0.0,0.0,0.0,0.0,0.0,0.0,0.0,0.0,0.0,0.0,0.0,0.0,0.0,0.0,0.0,0.0,0.0,0.0,0.0,0.0,0.0,0.0,0.0,0.0,0.0,0.0,0.0,0.0,0.0,0.0,0.0,0.0,0.0,0.0,0.0,0.0,0.0,0.0,0.0,0.0,0.0,0.0,0.0,0.0,0.0,0.0,0.0,0.0,2.3118,2.1318,2.2187,2.1612,1.9262,1.8903,1.8674,1.8367,1.8077,1.751,0.0,0.0,0.0,0.0,0.0,0.0,0.0,0.0,0.0,0.0,0.0,0.0,0.0,0.0,0.0,0.0,0.0,0.0,0.0,0.0,0.0,0.0,0.0,0.0,0.0,0.0,0.0,0.0,1.0946,1.1173,1.1735,0.0,0.0,0.0,0.0,0.0,0.0,0.0,0.0,0.0,0.0,1.1984,1.0267,0.9424,0.855,0.7237,0.7055,0.7108,0.6958,0.7352,0.7098,0.5584,0.0,0.0,0.0,0.0,0.0,0.0,0.0,0.0,0.0,0.0,0.0,0.0,0.0,0.0,0.0,0.0,0.0,0.0,0.0,0.0,0.0,0.0,0.0,0.0,0.0,0.0,0.0,0.0,0.0,0.0,0.0,0.0,0.0,0.0,0.0,0.0,0.0,0.0,0.0,0.0,0.0,0.0,0.0,0.0,0.0,0.0,0.0,0.0,0.0,0.0,0.0,0.0,0.0,2.2154,2.0325,2.117,2.0717,1.872,1.8394,1.8183,1.8064,1.7998,1.7391,0.0,0.0,0.0,0.0,0.0,0.0,0.0,0.0,0.0,0.0,0.0,0.0,0.0,0.0,0.0,0.0,0.0,0.0,0.0,0.0,0.0,0.0,0.0,0.0,0.0,0.0,0.0,0.0,1.0557,1.0751,1.1328,0.0,0.0,0.0,0.0,0.0,0.0,0.0,0.0,0.0,0.0,0.9956,0.9541,0.8926,0.0,0.0,0.6928,0.6717,0.6128,0.6702,0.665,0.4989,0.5699,0.0,0.0,0.0,0.0,0.0,0.0,0.0,0.0,0.0,0.0,0.0,0.0,0.0,0.0,0.0,0.0,0.0,0.0,0.0,0.0,0.0,0.0,0.0,0.0,0.0,0.0,0.0,0.0,0.0,0.0,0.0,0.0,0.0,0.0,0.0,0.0,0.0,0.0,0.0,0.0,0.0,0.0,0.0,0.0,0.0,0.0,0.0,0.0,0.0,0.0,0.0,0.0,2.1148,1.908,2.0287,1.9954,1.802,1.8051,1.8051,1.802,1.8064,1.7391,0.0,0.0,0.0,0.0,0.0,0.0,0.0,0.0,0.0,0.0,0.0,0.0,0.0,0.0,0.0,0.0,0.0,0.0,0.0,0.0,0.0,0.0,0.0,0.0,0.0,0.0,0.0,0.0,0.0,0.0,0.0,0.0,0.0,0.0,0.0,0.0,0.0,0.0,0.0,0.0,0.0,0.7518,1.0174,0.9339,0.825,0.0,0.6865,0.6584,0.5966,0.692,0.704,0.5187,0.0,0.0,0.0,0.0,0.0,0.0,0.0,0.0,0.0,0.0,0.0,0.0,0.0,0.0,0.0,0.0,0.0,0.0,0.0,0.0,0.0,0.0,0.0,0.0,0.0,0.0,0.0,0.0,0.0,0.0,0.0,0.0,0.0,0.0,0.0,0.0,0.0,0.0,0.0,0.0,0.0,0.0,0.0,0.0,0.0,0.0,0.0,0.0,0.0,0.0,0.0,0.0,0.0,0.0,1.8973,1.9753,1.953,1.7994,1.7655,1.7655,1.7787,1.7866,0.0,0.0,0.0,0.0,0.0,0.0,0.0,0.0,0.0,0.0,0.0,0.0,0.0,0.0,0.0,0.0,0.0,0.0,0.0,0.0,0.0,0.0,0.0,0.0,0.0,0.0,0.0,0.9748,0.0,0.0,0.0,0.0,0.0,0.0,0.0,0.0,0.0,0.0,0.0,0.0,0.0,0.0,0.7393,1.0011,0.8675,0.7408,0.0,0.0,0.6312,0.5613,0.6337,0.6445,0.0,0.0,0.0,0.0,0.0,0.0,0.0,0.0,0.0,0.0,0.0,0.0,0.0,0.0,0.0,0.0,0.0,0.0,0.0,0.0,0.0,0.0,0.0,0.0,0.0,0.0,0.0,0.0,0.0,0.0,0.0,0.0,0.0,0.0,0.0,0.0,0.0,0.0,0.0,0.0,0.0,0.0,0.0,0.0,0.0,0.0,0.0,0.0,0.0,0.0,0.0,0.0,0.0,0.0,1.9299,1.8849,1.9286,1.881,1.7589,1.7457,1.7457,1.7602,1.7734,1.7115,0.0,0.0,0.0,0.0,0.0,0.0,0.0,0.0,0.0,0.0,0.0,0.0,0.0,0.0,0.0,0.0,0.0,0.0,0.0,0.0,0.0,0.0,0.0,0.0,0.0,0.0,0.0,0.0,0.0,0.0,0.0,0.0,0.0,0.0,0.0,0.0,0.0,0.0,0.0,0.0,0.0,0.0,0.8506,0.7672,0.0,0.0,0.0,0.5776,0.4841,0.0,0.0,0.0,0.0,0.0,0.0,0.0,0.0,0.0,0.0,0.0,0.0,0.0,0.0,0.0,0.0,0.0,0.0,0.0,0.0,0.0,0.0,0.0,0.0,0.0,0.0,0.0,0.0,0.0,0.0,0.0,0.0,0.0,0.0,0.0,0.0,0.0,0.0,0.0,0.0,0.0,0.0,0.0,0.0,0.0,0.0,0.0,0.0,0.0,0.0,0.0,0.0,0.0,0.0,0.0,0.0,0.0,1.8984,1.8695,1.8158,1.7352,1.7378,1.7378,1.7378,1.7616,1.7075,0.0,0.0,0.0,0.0,0.0,0.0,0.0,0.0,0.0,0.0,0.0,0.0,0.0,0.0,0.0,0.0,0.0,0.0,0.0,0.0,0.0,0.0,0.0,0.0,0.0,0.0,0.0,0.0,0.0,0.0,0.0,0.0,0.0,0.0,0.0,0.0,0.0,0.0,0.0,0.0,0.0,0.623,0.625,0.6526,0.6389,0.0,0.0,0.5235,0.4041,0.4773,0.0,0.0,0.0,0.0,0.0,0.0,0.0,0.0,0.0,0.0,0.0,0.0,0.0,0.0,0.0,0.0,0.0,0.0,0.0,0.0,0.0,0.0,0.0,0.0,0.0,0.0,0.0,0.0,0.0,0.0,0.0,0.0,0.0,0.0,0.0,0.0,0.0,0.0,0.0,0.0,0.0,0.0,0.0,0.0,0.0,0.0,0.0,0.0,0.0,0.0,0.0,0.0,0.0,0.0,0.0,0.0,1.8284,1.8607,1.8582,1.8009,1.7593,1.7378,1.7378,1.7431,1.689,0.0,0.0,0.0,0.0,0.0,0.0,0.0,0.0,0.0,0.0,0.0,0.0,0.0,0.0,0.0,0.0,0.0,0.0,0.0,0.0,0.0,0.0,0.0,0.0,0.0,0.0,0.0,0.0,0.0,0.0,0.0,0.0,0.0,0.0,0.0,0.0,0.0,0.0,0.0,0.0,0.0,0.6147,0.624,0.6393,0.0,0.0,0.0,0.0,0.3691,0.381,0.0,0.0,0.0,0.0,0.0,0.0,0.0,0.0,0.0,0.0,0.0,0.0,0.0,0.0,0.0,0.0,0.0,0.0,0.0,0.0,0.0,0.0,0.0,0.0,0.0,0.0,0.0,0.0,0.0,0.0,0.0,0.0,0.0,0.0,0.0,0.0,0.0,0.0,0.0,0.0,0.0,0.0,0.0,0.0,0.0,0.0,0.0,0.0,0.0,0.0,0.0,0.0,0.0,0.0,0.0,0.0,1.8633,1.8769,1.8497,1.7795,1.7378,1.7378,1.7365,1.7233,1.6679,0.0,0.0,0.0,0.0,0.0,0.0,0.0,0.0,0.0,0.0,0.0,0.0,0.0,0.0,0.0,0.0,0.0,0.0,0.0,0.0,0.0,0.0,0.0,0.0,0.0,0.0,0.0,0.0,0.0,0.0,0.0,0.0,0.0,0.0,0.0,0.0,0.0,0.0,0.0,0.0,0.6282,0.6303,0.6163,0.0,0.0,0.0,0.0,0.0,0.0,0.358,0.3941,0.0,0.0,0.0,0.0,0.0,0.0,0.0,0.0,0.0,0.0,0.0,0.0,0.0,0.0,0.0,0.0,0.0,0.0,0.0,0.0,0.0,0.0,0.0,0.0,0.0,0.0,0.0,0.0,0.0,0.0,0.0,0.0,0.0,0.0,0.0,0.0,0.0,0.0,0.0,0.0,0.0,0.0,0.0,0.0,0.0,0.0,0.0,0.0,0.0,0.0,0.0,0.0,0.0,0.0,0.0,1.9,1.846,1.8116,1.7365,1.7378,1.7378,1.7365,1.7035,1.6455,1.5598,0.0,0.0,0.0,0.0,0.0,0.0,0.0,0.0,0.0,0.0,0.0,0.0,0.0,0.0,0.0,0.0,0.0,0.0,0.0,0.0,0.0,0.0,0.0,0.0,0.0,0.0,0.0,0.0,0.0,0.0,0.0,0.0,0.0,0.0,0.0,0.0,0.0,0.0,0.0,0.6282,0.6282,0.0,0.0,0.0,0.0,0.0,0.0,0.0,0.0,0.3732,0.0,0.0,0.0,0.0,0.0,0.0,0.0,0.0,0.0,0.0,0.0,0.0,0.0,0.0,0.0,0.0,0.0,0.0,0.0,0.0,0.0,0.0,0.0,0.0,0.0,0.0,0.0,0.0,0.0,0.0,0.0,0.0,0.0,0.0,0.0,0.0,0.0,0.0,0.0,0.0,0.0,0.0,0.0,0.0,0.0,0.0,0.0,0.0,0.0,0.0,0.0,0.0,0.0,0.0,0.0,0.0,1.8139,1.813,1.8009,1.758,1.7378,1.7365,1.6838,1.6152,1.5282,0.0,0.0,0.0,0.0,0.0,0.0,0.0,0.0,0.0,0.0,0.0,0.0,0.0,0.0,0.0,0.0,0.0,0.0,0.0,0.0,0.0,0.0,0.0,0.0,0.0,0.0,0.0,0.0,0.0,0.0,0.0,0.0,0.0,0.0,0.0,0.0,0.0,0.0,0.7048,0.6478,0.0,0.0,0.0,0.0,0.0,0.0,0.0,0.0,0.2554,0.0,0.0,0.0,0.0,0.0,0.0,0.0,0.0,0.0,0.0,0.0,0.0,0.0,0.0,0.0,0.0,0.0,0.0,0.0,0.0,0.0,0.0,0.0,0.0,0.0,0.0,0.0,0.0,0.0,0.0,0.0,0.0,0.0,0.0,0.0,0.0,0.0,0.0,0.0,0.0,0.0,0.0,0.0,0.0,0.0,0.0,0.0,0.0,0.0,0.0,0.0,0.0,0.0,0.0,0.0,0.0,0.0,0.0,1.7919,1.7795,1.7378,1.7299,1.7141,1.6719,1.6073,0.0,0.0,0.0,0.0,0.0,0.0,0.0,0.0,0.0,0.0,0.0,0.0,0.0,0.0,0.0,0.0,0.0,0.0,0.0,0.0,0.0,0.0,0.0,0.0,0.0,0.0,0.0,0.0,0.0,0.0,0.0,0.0,0.0,0.0,0.0,0.0,0.0,0.0,0.0,0.0,0.0,0.0,0.0,0.0,0.0,0.0,0.0,0.0,0.0,0.0,0.0,0.0,0.0,0.0,0.0,0.0,0.0,0.0,0.0,0.0,0.0,0.0,0.0,0.0,0.0,0.0,0.0,0.0,0.0,0.0,0.0,0.0,0.0,0.0,0.0,0.0,0.0,0.0,0.0,0.0,0.0,0.0,0.0,0.0,0.0,0.0,0.0,0.0,0.0,0.0,0.0,0.0,0.0,0.0,0.0,0.0,0.0,0.0,0.0,0.0,0.0,0.0,0.0,0.0,0.0,0.0,0.0,0.0,1.743,1.7365,1.7378,1.7233,1.693,1.6587,1.5994,0.0,0.0,0.0,0.0,0.0,0.0,0.0,0.0,0.0,0.0,0.0,0.0,0.0,0.0,0.0,0.0,0.0,0.0,0.0,0.0,0.0,0.0,0.0,0.0,0.0,0.0,0.0,0.0,0.0,0.0,0.0,0.0,0.0,0.0,0.0,0.0,0.0,0.0,0.0,0.0,0.0,0.0,0.0,0.0,0.0,0.0,0.0,0.0,0.2161,0.0,0.0,0.0,0.0,0.0,0.0,0.0,0.0,0.0,0.0,0.0,0.0,0.0,0.0,0.0,0.0,0.0,0.0,0.0,0.0,0.0,0.0,0.0,0.0,0.0,0.0,0.0,0.0,0.0,0.0,0.0,0.0,0.0,0.0,0.0,0.0,0.0,0.0,0.0,0.0,0.0,0.0,0.0,0.0,0.0,0.0,0.0,0.0,0.0,0.0,0.0,0.0,0.0,0.0,0.0,0.0,0.0,0.0,0.0,1.6811,1.7365,1.7378,1.7233,1.693,1.6403,1.5717,0.0,0.0,0.0,0.0,0.0,0.0,0.0,0.0,0.0,0.0,0.0,0.0,0.0,0.0,0.0,0.0,0.0,0.0,0.0,0.0,0.0,0.0,0.0,0.0,0.0,0.0,0.0,0.0,0.0,0.0,0.0,0.0,0.0,0.0,0.0,0.0,0.0,0.0,0.0,0.0,0.0,0.0,0.0,0.0,0.0,0.0,0.0,0.0,0.0,0.0,0.0,0.0,0.0,0.0,0.0,0.0,0.0,0.0,0.0,0.0,0.0,0.0,0.0,0.0,0.0,0.0,0.0,0.0,0.0,0.0,0.0,0.0,0.0,0.0,0.0,0.0,0.0,0.0,0.0,0.0,0.0,0.0,0.0,0.0,0.0,0.0,0.0,0.0,0.0,0.0,0.0,0.0,0.0,0.0,0.0,0.0,0.0,0.0,0.0,0.0,0.0,0.0,0.0,0.0,0.0,0.0,0.0,0.0,1.6534,1.7101,1.7115,1.6904,1.6442,1.6033,1.5414,0.0,0.0,0.0,0.0,0.0,0.0,0.0,0.0,0.0,0.0,0.0,0.0,0.0,0.0,0.0,0.0,0.0,0.0,0.0,0.0,0.0,0.0,0.0,0.0,0.0,0.0,0.0,0.0,0.0,0.0,0.0,0.0,0.0,0.0,0.0,0.0,0.0,0.0,0.0,0.0,0.0,0.0,0.0,0.0,0.0,0.0,0.0,0.0,0.0,0.0,0.0,0.0,0.0,0.0,0.0,0.0,0.0,0.0,0.0,0.0,0.0,0.0,0.0,0.0,0.0,0.0,0.0,0.0,0.0,0.0,0.0,0.0,0.0,0.0,0.0,0.0,0.0,0.0,0.0,0.0,0.0,0.0,0.0,0.0,0.0,0.0,0.0,0.0,0.0,0.0,0.0,0.0,0.0,0.0,0.0,0.0,0.0,0.0,0.0,0.0,0.0,0.0,0.0,0.0,0.0,0.0,0.0,0.0,0.0,1.6785,1.6745,1.6468,1.5967,1.5677,1.5137,0.0,0.0,0.0,0.0,0.0,0.0,0.0,0.0,0.0,0.0,0.0,0.0,0.0,0.0,0.0,0.0,0.0,0.0,0.0,0.0,0.0,0.0,0.0,0.0,0.0,0.0,0.0,0.0,0.0,0.0,0.0,0.0,0.0,0.0,0.0,0.0,0.0,0.0,0.0,0.0,0.0,0.0,0.0,0.0,0.0,0.0,0.0,0.0,0.0,0.0,0.0,0.0,0.0,0.0,0.0,0.0,0.0,0.0,0.0,0.0,0.0,0.0,0.0,0.0,0.0,0.0,0.0,0.0,0.0,0.0,0.0,0.0,0.0,0.0,0.0,0.0,0.0,0.0,0.0,0.0,0.0,0.0,0.0,0.0,0.0,0.0,0.0,0.0,0.0,0.0,0.0,0.0,0.0,0.0,0.0,0.0,0.0,0.0,0.0,0.0,0.0,0.0,0.0,0.0,0.0,0.0,0.0,0.0,0.0,1.6508,1.6258,1.5981,1.5664,1.5361,1.4939,0.0,0.0,0.0,0.0,0.0,0.0,0.0,0.0,0.0,0.0,0.0,0.0,0.0,0.0,0.0,0.0,0.0,0.0,0.0,0.0,0.0,0.0,0.0,0.0,0.0,0.0,0.0,0.0,0.0,0.0,0.0,0.0,0.0,0.0,0.0,0.0,0.0,0.0,0.0,0.0,0.0,0.0,0.0,0.0,0.0,0.0,0.0,0.0,0.0,0.0,0.0,0.0,0.0,0.0,0.0,0.0,0.0,0.0,0.0,0.0,0.0,0.0,0.0,0.0,0.0,0.0,0.0,0.0,0.0,0.0,0.0,0.0,0.0,0.0,0.0,0.0,0.0,0.0,0.0,0.0,0.0,0.0,0.0,0.0,0.0,0.0,0.0,0.0,0.0,0.0,0.0,0.0,0.0,0.0,0.0,0.0,0.0,0.0,0.0,0.0,0.0,0.0,0.0,0.0,0.0,0.0,0.0,0.0,0.0,1.5941,1.6033,1.5928,1.5638,1.5163,1.4649,1.4069,0.0,0.0,0.0,0.0,0.0,0.0,0.0,0.0,0.0,0.0,0.0,0.0,0.0,0.0,0.0,0.0,0.0,0.0,0.0,0.0,0.0,0.0,0.0,0.0,0.0,0.0,0.0,0.0,0.0,0.0,0.0,0.0,0.0,0.0,0.0,0.0,0.0,0.0,0.0,0.0,0.0,0.0,0.0,0.0,0.0,0.0,0.0,0.0,0.0,0.0,0.0,0.0,0.0,0.0,0.0,0.0,0.0,0.0,0.0,0.0,0.0,0.0,0.0,0.0,0.0,0.0,0.0,0.0,0.0,0.0,0.0,0.0,0.0,0.0,0.0,0.0,0.0,0.0,0.0,0.0,0.0,0.0,0.0,0.0,0.0,0.0,0.0,0.0,0.0,0.0,0.0,0.0,0.0,0.0,0.0,0.0,0.0,0.0,0.0,0.0,0.0,0.0,0.0,0.0,0.0,0.0,0.0,0.0,1.5625,1.5836,1.5836,1.5625,1.515,1.4583,0.0,0.0,0.0,0.0,0.0,0.0,0.0,0.0,0.0,0.0,0.0,0.0,0.0,0.0,0.0,0.0,0.0,0.0,0.0,0.0,0.0,0.0,0.0,0.0,0.0,0.0,0.0,0.0,0.0,0.0,0.0,0.0,0.0,0.0,0.0,0.0,0.0,0.0,0.0,0.0,0.0,0.0,0.0,0.0,0.0,0.0,0.0,0.0,0.0,0.0,0.0,0.0,0.0,0.0,0.0,0.0,0.0,0.0,0.0,0.0,0.0,0.0,0.0,0.0,0.0,0.0,0.0,0.0,0.0,0.0,0.0,0.0,0.0,0.0,0.0,0.0,0.0,0.0,0.0,0.0,0.0,0.0,0.0,0.0,0.0,0.0,0.0,0.0,0.0,0.0,0.0,0.0,0.0,0.0,0.0,0.0,0.0,0.0,0.0,0.0,0.0,0.0,0.0,0.0,0.0,0.0,0.0,0.0,1.5625,1.5625,1.5625,1.5625,1.5611,1.5308,1.4754,0.0,0.0,0.0,0.0,0.0,0.0,0.0,0.0,0.0,0.0,0.0,0.0,0.0,0.0,0.0,0.0,0.0,0.0,0.0,0.0,0.0,0.0,0.0,0.0,0.0,0.0,0.0,0.0,0.0,0.0,0.0,0.0,0.0,0.0,0.0,0.0,0.0,0.0,0.0,0.0,0.0,0.0,0.0,0.0,0.0,0.0,0.0,0.0,0.0,0.0,0.0,0.0,0.0,0.0,0.0,0.0,0.0,0.0,0.0,0.0,0.0,0.0,0.0,0.0,0.0,0.0,0.0,0.0,0.0,0.0,0.0,0.0,0.0,0.0,0.0,0.0,0.0,0.0,0.0,0.0,0.0,0.0,0.0,0.0,0.0,0.0,0.0,0.0,0.0,0.0,0.0,0.0,0.0,0.0,0.0,0.0,0.0,0.0,0.0,0.0,0.0,0.0,0.0,0.0,0.0,0.0,0.0,0.0,0.0,1.5611,0.0,1.5427,0.0,1.4965,1.4477,0.0,0.0,0.0,0.0,0.0,0.0,0.0,0.0,0.0,0.0,0.0,0.0,0.0,0.0,0.0,0.0,0.0,0.0,0.0,0.0,0.0,0.0,0.0,0.0,0.0,0.0,0.0,0.0,0.0,0.0,0.0,0.0,0.0,0.0,0.0,0.0,0.0,0.0,0.0,0.0,0.0,0.0,0.0,0.0,0.0,0.0,0.0,0.0,0.0,0.0,0.0,0.0,0.0,0.0,0.0,0.0,0.0,0.0,0.0,0.0,0.0,0.0,0.0,0.0,0.0,0.0,0.0,0.0,0.0,0.0,0.0,0.0,0.0,0.0,0.0,0.0,0.0,0.0,0.0,0.0,0.0,0.0,0.0,0.0,0.0,0.0,0.0,0.0,0.0,0.0,0.0,0.0,0.0,0.0,0.0,0.0,0.0,0.0,0.0,0.0,0.0,0.0,0.0,0.0,0.0,0.0,0.0,0.0,0.0,1.5084,1.5197,1.5387,1.5453,1.5031,1.4596,0.0,0.0,0.0,0.0,0.0,0.0,0.0,0.0,0.0,0.0,0.0,0.0,0.0,0.0,0.0,0.0,0.0,0.0,0.0,0.0,0.0,0.0,0.0,0.0,0.0,0.0,0.0,0.0,0.0,0.0,0.0,0.0,0.0,0.0,0.0,0.0,0.0,0.0,0.0,0.0,0.0,0.0,0.0,0.0,0.0,0.0,0.0,0.0,0.0,0.0,0.0,0.0,0.0,0.0,0.0,0.0,0.0,0.0,0.0,0.0,0.0,0.0,0.0,0.0,0.0,0.0,0.0,0.0,0.0,0.0,0.0,0.0,0.0,0.0,0.0,0.0,0.0,0.0,0.0,0.0,0.0,0.0,0.0,0.0,0.0,0.0,0.0,0.0,0.0,0.0,0.0,0.0,0.0,0.0,0.0,0.0,0.0,0.0,0.0,0.0,0.0,0.0,0.0,0.0,0.0,0.0,0.0,0.0,0.0,1.4487,1.5096,1.5301,1.5028,1.5236,1.5044,0.0,0.0,0.0,0.0,0.0,0.0,0.0,0.0,0.0,0.0,0.0,0.0,0.0,0.0,0.0,0.0,0.0,0.0,0.0,0.0,0.0,0.0,0.0,0.0,0.0,0.0,0.0,0.0,0.0,0.0,0.0,0.0,0.0,0.0,0.0,0.0,0.0,0.0,0.0,0.0,0.0,0.0,0.0,0.0,0.0,0.0,0.0,0.0,0.0,0.0,0.0,0.0,0.0,0.0,0.0,0.0,0.0,0.0,0.0,0.0,0.0,0.0,0.0,0.0,0.0,0.0,0.0,0.0,0.0,0.0,0.0,0.0,0.0,0.0,0.0,0.0,0.0,0.0,0.0,0.0,0.0,0.0,0.0,0.0,0.0,0.0,0.0,0.0,0.0,0.0,0.0,0.0,0.0,0.0,0.0,0.0,0.0,0.0,0.0,0.0,0.0,0.0,0.0,0.0,0.0,0.0,0.0,0.0,0.0,0.0,1.4415,1.4329,1.4073,1.4136,1.4286,1.453,0.0,0.0,0.0,0.0,0.0,0.0,0.0,0.0,0.0,0.0,0.0,0.0,0.0,0.0,0.0,0.0,0.0,0.0,0.0,0.0,0.0,0.0,0.0,0.0,0.0,0.0,0.0,0.0,0.0,0.0,0.0,0.0,0.0,0.0,0.0,0.0,0.0,0.0,0.0,0.0,0.0,0.0,0.0,0.0,0.0,0.0,0.0,0.0,0.0,0.0,0.0,0.0,0.0,0.0,0.0,0.0,0.0,0.0,0.0,0.0,0.0,0.0,0.0,0.0,0.0,0.0,0.0,0.0,0.0,0.0,0.0,0.0,0.0,0.0,0.0,0.0,0.0,0.0,0.0,0.0,0.0,0.0,0.0,0.0,0.0,0.0,0.0,0.0,0.0,0.0,0.0,0.0,0.0,0.0,0.0,0.0,0.0,0.0,0.0,0.0,0.0,0.0,0.0,0.0,0.0,0.0,0.0,0.0,0.0,0.0,1.3945,1.3507,1.3583,1.3754,0.0,0.0,0.0,0.0,0.0,0.0,0.0,0.0,0.0,0.0,0.0,0.0,0.0,0.0,0.0,0.0,0.0,0.0,0.0,0.0,0.0,0.0,0.0,0.0,0.0,0.0,0.0,0.0,0.0,0.0,0.0,0.0,0.0,0.0,0.0,0.0,0.0,0.0,0.0,0.0,0.0,0.0,0.0,0.0,0.0,0.0,0.0,0.0,0.0,0.0,0.0,0.0,0.0,0.0,0.0,0.0,0.0,0.0,0.0,0.0,0.0,0.0,0.0,0.0,0.0,0.0,0.0,0.0,0.0,0.0,0.0,0.0,0.0,0.0,0.0,0.0,0.0,0.0,0.0,0.0,0.0,0.0,0.0,0.0,0.0,0.0,0.0,0.0,0.0,0.0,0.0,0.0,0.0,0.0,0.0,0.0,0.0,0.0,0.0,0.0,0.0,0.0,0.0,0.0,0.0,0.0,0.0,0.0,0.0,0.0,0.0,1.3753,1.3554,1.3495,0.0,1.2792,0.0,0.0,0.0,0.0,0.0,0.0,0.0,0.0,0.0,0.0,0.0,0.0,0.0,0.0,0.0,0.0,0.0,0.0,0.0,0.0,0.0,0.0,0.0,0.0,0.0,0.0,0.0,0.0,0.0,0.0,0.0,0.0,0.0,0.0,0.0,0.0,0.0,0.0,0.0,0.0,0.0,0.0,0.0,0.0,0.0,0.0,0.0,0.0,0.0,0.0,0.0,0.0,0.0,0.0,0.0,0.0,0.0,0.0,0.0,0.0,0.0,0.0,0.0,0.0,0.0,0.0,0.0,0.0,0.0,0.0,0.0,0.0,0.0,0.0,0.0,0.0,0.0,0.0,0.0,0.0,0.0,0.0,0.0,0.0,0.0,0.0,0.0,0.0,0.0,0.0,0.0,0.0,0.0,0.0,0.0,0.0,0.0,0.0,0.0,0.0,0.0,0.0,0.0,0.0,0.0,0.0,0.0,0.0,0.0,0.0,0.0,0.0,1.284,1.2765,1.2458,0.0,0.0,0.0,0.0,0.0,0.0,0.0,0.0,0.0,0.0,0.0,0.0,0.0,0.0,0.0,0.0,0.0,0.0,0.0,0.0,0.0,0.0,0.0,0.0,0.0,0.0,0.0,0.0,0.0,0.0,0.0,0.0,0.0,0.0,0.0,0.0,0.0,0.0,0.0,0.0,0.0,0.0,0.0,0.0,0.0,0.0,0.0,0.0,0.0,0.0,0.0,0.0,0.0,0.0,0.0,0.0,0.0,0.0,0.0,0.0,0.0,0.0,0.0,0.0,0.0,0.0,0.0,0.0,0.0,0.0,0.0,0.0,0.0,0.0,0.0,0.0,0.0,0.0,0.0,0.0,0.0,0.0,0.0,0.0,0.0,0.0,0.0,0.0,0.0,0.0,0.0,0.0,0.0,0.0,0.0,0.0,0.0,0.0,0.0,0.0,0.0,0.0,0.0,0.0,0.0,0.0,0.0,0.0,0.0,0.0,1.229,1.2501,1.2552,1.2301,1.2192,0.0,0.0,0.0,0.0,0.0,0.0,0.0,0.0,0.0,0.0,0.0,0.0,0.0,0.0,0.0,0.0,0.0,0.0,0.0,0.0,0.0,0.0,0.0,0.0,0.0,0.0,0.0,0.0,0.0,0.0,0.0,0.0,0.0,0.0,0.0,0.0,0.0,0.0,0.0,0.0,0.0,0.0,0.0,0.0,0.0,0.0,0.0,0.0,0.0,0.0,0.0,0.0,0.0,0.0,0.0,0.0,0.0,0.0,0.0,0.0,0.0,0.0,0.0,0.0,0.0,0.0,0.0,0.0,0.0,0.0,0.0,0.0,0.0,0.0,0.0,0.0,0.0,0.0,0.0,0.0,0.0,0.0,0.0,0.0,0.0,0.0,0.0,0.0,0.0,0.0,0.0,0.0,0.0,0.0,0.0,0.0,0.0,0.0,0.0,0.0,0.0,0.0,0.0,0.0,0.0,0.0,0.0,0.0,0.0,0.0,0.0,0.0,0.0,0.0,1.1836,0.0,0.0,0.0,0.0,0.0,0.0,0.0,0.0,0.0,0.0,0.0,0.0,0.0,0.0,0.0,0.0,0.0,0.0,0.0,0.0,0.0,0.0,0.0,0.0,0.0,0.0,0.0,0.0,0.0,0.0,0.0,0.0,0.0,0.0,0.0,0.0,0.0,0.0,0.0,0.0,0.0,0.0,0.0,0.0,0.0,0.0,0.0,0.0,0.0,0.0,0.0,0.0,0.0,0.0,0.0,0.0,0.0,0.0,0.0,0.0,0.0,0.0,0.0,0.0,0.0,0.0,0.0,0.0,0.0,0.0,0.0,0.0,0.0,0.0,0.0,0.0,0.0,0.0,0.0,0.0,0.0,0.0,0.0,0.0,0.0,0.0,0.0,0.0,0.0,0.0,0.0,0.0,0.0,0.0,0.0,0.0,0.0,0.0,0.0,0.0,0.0,0.0,0.0,0.0,0.0,0.0,0.0,0.0,0.0,0.0,0.0,0.0,0.0,0.0,0.0,0.0,0.0,0.0,0.0,0.0,0.0,0.0,0.0,0.0,0.0,0.0,0.0,0.0,0.0,0.0,0.0,0.0,0.0,0.0,0.0,0.0,0.0,0.0,0.0,0.0,0.0,0.0,0.0,0.0,0.0,0.0,0.0,0.0,0.0,0.0,0.0,0.0,0.0,0.0,0.0,0.0,0.0,0.0,0.0,0.0,0.0,0.0,0.0,0.0,0.0,0.0,0.0,0.0,0.0,0.0,0.0,0.0,0.0,0.0,0.0,0.0,0.0,0.0,0.0,0.0,0.0,0.0,0.0,0.0,0.0,0.0,0.0,0.0,0.0,0.0,0.0,0.0,0.0,0.0,0.0,0.0,0.0,0.0,0.0,0.0,0.0,0.0,0.0,0.0,0.0,0.0,0.0,0.0,0.0,0.0,0.0,0.0,0.0,0.0,0.0,0.0,0.0,0.0,0.0,0.0,0.0,0.0,0.0,0.0,0.0,0.0,0.0,0.0,0.0,0.0,0.0,0.0,0.0,0.0,0.0,0.0,0.0,0.0,0.0,0.0,0.0,0.0,0.0,0.0,0.0,0.0,0.0,0.0,0.0,0.0,0.0,0.0,0.0,0.0,0.0,0.0,0.0,0.0,0.0,0.0,0.0,0.0,0.0,0.0,0.0,0.0,0.0,0.0,0.0,0.0,0.0,0.0,0.0,0.0,0.0,0.0,0.0,0.0,0.0,0.0,0.0,0.0,0.0,0.0,0.0,0.0,0.0,0.0,0.0,0.0,0.0,0.0,0.0,0.0,0.0,0.0,0.0,0.0,0.0,0.0,0.0,0.0,0.0,0.0,0.0,0.0,0.0,0.0,0.0,0.0,0.0,0.0,0.0,0.0,0.0,0.0,0.0,0.0,0.0,0.0,0.0,0.0,0.0,0.0,0.0,0.0,0.0,0.0,0.0,0.0,0.0,0.0,0.0,0.0,0.0,0.0,0.0,0.0,0.0,0.0,0.0,0.0,0.0,0.0,0.0,0.0,0.0,0.0,0.0,0.0,0.0,0.0,0.0,0.0,0.0,0.0,0.0,0.0,0.0,0.0,0.0,0.0,0.0,0.0,0.0,0.0,0.0,0.0,0.0,0.0,0.0,0.0,0.0,0.0,0.0,0.0,0.0,0.0,0.0,0.0,0.0,0.0,0.0,0.0,0.0,0.0,0.0,0.0,0.0,0.0,0.0,0.0,0.0,0.0,0.0,0.0,0.0,0.0,0.0,0.0,0.0,0.0,0.0,0.0,0.0,0.0,0.0,0.0,0.0,0.0,0.0,0.0,0.0,0.0,0.0,0.0,0.0,0.0,0.0,0.0,0.0,0.0,0.0,0.0,0.0,0.0,0.0,0.0,0.0,0.0,0.0,0.0,0.0,0.0,0.0,0.0,0.0,0.0,0.0,0.0,0.0,0.0,0.0,0.0,0.0,0.0,0.0,0.0,0.0,0.0,0.0,0.0,0.0,0.0,0.0,0.0,0.0,0.0,0.0,0.0,0.0,0.0,0.0,0.0,0.0,0.0,0.0,0.0,0.0,0.0,0.0,0.0,0.0,0.0,0.0,0.0,0.0,0.0,0.0,0.0,0.0,0.0,0.0,0.0,0.0,0.0,0.0,0.0,0.0,0.0,0.0,0.0,0.0,0.0,0.0,0.0,0.0,0.0,0.0,0.0,0.0,0.0,0.0,0.0,0.0,0.0,0.0,0.0,0.0,0.0,0.0,0.0,0.0,0.0,0.0,0.0,0.0,0.0,0.0,0.0,0.0,0.0,0.0,0.0,0.0,0.0,0.0,0.0,0.0,0.0,0.0,0.0,0.0,0.0,0.0,0.0,0.0,0.0,0.0,0.0,0.0,0.0,0.0,0.0,0.0,0.0,0.0,0.0,0.0,0.0,0.0,0.0,0.0,0.0,0.0,0.0,0.0,0.0,0.0,0.0,0.0,0.0,0.0,0.0,0.0,0.0,0.0,0.0,0.0,0.0,0.0,0.0,0.0,0.0,0.0,0.0,0.0,0.0,0.0,0.0,0.0,0.0,0.0,0.0,0.0,0.0,0.0,0.0,0.0,0.0,0.0,0.0,0.0,0.0,0.0,0.0,0.0,0.0,0.0,0.0,0.0,0.0,0.0,0.0,0.0,0.0,0.0,0.0,0.0,0.0,0.0,0.0,0.0,0.0,0.0,0.0,0.0,0.0,0.0,0.0,0.0,0.0,0.0,0.0,0.0,0.0,0.0,0.0,0.0,0.0,0.0,0.0,0.0,0.0,0.0,0.0,0.0,0.0,0.0,0.0,0.0,0.0,0.0,0.0,0.0,0.0,0.0,0.0,0.0,0.0,0.0,0.0,0.0,0.0,0.0,0.0,0.0,0.0,0.0,0.0,0.0,0.0,0.0,0.0,0.0,0.0,0.0,0.0,0.0,0.0,0.0,0.0,0.0,0.0,0.0,0.0,0.0,0.0,0.0,0.0,0.0,0.0,0.0,0.0,0.0,0.0,0.0,0.0,0.0,0.0,0.0,0.0,0.0,0.0,0.0,0.0,0.0,0.0,0.0,0.0,0.0,0.0,0.0,0.0,0.0,0.0,0.0,0.0,0.0,0.0,0.0,0.0,0.0,0.0,0.0,0.0,0.0,0.0,0.0,0.0,0.0,0.0,0.0,0.0,0.0,0.0,0.0,0.0,0.0,0.0,0.0,0.0,0.0,0.0,0.0,0.0,0.0,0.0,0.0,0.0,0.0,0.0,0.0,0.0,0.0,0.0,0.0,0.0,0.0,0.0,0.0,0.0,0.0,0.0,0.0,0.0,0.0,0.0,0.0,0.0,0.0,0.0,0.0,0.0,0.0,0.0,0.0,0.0,0.0,0.0,0.0,0.0,0.0,0.0,0.0,0.0,0.0,0.0,0.0,0.0,0.0,0.0,0.0,0.0,0.0,0.0,0.0,0.0,0.0,0.0,0.0,0.0,0.0,0.0,0.0,0.0,0.0,0.0,0.0,0.0,0.0,0.0,0.0,0.0,0.0,0.0,0.0,0.0,0.0,0.0,0.0,0.0,0.0,0.0,0.0,0.0,0.0,0.0,0.0,0.0,0.0,0.0,0.0,0.0,0.0,0.0,0.0,0.0,0.0,0.0,0.0,0.0,0.0,0.0,0.0,0.0,0.0,0.0,0.0,0.0,0.0,0.0,0.0,0.0,0.0,0.0,0.0,0.0,0.0,0.0,0.0,0.0,0.0,0.0,0.0,0.0,0.0,0.0,0.0,0.0,0.0,0.0,0.0,0.0,0.0,0.0,0.0,0.0,0.0,0.0,0.0,0.0,0.0,0.0,0.0,0.0,0.0,0.0,0.0,0.0,0.0,0.0,0.0,0.0,0.0,0.0,0.0,0.0,0.0,0.0,0.0,0.0,0.0,0.0,0.0,0.0,0.0,0.0,0.0,0.0,0.0,0.0,0.0,0.0,0.0,0.0,0.0,0.0,0.0,0.0,0.0,0.0,0.0,0.0,0.0,0.0,0.0,0.0,0.0,0.0,0.0,0.0,0.0,0.0,0.0,0.0,0.0,0.0,0.0,0.0,0.0,0.0,0.0,0.0,0.0,0.0,0.0,0.0,0.0,0.0,0.0,0.0,0.0,0.0,0.0,0.0,0.0,0.0,0.0,0.0,0.0,0.0,0.0,0.0,0.0,0.0,0.0,0.0,0.0,0.0,0.0,0.0,0.0,0.0,0.0,0.0,0.0,0.0,0.0,0.0,0.0,0.0,0.0,0.0,0.0,0.0,0.0,0.0,0.0,0.0,0.0,0.0,0.0,0.0,0.0,0.0,0.0,0.0]}]]]